<?xml version="1.0" encoding="UTF-8" standalone="no" ?>
<gpx xmlns="http://www.topografix.com/GPX/1/1" xmlns:xsi="http://www.w3.org/2001/XMLSchema-instance" xsi:schemaLocation="http://www.topografix.com/GPX/1/1 http://www.topografix.com/GPX/1/1/gpx.xsd" version="1.1" creator="VisuGPX - https://www.visugpx.com">
  <metadata>
    <name>Circuits du Champ de Bataille</name>
    <desc><![CDATA[Circuit amélioré du Champ de Bataille à Cholet, maine et loire.]]></desc>
  </metadata>
  <trk>
    <name><![CDATA[Move]]></name>
    <trkseg>
      <trkpt lat="47.08162" lon="-0.87995">
        <ele>130</ele>
        <time>2016-10-26T13:55:39.009Z</time>
      </trkpt>
      <trkpt lat="47.08163" lon="-0.87997">
        <ele>130</ele>
        <time>2016-10-26T13:55:41.009Z</time>
      </trkpt>
      <trkpt lat="47.08163" lon="-0.88003">
        <ele>130</ele>
        <time>2016-10-26T13:55:45.009Z</time>
      </trkpt>
      <trkpt lat="47.08166" lon="-0.88008">
        <ele>130</ele>
        <time>2016-10-26T13:55:49.009Z</time>
      </trkpt>
      <trkpt lat="47.0817" lon="-0.88013">
        <ele>130</ele>
        <time>2016-10-26T13:55:54.009Z</time>
      </trkpt>
      <trkpt lat="47.08174" lon="-0.88015">
        <ele>130</ele>
        <time>2016-10-26T13:55:58.009Z</time>
      </trkpt>
      <trkpt lat="47.08179" lon="-0.88014">
        <ele>130</ele>
        <time>2016-10-26T13:56:02.009Z</time>
      </trkpt>
      <trkpt lat="47.08182" lon="-0.88011">
        <ele>130</ele>
        <time>2016-10-26T13:56:05.009Z</time>
      </trkpt>
      <trkpt lat="47.08186" lon="-0.88009">
        <ele>130</ele>
        <time>2016-10-26T13:56:08.009Z</time>
      </trkpt>
      <trkpt lat="47.0819" lon="-0.88007">
        <ele>130</ele>
        <time>2016-10-26T13:56:10.009Z</time>
      </trkpt>
      <trkpt lat="47.08193" lon="-0.88004">
        <ele>130</ele>
        <time>2016-10-26T13:56:13.009Z</time>
      </trkpt>
      <trkpt lat="47.08197" lon="-0.87999">
        <ele>130</ele>
        <time>2016-10-26T13:56:17.009Z</time>
      </trkpt>
      <trkpt lat="47.08201" lon="-0.87996">
        <ele>130</ele>
        <time>2016-10-26T13:56:20.009Z</time>
      </trkpt>
      <trkpt lat="47.08205" lon="-0.87992">
        <ele>130</ele>
        <time>2016-10-26T13:56:23.009Z</time>
      </trkpt>
      <trkpt lat="47.08208" lon="-0.87988">
        <ele>130</ele>
        <time>2016-10-26T13:56:26.009Z</time>
      </trkpt>
      <trkpt lat="47.08212" lon="-0.87985">
        <ele>130</ele>
        <time>2016-10-26T13:56:30.009Z</time>
      </trkpt>
      <trkpt lat="47.08216" lon="-0.87982">
        <ele>130</ele>
        <time>2016-10-26T13:56:34.009Z</time>
      </trkpt>
      <trkpt lat="47.0822" lon="-0.87978">
        <ele>130</ele>
        <time>2016-10-26T13:56:38.009Z</time>
      </trkpt>
      <trkpt lat="47.08223" lon="-0.87975">
        <ele>130</ele>
        <time>2016-10-26T13:56:41.009Z</time>
      </trkpt>
      <trkpt lat="47.08225" lon="-0.87971">
        <ele>130</ele>
        <time>2016-10-26T13:56:44.009Z</time>
      </trkpt>
      <trkpt lat="47.08229" lon="-0.87967">
        <ele>130</ele>
        <time>2016-10-26T13:56:48.009Z</time>
      </trkpt>
      <trkpt lat="47.08232" lon="-0.87963">
        <ele>130</ele>
        <time>2016-10-26T13:56:51.009Z</time>
      </trkpt>
      <trkpt lat="47.08236" lon="-0.8796">
        <ele>130</ele>
        <time>2016-10-26T13:56:54.009Z</time>
      </trkpt>
      <trkpt lat="47.08239" lon="-0.87957">
        <ele>130</ele>
        <time>2016-10-26T13:56:57.009Z</time>
      </trkpt>
      <trkpt lat="47.08242" lon="-0.87953">
        <ele>130</ele>
        <time>2016-10-26T13:57:00.009Z</time>
      </trkpt>
      <trkpt lat="47.08246" lon="-0.87949">
        <ele>130</ele>
        <time>2016-10-26T13:57:03.009Z</time>
      </trkpt>
      <trkpt lat="47.08249" lon="-0.87945">
        <ele>130</ele>
        <time>2016-10-26T13:57:06.009Z</time>
      </trkpt>
      <trkpt lat="47.08252" lon="-0.8794">
        <ele>130</ele>
        <time>2016-10-26T13:57:09.009Z</time>
      </trkpt>
      <trkpt lat="47.08253" lon="-0.87934">
        <ele>130</ele>
        <time>2016-10-26T13:57:12.009Z</time>
      </trkpt>
      <trkpt lat="47.08253" lon="-0.87928">
        <ele>130</ele>
        <time>2016-10-26T13:57:15.009Z</time>
      </trkpt>
      <trkpt lat="47.08252" lon="-0.87921">
        <ele>130</ele>
        <time>2016-10-26T13:57:18.009Z</time>
      </trkpt>
      <trkpt lat="47.0825" lon="-0.87915">
        <ele>130</ele>
        <time>2016-10-26T13:57:21.009Z</time>
      </trkpt>
      <trkpt lat="47.08248" lon="-0.87908">
        <ele>130</ele>
        <time>2016-10-26T13:57:24.009Z</time>
      </trkpt>
      <trkpt lat="47.08246" lon="-0.87903">
        <ele>130</ele>
        <time>2016-10-26T13:57:27.009Z</time>
      </trkpt>
      <trkpt lat="47.08244" lon="-0.87898">
        <ele>130</ele>
        <time>2016-10-26T13:57:30.009Z</time>
      </trkpt>
      <trkpt lat="47.08243" lon="-0.87893">
        <ele>130</ele>
        <time>2016-10-26T13:57:34.009Z</time>
      </trkpt>
      <trkpt lat="47.08245" lon="-0.87887">
        <ele>130</ele>
        <time>2016-10-26T13:57:39.009Z</time>
      </trkpt>
      <trkpt lat="47.08248" lon="-0.87882">
        <ele>130</ele>
        <time>2016-10-26T13:57:43.009Z</time>
      </trkpt>
      <trkpt lat="47.08252" lon="-0.87877">
        <ele>130</ele>
        <time>2016-10-26T13:57:47.009Z</time>
      </trkpt>
      <trkpt lat="47.08255" lon="-0.87872">
        <ele>130</ele>
        <time>2016-10-26T13:57:51.009Z</time>
      </trkpt>
      <trkpt lat="47.08258" lon="-0.87869">
        <ele>130</ele>
        <time>2016-10-26T13:57:54.009Z</time>
      </trkpt>
      <trkpt lat="47.0826" lon="-0.87864">
        <ele>130</ele>
        <time>2016-10-26T13:57:58.009Z</time>
      </trkpt>
      <trkpt lat="47.08263" lon="-0.8786">
        <ele>130</ele>
        <time>2016-10-26T13:58:01.009Z</time>
      </trkpt>
      <trkpt lat="47.08266" lon="-0.87857">
        <ele>130</ele>
        <time>2016-10-26T13:58:04.009Z</time>
      </trkpt>
      <trkpt lat="47.0827" lon="-0.87853">
        <ele>130</ele>
        <time>2016-10-26T13:58:08.009Z</time>
      </trkpt>
      <trkpt lat="47.08273" lon="-0.87848">
        <ele>130</ele>
        <time>2016-10-26T13:58:12.009Z</time>
      </trkpt>
      <trkpt lat="47.08276" lon="-0.87844">
        <ele>130</ele>
        <time>2016-10-26T13:58:15.009Z</time>
      </trkpt>
      <trkpt lat="47.08279" lon="-0.87839">
        <ele>130</ele>
        <time>2016-10-26T13:58:19.009Z</time>
      </trkpt>
      <trkpt lat="47.08282" lon="-0.87835">
        <ele>130</ele>
        <time>2016-10-26T13:58:23.009Z</time>
      </trkpt>
      <trkpt lat="47.08285" lon="-0.87831">
        <ele>130</ele>
        <time>2016-10-26T13:58:26.009Z</time>
      </trkpt>
      <trkpt lat="47.08288" lon="-0.87826">
        <ele>130</ele>
        <time>2016-10-26T13:58:29.009Z</time>
      </trkpt>
      <trkpt lat="47.08291" lon="-0.87822">
        <ele>130</ele>
        <time>2016-10-26T13:58:33.009Z</time>
      </trkpt>
      <trkpt lat="47.08295" lon="-0.87819">
        <ele>130</ele>
        <time>2016-10-26T13:58:36.009Z</time>
      </trkpt>
      <trkpt lat="47.08298" lon="-0.87817">
        <ele>130</ele>
        <time>2016-10-26T13:58:39.009Z</time>
      </trkpt>
      <trkpt lat="47.08301" lon="-0.87813">
        <ele>130</ele>
        <time>2016-10-26T13:58:42.009Z</time>
      </trkpt>
      <trkpt lat="47.08305" lon="-0.8781">
        <ele>130</ele>
        <time>2016-10-26T13:58:45.009Z</time>
      </trkpt>
      <trkpt lat="47.08308" lon="-0.87807">
        <ele>130</ele>
        <time>2016-10-26T13:58:49.009Z</time>
      </trkpt>
      <trkpt lat="47.0831" lon="-0.87803">
        <ele>130</ele>
        <time>2016-10-26T13:58:52.009Z</time>
      </trkpt>
      <trkpt lat="47.08313" lon="-0.87799">
        <ele>130</ele>
        <time>2016-10-26T13:58:55.009Z</time>
      </trkpt>
      <trkpt lat="47.08316" lon="-0.87794">
        <ele>130</ele>
        <time>2016-10-26T13:58:59.009Z</time>
      </trkpt>
      <trkpt lat="47.08319" lon="-0.87791">
        <ele>130</ele>
        <time>2016-10-26T13:59:02.009Z</time>
      </trkpt>
      <trkpt lat="47.08323" lon="-0.8779">
        <ele>130</ele>
        <time>2016-10-26T13:59:05.009Z</time>
      </trkpt>
      <trkpt lat="47.08326" lon="-0.87789">
        <ele>130</ele>
        <time>2016-10-26T13:59:09.009Z</time>
      </trkpt>
      <trkpt lat="47.08329" lon="-0.87785">
        <ele>130</ele>
        <time>2016-10-26T13:59:12.009Z</time>
      </trkpt>
      <trkpt lat="47.08333" lon="-0.87782">
        <ele>130</ele>
        <time>2016-10-26T13:59:15.009Z</time>
      </trkpt>
      <trkpt lat="47.08336" lon="-0.87779">
        <ele>130</ele>
        <time>2016-10-26T13:59:18.009Z</time>
      </trkpt>
      <trkpt lat="47.08339" lon="-0.87776">
        <ele>130</ele>
        <time>2016-10-26T13:59:21.009Z</time>
      </trkpt>
      <trkpt lat="47.08342" lon="-0.87772">
        <ele>130</ele>
        <time>2016-10-26T13:59:24.009Z</time>
      </trkpt>
      <trkpt lat="47.08346" lon="-0.87769">
        <ele>130</ele>
        <time>2016-10-26T13:59:28.009Z</time>
      </trkpt>
      <trkpt lat="47.0835" lon="-0.87766">
        <ele>130</ele>
        <time>2016-10-26T13:59:31.009Z</time>
      </trkpt>
      <trkpt lat="47.08353" lon="-0.87764">
        <ele>130</ele>
        <time>2016-10-26T13:59:34.009Z</time>
      </trkpt>
      <trkpt lat="47.08357" lon="-0.8776">
        <ele>130</ele>
        <time>2016-10-26T13:59:37.009Z</time>
      </trkpt>
      <trkpt lat="47.0836" lon="-0.87757">
        <ele>130</ele>
        <time>2016-10-26T13:59:41.009Z</time>
      </trkpt>
      <trkpt lat="47.08363" lon="-0.87753">
        <ele>130</ele>
        <time>2016-10-26T13:59:44.009Z</time>
      </trkpt>
      <trkpt lat="47.08367" lon="-0.8775">
        <ele>130</ele>
        <time>2016-10-26T13:59:48.009Z</time>
      </trkpt>
      <trkpt lat="47.08371" lon="-0.87747">
        <ele>130</ele>
        <time>2016-10-26T13:59:52.009Z</time>
      </trkpt>
      <trkpt lat="47.08375" lon="-0.87745">
        <ele>130</ele>
        <time>2016-10-26T13:59:55.009Z</time>
      </trkpt>
      <trkpt lat="47.08378" lon="-0.87741">
        <ele>130</ele>
        <time>2016-10-26T13:59:58.009Z</time>
      </trkpt>
      <trkpt lat="47.08382" lon="-0.87737">
        <ele>130</ele>
        <time>2016-10-26T14:00:03.009Z</time>
      </trkpt>
      <trkpt lat="47.08386" lon="-0.87733">
        <ele>130</ele>
        <time>2016-10-26T14:00:07.009Z</time>
      </trkpt>
      <trkpt lat="47.0839" lon="-0.87729">
        <ele>130</ele>
        <time>2016-10-26T14:00:10.009Z</time>
      </trkpt>
      <trkpt lat="47.08394" lon="-0.87725">
        <ele>130</ele>
        <time>2016-10-26T14:00:13.009Z</time>
      </trkpt>
      <trkpt lat="47.08397" lon="-0.87722">
        <ele>130</ele>
        <time>2016-10-26T14:00:16.009Z</time>
      </trkpt>
      <trkpt lat="47.08401" lon="-0.87719">
        <ele>130</ele>
        <time>2016-10-26T14:00:19.009Z</time>
      </trkpt>
      <trkpt lat="47.08404" lon="-0.87716">
        <ele>130</ele>
        <time>2016-10-26T14:00:22.009Z</time>
      </trkpt>
      <trkpt lat="47.08407" lon="-0.87713">
        <ele>130</ele>
        <time>2016-10-26T14:00:25.009Z</time>
      </trkpt>
      <trkpt lat="47.0841" lon="-0.8771">
        <ele>130</ele>
        <time>2016-10-26T14:00:28.009Z</time>
      </trkpt>
      <trkpt lat="47.08413" lon="-0.87706">
        <ele>130</ele>
        <time>2016-10-26T14:00:31.009Z</time>
      </trkpt>
      <trkpt lat="47.08416" lon="-0.87702">
        <ele>130</ele>
        <time>2016-10-26T14:00:34.009Z</time>
      </trkpt>
      <trkpt lat="47.0842" lon="-0.87698">
        <ele>130</ele>
        <time>2016-10-26T14:00:38.009Z</time>
      </trkpt>
      <trkpt lat="47.08423" lon="-0.87693">
        <ele>130</ele>
        <time>2016-10-26T14:00:42.009Z</time>
      </trkpt>
      <trkpt lat="47.08428" lon="-0.8769">
        <ele>130</ele>
        <time>2016-10-26T14:00:46.009Z</time>
      </trkpt>
      <trkpt lat="47.08432" lon="-0.87687">
        <ele>130</ele>
        <time>2016-10-26T14:00:49.009Z</time>
      </trkpt>
      <trkpt lat="47.08435" lon="-0.87683">
        <ele>130</ele>
        <time>2016-10-26T14:00:52.009Z</time>
      </trkpt>
      <trkpt lat="47.08439" lon="-0.87679">
        <ele>130</ele>
        <time>2016-10-26T14:00:56.009Z</time>
      </trkpt>
      <trkpt lat="47.08443" lon="-0.87673">
        <ele>130</ele>
        <time>2016-10-26T14:01:01.009Z</time>
      </trkpt>
      <trkpt lat="47.08447" lon="-0.8767">
        <ele>130</ele>
        <time>2016-10-26T14:01:05.009Z</time>
      </trkpt>
      <trkpt lat="47.08451" lon="-0.87666">
        <ele>130</ele>
        <time>2016-10-26T14:01:08.009Z</time>
      </trkpt>
      <trkpt lat="47.08454" lon="-0.87663">
        <ele>130</ele>
        <time>2016-10-26T14:01:11.009Z</time>
      </trkpt>
      <trkpt lat="47.08457" lon="-0.87661">
        <ele>130</ele>
        <time>2016-10-26T14:01:13.009Z</time>
      </trkpt>
      <trkpt lat="47.08461" lon="-0.87657">
        <ele>130</ele>
        <time>2016-10-26T14:01:17.009Z</time>
      </trkpt>
      <trkpt lat="47.08464" lon="-0.87653">
        <ele>130</ele>
        <time>2016-10-26T14:01:20.009Z</time>
      </trkpt>
      <trkpt lat="47.08468" lon="-0.8765">
        <ele>130</ele>
        <time>2016-10-26T14:01:24.009Z</time>
      </trkpt>
      <trkpt lat="47.08471" lon="-0.87645">
        <ele>130</ele>
        <time>2016-10-26T14:01:28.009Z</time>
      </trkpt>
      <trkpt lat="47.08474" lon="-0.87641">
        <ele>130</ele>
        <time>2016-10-26T14:01:31.009Z</time>
      </trkpt>
      <trkpt lat="47.08477" lon="-0.87638">
        <ele>130</ele>
        <time>2016-10-26T14:01:35.009Z</time>
      </trkpt>
      <trkpt lat="47.08481" lon="-0.87635">
        <ele>130</ele>
        <time>2016-10-26T14:01:43.009Z</time>
      </trkpt>
      <trkpt lat="47.08484" lon="-0.87631">
        <ele>130</ele>
        <time>2016-10-26T14:01:47.009Z</time>
      </trkpt>
      <trkpt lat="47.08488" lon="-0.87628">
        <ele>130</ele>
        <time>2016-10-26T14:01:50.009Z</time>
      </trkpt>
      <trkpt lat="47.08492" lon="-0.87625">
        <ele>130</ele>
        <time>2016-10-26T14:01:53.009Z</time>
      </trkpt>
      <trkpt lat="47.08495" lon="-0.87622">
        <ele>130</ele>
        <time>2016-10-26T14:01:56.009Z</time>
      </trkpt>
      <trkpt lat="47.08499" lon="-0.8762">
        <ele>130</ele>
        <time>2016-10-26T14:02:00.009Z</time>
      </trkpt>
      <trkpt lat="47.08502" lon="-0.87618">
        <ele>123</ele>
        <time>2016-10-26T14:02:03.009Z</time>
      </trkpt>
      <trkpt lat="47.08507" lon="-0.87615">
        <ele>123</ele>
        <time>2016-10-26T14:02:07.009Z</time>
      </trkpt>
      <trkpt lat="47.0851" lon="-0.87612">
        <ele>123</ele>
        <time>2016-10-26T14:02:10.009Z</time>
      </trkpt>
      <trkpt lat="47.08514" lon="-0.87609">
        <ele>123</ele>
        <time>2016-10-26T14:02:13.009Z</time>
      </trkpt>
      <trkpt lat="47.08517" lon="-0.87607">
        <ele>123</ele>
        <time>2016-10-26T14:02:16.009Z</time>
      </trkpt>
      <trkpt lat="47.08522" lon="-0.87604">
        <ele>123</ele>
        <time>2016-10-26T14:02:20.009Z</time>
      </trkpt>
      <trkpt lat="47.08525" lon="-0.87602">
        <ele>124</ele>
        <time>2016-10-26T14:02:23.009Z</time>
      </trkpt>
      <trkpt lat="47.08529" lon="-0.876">
        <ele>124</ele>
        <time>2016-10-26T14:02:26.009Z</time>
      </trkpt>
      <trkpt lat="47.08533" lon="-0.87597">
        <ele>124</ele>
        <time>2016-10-26T14:02:29.009Z</time>
      </trkpt>
      <trkpt lat="47.08537" lon="-0.87594">
        <ele>123</ele>
        <time>2016-10-26T14:02:33.009Z</time>
      </trkpt>
      <trkpt lat="47.08541" lon="-0.87592">
        <ele>123</ele>
        <time>2016-10-26T14:02:36.009Z</time>
      </trkpt>
      <trkpt lat="47.08545" lon="-0.87589">
        <ele>123</ele>
        <time>2016-10-26T14:02:39.009Z</time>
      </trkpt>
      <trkpt lat="47.08549" lon="-0.87586">
        <ele>121.61826461539</ele>
        <time>2016-10-26T14:02:42.009Z</time>
      </trkpt>
      <trkpt lat="47.08552" lon="-0.87585">
        <ele>120</ele>
        <time>2016-10-26T14:02:45.009Z</time>
      </trkpt>
      <trkpt lat="47.08556" lon="-0.87583">
        <ele>120</ele>
        <time>2016-10-26T14:02:48.009Z</time>
      </trkpt>
      <trkpt lat="47.0856" lon="-0.8758">
        <ele>120</ele>
        <time>2016-10-26T14:02:51.009Z</time>
      </trkpt>
      <trkpt lat="47.08564" lon="-0.87578">
        <ele>120</ele>
        <time>2016-10-26T14:02:54.009Z</time>
      </trkpt>
      <trkpt lat="47.08568" lon="-0.87577">
        <ele>120</ele>
        <time>2016-10-26T14:02:57.009Z</time>
      </trkpt>
      <trkpt lat="47.08571" lon="-0.87576">
        <ele>120</ele>
        <time>2016-10-26T14:03:00.009Z</time>
      </trkpt>
      <trkpt lat="47.08576" lon="-0.87575">
        <ele>119</ele>
        <time>2016-10-26T14:03:04.009Z</time>
      </trkpt>
      <trkpt lat="47.08579" lon="-0.87574">
        <ele>119</ele>
        <time>2016-10-26T14:03:07.009Z</time>
      </trkpt>
      <trkpt lat="47.08584" lon="-0.87572">
        <ele>119</ele>
        <time>2016-10-26T14:03:11.009Z</time>
      </trkpt>
      <trkpt lat="47.08588" lon="-0.87572">
        <ele>119</ele>
        <time>2016-10-26T14:03:14.009Z</time>
      </trkpt>
      <trkpt lat="47.08591" lon="-0.87572">
        <ele>119</ele>
        <time>2016-10-26T14:03:17.009Z</time>
      </trkpt>
      <trkpt lat="47.08596" lon="-0.87571">
        <ele>119</ele>
        <time>2016-10-26T14:03:21.009Z</time>
      </trkpt>
      <trkpt lat="47.086" lon="-0.87572">
        <ele>118</ele>
        <time>2016-10-26T14:03:24.009Z</time>
      </trkpt>
      <trkpt lat="47.08604" lon="-0.87572">
        <ele>118</ele>
        <time>2016-10-26T14:03:27.009Z</time>
      </trkpt>
      <trkpt lat="47.08608" lon="-0.87573">
        <ele>118</ele>
        <time>2016-10-26T14:03:30.009Z</time>
      </trkpt>
      <trkpt lat="47.08613" lon="-0.87575">
        <ele>118</ele>
        <time>2016-10-26T14:03:33.009Z</time>
      </trkpt>
      <trkpt lat="47.08618" lon="-0.87575">
        <ele>118</ele>
        <time>2016-10-26T14:03:37.009Z</time>
      </trkpt>
      <trkpt lat="47.08622" lon="-0.87575">
        <ele>118</ele>
        <time>2016-10-26T14:03:41.009Z</time>
      </trkpt>
      <trkpt lat="47.08626" lon="-0.87574">
        <ele>118</ele>
        <time>2016-10-26T14:03:44.009Z</time>
      </trkpt>
      <trkpt lat="47.08631" lon="-0.87574">
        <ele>118</ele>
        <time>2016-10-26T14:03:47.009Z</time>
      </trkpt>
      <trkpt lat="47.08635" lon="-0.87573">
        <ele>118</ele>
        <time>2016-10-26T14:03:50.009Z</time>
      </trkpt>
      <trkpt lat="47.08639" lon="-0.87572">
        <ele>117</ele>
        <time>2016-10-26T14:03:53.009Z</time>
      </trkpt>
      <trkpt lat="47.08643" lon="-0.8757">
        <ele>117</ele>
        <time>2016-10-26T14:03:56.009Z</time>
      </trkpt>
      <trkpt lat="47.08646" lon="-0.87569">
        <ele>117</ele>
        <time>2016-10-26T14:03:59.009Z</time>
      </trkpt>
      <trkpt lat="47.08651" lon="-0.87567">
        <ele>115</ele>
        <time>2016-10-26T14:04:02.009Z</time>
      </trkpt>
      <trkpt lat="47.08654" lon="-0.87564">
        <ele>115</ele>
        <time>2016-10-26T14:04:05.009Z</time>
      </trkpt>
      <trkpt lat="47.08658" lon="-0.87562">
        <ele>115</ele>
        <time>2016-10-26T14:04:08.009Z</time>
      </trkpt>
      <trkpt lat="47.08661" lon="-0.8756">
        <ele>115</ele>
        <time>2016-10-26T14:04:11.009Z</time>
      </trkpt>
      <trkpt lat="47.08665" lon="-0.87557">
        <ele>115</ele>
        <time>2016-10-26T14:04:14.009Z</time>
      </trkpt>
      <trkpt lat="47.08668" lon="-0.87555">
        <ele>115</ele>
        <time>2016-10-26T14:04:17.009Z</time>
      </trkpt>
      <trkpt lat="47.08672" lon="-0.87552">
        <ele>114.5209984</ele>
        <time>2016-10-26T14:04:21.009Z</time>
      </trkpt>
      <trkpt lat="47.08676" lon="-0.8755">
        <ele>114</ele>
        <time>2016-10-26T14:04:24.009Z</time>
      </trkpt>
      <trkpt lat="47.08679" lon="-0.87547">
        <ele>114</ele>
        <time>2016-10-26T14:04:27.009Z</time>
      </trkpt>
      <trkpt lat="47.08683" lon="-0.87545">
        <ele>114</ele>
        <time>2016-10-26T14:04:30.009Z</time>
      </trkpt>
      <trkpt lat="47.08687" lon="-0.87543">
        <ele>113</ele>
        <time>2016-10-26T14:04:33.009Z</time>
      </trkpt>
      <trkpt lat="47.0869" lon="-0.87541">
        <ele>113</ele>
        <time>2016-10-26T14:04:36.009Z</time>
      </trkpt>
      <trkpt lat="47.08694" lon="-0.87538">
        <ele>113</ele>
        <time>2016-10-26T14:04:40.009Z</time>
      </trkpt>
      <trkpt lat="47.08698" lon="-0.87535">
        <ele>113</ele>
        <time>2016-10-26T14:04:43.009Z</time>
      </trkpt>
      <trkpt lat="47.08702" lon="-0.87533">
        <ele>113</ele>
        <time>2016-10-26T14:04:47.009Z</time>
      </trkpt>
      <trkpt lat="47.08705" lon="-0.8753">
        <ele>113</ele>
        <time>2016-10-26T14:04:50.009Z</time>
      </trkpt>
      <trkpt lat="47.08709" lon="-0.87527">
        <ele>113</ele>
        <time>2016-10-26T14:04:53.009Z</time>
      </trkpt>
      <trkpt lat="47.08712" lon="-0.87525">
        <ele>113</ele>
        <time>2016-10-26T14:04:56.009Z</time>
      </trkpt>
      <trkpt lat="47.08716" lon="-0.87522">
        <ele>113</ele>
        <time>2016-10-26T14:04:59.009Z</time>
      </trkpt>
      <trkpt lat="47.0872" lon="-0.87519">
        <ele>112</ele>
        <time>2016-10-26T14:05:02.009Z</time>
      </trkpt>
      <trkpt lat="47.08724" lon="-0.87515">
        <ele>112</ele>
        <time>2016-10-26T14:05:06.009Z</time>
      </trkpt>
      <trkpt lat="47.08727" lon="-0.87513">
        <ele>112</ele>
        <time>2016-10-26T14:05:09.009Z</time>
      </trkpt>
      <trkpt lat="47.08731" lon="-0.8751">
        <ele>112</ele>
        <time>2016-10-26T14:05:12.009Z</time>
      </trkpt>
      <trkpt lat="47.08735" lon="-0.87507">
        <ele>112</ele>
        <time>2016-10-26T14:05:16.009Z</time>
      </trkpt>
      <trkpt lat="47.0874" lon="-0.87503">
        <ele>112</ele>
        <time>2016-10-26T14:05:20.009Z</time>
      </trkpt>
      <trkpt lat="47.08743" lon="-0.875">
        <ele>112</ele>
        <time>2016-10-26T14:05:23.009Z</time>
      </trkpt>
      <trkpt lat="47.08746" lon="-0.87497">
        <ele>112</ele>
        <time>2016-10-26T14:05:26.009Z</time>
      </trkpt>
      <trkpt lat="47.08749" lon="-0.87495">
        <ele>112</ele>
        <time>2016-10-26T14:05:29.009Z</time>
      </trkpt>
      <trkpt lat="47.08753" lon="-0.87492">
        <ele>112</ele>
        <time>2016-10-26T14:05:32.009Z</time>
      </trkpt>
      <trkpt lat="47.08756" lon="-0.87489">
        <ele>112</ele>
        <time>2016-10-26T14:05:35.009Z</time>
      </trkpt>
      <trkpt lat="47.08759" lon="-0.87486">
        <ele>112</ele>
        <time>2016-10-26T14:05:41.009Z</time>
      </trkpt>
      <trkpt lat="47.08763" lon="-0.87482">
        <ele>112</ele>
        <time>2016-10-26T14:05:56.009Z</time>
      </trkpt>
      <trkpt lat="47.08767" lon="-0.87479">
        <ele>112</ele>
        <time>2016-10-26T14:06:00.009Z</time>
      </trkpt>
      <trkpt lat="47.08771" lon="-0.87476">
        <ele>112</ele>
        <time>2016-10-26T14:06:03.009Z</time>
      </trkpt>
      <trkpt lat="47.08774" lon="-0.87474">
        <ele>112</ele>
        <time>2016-10-26T14:06:06.009Z</time>
      </trkpt>
      <trkpt lat="47.08778" lon="-0.87471">
        <ele>112</ele>
        <time>2016-10-26T14:06:09.009Z</time>
      </trkpt>
      <trkpt lat="47.08781" lon="-0.87469">
        <ele>112</ele>
        <time>2016-10-26T14:06:12.009Z</time>
      </trkpt>
      <trkpt lat="47.08784" lon="-0.87466">
        <ele>112</ele>
        <time>2016-10-26T14:06:15.009Z</time>
      </trkpt>
      <trkpt lat="47.08788" lon="-0.87463">
        <ele>112</ele>
        <time>2016-10-26T14:06:18.009Z</time>
      </trkpt>
      <trkpt lat="47.08792" lon="-0.87461">
        <ele>112</ele>
        <time>2016-10-26T14:06:21.009Z</time>
      </trkpt>
      <trkpt lat="47.08795" lon="-0.87458">
        <ele>112</ele>
        <time>2016-10-26T14:06:24.009Z</time>
      </trkpt>
      <trkpt lat="47.08799" lon="-0.87456">
        <ele>112</ele>
        <time>2016-10-26T14:06:27.009Z</time>
      </trkpt>
      <trkpt lat="47.08802" lon="-0.87453">
        <ele>112</ele>
        <time>2016-10-26T14:06:30.009Z</time>
      </trkpt>
      <trkpt lat="47.08806" lon="-0.87451">
        <ele>112</ele>
        <time>2016-10-26T14:06:33.009Z</time>
      </trkpt>
      <trkpt lat="47.08809" lon="-0.87447">
        <ele>112</ele>
        <time>2016-10-26T14:06:36.009Z</time>
      </trkpt>
      <trkpt lat="47.08812" lon="-0.87443">
        <ele>112</ele>
        <time>2016-10-26T14:06:39.009Z</time>
      </trkpt>
      <trkpt lat="47.08813" lon="-0.87438">
        <ele>112</ele>
        <time>2016-10-26T14:06:42.009Z</time>
      </trkpt>
      <trkpt lat="47.08815" lon="-0.87432">
        <ele>112</ele>
        <time>2016-10-26T14:06:46.009Z</time>
      </trkpt>
      <trkpt lat="47.08817" lon="-0.87427">
        <ele>112</ele>
        <time>2016-10-26T14:06:49.009Z</time>
      </trkpt>
      <trkpt lat="47.08819" lon="-0.87422">
        <ele>112</ele>
        <time>2016-10-26T14:06:52.009Z</time>
      </trkpt>
      <trkpt lat="47.08822" lon="-0.87416">
        <ele>112</ele>
        <time>2016-10-26T14:06:56.009Z</time>
      </trkpt>
      <trkpt lat="47.08824" lon="-0.87411">
        <ele>112</ele>
        <time>2016-10-26T14:06:59.009Z</time>
      </trkpt>
      <trkpt lat="47.08826" lon="-0.87406">
        <ele>111</ele>
        <time>2016-10-26T14:07:02.009Z</time>
      </trkpt>
      <trkpt lat="47.08829" lon="-0.874">
        <ele>111</ele>
        <time>2016-10-26T14:07:06.009Z</time>
      </trkpt>
      <trkpt lat="47.08831" lon="-0.87396">
        <ele>111</ele>
        <time>2016-10-26T14:07:09.009Z</time>
      </trkpt>
      <trkpt lat="47.08835" lon="-0.87392">
        <ele>112</ele>
        <time>2016-10-26T14:07:13.009Z</time>
      </trkpt>
      <trkpt lat="47.08838" lon="-0.87389">
        <ele>112</ele>
        <time>2016-10-26T14:07:16.009Z</time>
      </trkpt>
      <trkpt lat="47.08841" lon="-0.87387">
        <ele>112</ele>
        <time>2016-10-26T14:07:19.009Z</time>
      </trkpt>
      <trkpt lat="47.08845" lon="-0.87384">
        <ele>112</ele>
        <time>2016-10-26T14:07:22.009Z</time>
      </trkpt>
      <trkpt lat="47.08848" lon="-0.8738">
        <ele>112</ele>
        <time>2016-10-26T14:07:26.009Z</time>
      </trkpt>
      <trkpt lat="47.0885" lon="-0.87375">
        <ele>112</ele>
        <time>2016-10-26T14:07:29.009Z</time>
      </trkpt>
      <trkpt lat="47.08854" lon="-0.87369">
        <ele>112</ele>
        <time>2016-10-26T14:07:32.009Z</time>
      </trkpt>
      <trkpt lat="47.08856" lon="-0.87364">
        <ele>112</ele>
        <time>2016-10-26T14:07:35.009Z</time>
      </trkpt>
      <trkpt lat="47.08858" lon="-0.87359">
        <ele>112</ele>
        <time>2016-10-26T14:07:38.009Z</time>
      </trkpt>
      <trkpt lat="47.0886" lon="-0.87355">
        <ele>112</ele>
        <time>2016-10-26T14:07:41.009Z</time>
      </trkpt>
      <trkpt lat="47.08861" lon="-0.8735">
        <ele>112</ele>
        <time>2016-10-26T14:07:44.009Z</time>
      </trkpt>
      <trkpt lat="47.08862" lon="-0.87345">
        <ele>112</ele>
        <time>2016-10-26T14:07:47.009Z</time>
      </trkpt>
      <trkpt lat="47.08862" lon="-0.87338">
        <ele>112</ele>
        <time>2016-10-26T14:07:50.009Z</time>
      </trkpt>
      <trkpt lat="47.08861" lon="-0.87331">
        <ele>112</ele>
        <time>2016-10-26T14:07:53.009Z</time>
      </trkpt>
      <trkpt lat="47.0886" lon="-0.87326">
        <ele>112</ele>
        <time>2016-10-26T14:07:56.009Z</time>
      </trkpt>
      <trkpt lat="47.08857" lon="-0.87319">
        <ele>112</ele>
        <time>2016-10-26T14:07:59.009Z</time>
      </trkpt>
      <trkpt lat="47.08856" lon="-0.87313">
        <ele>112</ele>
        <time>2016-10-26T14:08:02.009Z</time>
      </trkpt>
      <trkpt lat="47.08854" lon="-0.87308">
        <ele>112</ele>
        <time>2016-10-26T14:08:05.009Z</time>
      </trkpt>
      <trkpt lat="47.08852" lon="-0.87303">
        <ele>112</ele>
        <time>2016-10-26T14:08:08.009Z</time>
      </trkpt>
      <trkpt lat="47.0885" lon="-0.87297">
        <ele>112</ele>
        <time>2016-10-26T14:08:12.009Z</time>
      </trkpt>
      <trkpt lat="47.08848" lon="-0.87291">
        <ele>112</ele>
        <time>2016-10-26T14:08:15.009Z</time>
      </trkpt>
      <trkpt lat="47.08846" lon="-0.87286">
        <ele>112</ele>
        <time>2016-10-26T14:08:18.009Z</time>
      </trkpt>
      <trkpt lat="47.08845" lon="-0.87281">
        <ele>112</ele>
        <time>2016-10-26T14:08:21.009Z</time>
      </trkpt>
      <trkpt lat="47.08843" lon="-0.87275">
        <ele>112</ele>
        <time>2016-10-26T14:08:25.009Z</time>
      </trkpt>
      <trkpt lat="47.08842" lon="-0.8727">
        <ele>112</ele>
        <time>2016-10-26T14:08:28.009Z</time>
      </trkpt>
      <trkpt lat="47.08841" lon="-0.87264">
        <ele>112</ele>
        <time>2016-10-26T14:08:32.009Z</time>
      </trkpt>
      <trkpt lat="47.08839" lon="-0.87257">
        <ele>112</ele>
        <time>2016-10-26T14:08:36.009Z</time>
      </trkpt>
      <trkpt lat="47.08837" lon="-0.87251">
        <ele>112</ele>
        <time>2016-10-26T14:08:39.009Z</time>
      </trkpt>
      <trkpt lat="47.08835" lon="-0.87246">
        <ele>112</ele>
        <time>2016-10-26T14:08:42.009Z</time>
      </trkpt>
      <trkpt lat="47.08834" lon="-0.87241">
        <ele>112</ele>
        <time>2016-10-26T14:08:45.009Z</time>
      </trkpt>
      <trkpt lat="47.08832" lon="-0.87235">
        <ele>112</ele>
        <time>2016-10-26T14:08:49.009Z</time>
      </trkpt>
      <trkpt lat="47.0883" lon="-0.87229">
        <ele>112</ele>
        <time>2016-10-26T14:08:52.009Z</time>
      </trkpt>
      <trkpt lat="47.08828" lon="-0.87224">
        <ele>112</ele>
        <time>2016-10-26T14:08:55.009Z</time>
      </trkpt>
      <trkpt lat="47.08826" lon="-0.87218">
        <ele>112</ele>
        <time>2016-10-26T14:08:59.009Z</time>
      </trkpt>
      <trkpt lat="47.08825" lon="-0.87213">
        <ele>112</ele>
        <time>2016-10-26T14:09:03.009Z</time>
      </trkpt>
      <trkpt lat="47.08823" lon="-0.87207">
        <ele>112</ele>
        <time>2016-10-26T14:09:07.009Z</time>
      </trkpt>
      <trkpt lat="47.08821" lon="-0.87202">
        <ele>112</ele>
        <time>2016-10-26T14:09:11.009Z</time>
      </trkpt>
      <trkpt lat="47.08819" lon="-0.87197">
        <ele>112</ele>
        <time>2016-10-26T14:09:14.009Z</time>
      </trkpt>
      <trkpt lat="47.08816" lon="-0.87192">
        <ele>112</ele>
        <time>2016-10-26T14:09:17.009Z</time>
      </trkpt>
      <trkpt lat="47.08814" lon="-0.87188">
        <ele>112</ele>
        <time>2016-10-26T14:09:21.009Z</time>
      </trkpt>
      <trkpt lat="47.08811" lon="-0.87184">
        <ele>112</ele>
        <time>2016-10-26T14:09:24.009Z</time>
      </trkpt>
      <trkpt lat="47.08808" lon="-0.87179">
        <ele>112</ele>
        <time>2016-10-26T14:09:28.009Z</time>
      </trkpt>
      <trkpt lat="47.08805" lon="-0.87176">
        <ele>112</ele>
        <time>2016-10-26T14:09:31.009Z</time>
      </trkpt>
      <trkpt lat="47.08801" lon="-0.87174">
        <ele>112</ele>
        <time>2016-10-26T14:09:34.009Z</time>
      </trkpt>
      <trkpt lat="47.08798" lon="-0.87172">
        <ele>112</ele>
        <time>2016-10-26T14:09:37.009Z</time>
      </trkpt>
      <trkpt lat="47.08793" lon="-0.87171">
        <ele>112</ele>
        <time>2016-10-26T14:09:41.009Z</time>
      </trkpt>
      <trkpt lat="47.08789" lon="-0.87172">
        <ele>112</ele>
        <time>2016-10-26T14:09:44.009Z</time>
      </trkpt>
      <trkpt lat="47.08786" lon="-0.87173">
        <ele>112</ele>
        <time>2016-10-26T14:09:47.009Z</time>
      </trkpt>
      <trkpt lat="47.08782" lon="-0.87174">
        <ele>112</ele>
        <time>2016-10-26T14:09:51.009Z</time>
      </trkpt>
      <trkpt lat="47.08778" lon="-0.87176">
        <ele>112</ele>
        <time>2016-10-26T14:09:54.009Z</time>
      </trkpt>
      <trkpt lat="47.08775" lon="-0.87178">
        <ele>112</ele>
        <time>2016-10-26T14:09:57.009Z</time>
      </trkpt>
      <trkpt lat="47.0877" lon="-0.87179">
        <ele>111.57610837996</ele>
        <time>2016-10-26T14:10:01.009Z</time>
      </trkpt>
      <trkpt lat="47.08767" lon="-0.87182">
        <ele>111</ele>
        <time>2016-10-26T14:10:04.009Z</time>
      </trkpt>
      <trkpt lat="47.08762" lon="-0.87185">
        <ele>111</ele>
        <time>2016-10-26T14:10:08.009Z</time>
      </trkpt>
      <trkpt lat="47.08758" lon="-0.87188">
        <ele>111</ele>
        <time>2016-10-26T14:10:12.009Z</time>
      </trkpt>
      <trkpt lat="47.08755" lon="-0.87189">
        <ele>111</ele>
        <time>2016-10-26T14:10:15.009Z</time>
      </trkpt>
      <trkpt lat="47.0875" lon="-0.87191">
        <ele>111</ele>
        <time>2016-10-26T14:10:19.009Z</time>
      </trkpt>
      <trkpt lat="47.08747" lon="-0.87192">
        <ele>111</ele>
        <time>2016-10-26T14:10:22.009Z</time>
      </trkpt>
      <trkpt lat="47.08743" lon="-0.87193">
        <ele>111</ele>
        <time>2016-10-26T14:10:25.009Z</time>
      </trkpt>
      <trkpt lat="47.08738" lon="-0.87195">
        <ele>111</ele>
        <time>2016-10-26T14:10:29.009Z</time>
      </trkpt>
      <trkpt lat="47.08735" lon="-0.87197">
        <ele>111</ele>
        <time>2016-10-26T14:10:32.009Z</time>
      </trkpt>
      <trkpt lat="47.08731" lon="-0.87199">
        <ele>111</ele>
        <time>2016-10-26T14:10:35.009Z</time>
      </trkpt>
      <trkpt lat="47.08727" lon="-0.87201">
        <ele>111</ele>
        <time>2016-10-26T14:10:39.009Z</time>
      </trkpt>
      <trkpt lat="47.08723" lon="-0.87203">
        <ele>111</ele>
        <time>2016-10-26T14:10:42.009Z</time>
      </trkpt>
      <trkpt lat="47.0872" lon="-0.87205">
        <ele>111</ele>
        <time>2016-10-26T14:10:45.009Z</time>
      </trkpt>
      <trkpt lat="47.08716" lon="-0.87207">
        <ele>111</ele>
        <time>2016-10-26T14:10:48.009Z</time>
      </trkpt>
      <trkpt lat="47.08712" lon="-0.87209">
        <ele>111</ele>
        <time>2016-10-26T14:10:52.009Z</time>
      </trkpt>
      <trkpt lat="47.08708" lon="-0.87212">
        <ele>111</ele>
        <time>2016-10-26T14:10:55.009Z</time>
      </trkpt>
      <trkpt lat="47.08705" lon="-0.87214">
        <ele>111</ele>
        <time>2016-10-26T14:10:58.009Z</time>
      </trkpt>
      <trkpt lat="47.08701" lon="-0.87216">
        <ele>111</ele>
        <time>2016-10-26T14:11:02.009Z</time>
      </trkpt>
      <trkpt lat="47.08697" lon="-0.87219">
        <ele>112</ele>
        <time>2016-10-26T14:11:05.009Z</time>
      </trkpt>
      <trkpt lat="47.08694" lon="-0.87222">
        <ele>112</ele>
        <time>2016-10-26T14:11:08.009Z</time>
      </trkpt>
      <trkpt lat="47.0869" lon="-0.87225">
        <ele>112</ele>
        <time>2016-10-26T14:11:12.009Z</time>
      </trkpt>
      <trkpt lat="47.08686" lon="-0.87228">
        <ele>112</ele>
        <time>2016-10-26T14:11:15.009Z</time>
      </trkpt>
      <trkpt lat="47.08683" lon="-0.87231">
        <ele>112</ele>
        <time>2016-10-26T14:11:18.009Z</time>
      </trkpt>
      <trkpt lat="47.0868" lon="-0.87234">
        <ele>112</ele>
        <time>2016-10-26T14:11:22.009Z</time>
      </trkpt>
      <trkpt lat="47.08676" lon="-0.87237">
        <ele>113</ele>
        <time>2016-10-26T14:11:26.009Z</time>
      </trkpt>
      <trkpt lat="47.08672" lon="-0.8724">
        <ele>113</ele>
        <time>2016-10-26T14:11:29.009Z</time>
      </trkpt>
      <trkpt lat="47.08668" lon="-0.87244">
        <ele>113</ele>
        <time>2016-10-26T14:11:33.009Z</time>
      </trkpt>
      <trkpt lat="47.08665" lon="-0.87246">
        <ele>113</ele>
        <time>2016-10-26T14:11:36.009Z</time>
      </trkpt>
      <trkpt lat="47.08661" lon="-0.87249">
        <ele>113</ele>
        <time>2016-10-26T14:11:40.009Z</time>
      </trkpt>
      <trkpt lat="47.08657" lon="-0.87251">
        <ele>114</ele>
        <time>2016-10-26T14:11:43.009Z</time>
      </trkpt>
      <trkpt lat="47.08653" lon="-0.87254">
        <ele>114</ele>
        <time>2016-10-26T14:11:46.009Z</time>
      </trkpt>
      <trkpt lat="47.08649" lon="-0.87255">
        <ele>114</ele>
        <time>2016-10-26T14:11:49.009Z</time>
      </trkpt>
      <trkpt lat="47.08645" lon="-0.87257">
        <ele>114</ele>
        <time>2016-10-26T14:11:53.009Z</time>
      </trkpt>
      <trkpt lat="47.08641" lon="-0.87258">
        <ele>114</ele>
        <time>2016-10-26T14:11:56.009Z</time>
      </trkpt>
      <trkpt lat="47.08637" lon="-0.8726">
        <ele>114</ele>
        <time>2016-10-26T14:11:59.009Z</time>
      </trkpt>
      <trkpt lat="47.08632" lon="-0.87261">
        <ele>113</ele>
        <time>2016-10-26T14:12:03.009Z</time>
      </trkpt>
      <trkpt lat="47.08628" lon="-0.87262">
        <ele>113</ele>
        <time>2016-10-26T14:12:06.009Z</time>
      </trkpt>
      <trkpt lat="47.08625" lon="-0.87262">
        <ele>113</ele>
        <time>2016-10-26T14:12:09.009Z</time>
      </trkpt>
      <trkpt lat="47.08621" lon="-0.87263">
        <ele>114</ele>
        <time>2016-10-26T14:12:12.009Z</time>
      </trkpt>
      <trkpt lat="47.08617" lon="-0.87263">
        <ele>114</ele>
        <time>2016-10-26T14:12:15.009Z</time>
      </trkpt>
      <trkpt lat="47.08613" lon="-0.87264">
        <ele>114</ele>
        <time>2016-10-26T14:12:18.009Z</time>
      </trkpt>
      <trkpt lat="47.08609" lon="-0.87264">
        <ele>114</ele>
        <time>2016-10-26T14:12:21.009Z</time>
      </trkpt>
      <trkpt lat="47.08606" lon="-0.87265">
        <ele>114</ele>
        <time>2016-10-26T14:12:24.009Z</time>
      </trkpt>
      <trkpt lat="47.08601" lon="-0.87266">
        <ele>114</ele>
        <time>2016-10-26T14:12:28.009Z</time>
      </trkpt>
      <trkpt lat="47.08596" lon="-0.87267">
        <ele>114</ele>
        <time>2016-10-26T14:12:32.009Z</time>
      </trkpt>
      <trkpt lat="47.08593" lon="-0.87269">
        <ele>114</ele>
        <time>2016-10-26T14:12:35.009Z</time>
      </trkpt>
      <trkpt lat="47.08589" lon="-0.87271">
        <ele>114</ele>
        <time>2016-10-26T14:12:38.009Z</time>
      </trkpt>
      <trkpt lat="47.08585" lon="-0.87273">
        <ele>114</ele>
        <time>2016-10-26T14:12:42.009Z</time>
      </trkpt>
      <trkpt lat="47.08581" lon="-0.87275">
        <ele>114</ele>
        <time>2016-10-26T14:12:46.009Z</time>
      </trkpt>
      <trkpt lat="47.08576" lon="-0.87278">
        <ele>114</ele>
        <time>2016-10-26T14:12:50.009Z</time>
      </trkpt>
      <trkpt lat="47.08573" lon="-0.87281">
        <ele>115</ele>
        <time>2016-10-26T14:12:53.009Z</time>
      </trkpt>
      <trkpt lat="47.08569" lon="-0.87283">
        <ele>115</ele>
        <time>2016-10-26T14:12:56.009Z</time>
      </trkpt>
      <trkpt lat="47.08565" lon="-0.87286">
        <ele>115</ele>
        <time>2016-10-26T14:13:00.009Z</time>
      </trkpt>
      <trkpt lat="47.08561" lon="-0.87289">
        <ele>115</ele>
        <time>2016-10-26T14:13:03.009Z</time>
      </trkpt>
      <trkpt lat="47.08558" lon="-0.87292">
        <ele>115</ele>
        <time>2016-10-26T14:13:06.009Z</time>
      </trkpt>
      <trkpt lat="47.08554" lon="-0.87294">
        <ele>115</ele>
        <time>2016-10-26T14:13:09.009Z</time>
      </trkpt>
      <trkpt lat="47.08551" lon="-0.87296">
        <ele>115</ele>
        <time>2016-10-26T14:13:12.009Z</time>
      </trkpt>
      <trkpt lat="47.08547" lon="-0.87298">
        <ele>115</ele>
        <time>2016-10-26T14:13:15.009Z</time>
      </trkpt>
      <trkpt lat="47.08543" lon="-0.873">
        <ele>115</ele>
        <time>2016-10-26T14:13:18.009Z</time>
      </trkpt>
      <trkpt lat="47.08539" lon="-0.87302">
        <ele>116</ele>
        <time>2016-10-26T14:13:22.009Z</time>
      </trkpt>
      <trkpt lat="47.08536" lon="-0.87305">
        <ele>116</ele>
        <time>2016-10-26T14:13:25.009Z</time>
      </trkpt>
      <trkpt lat="47.08532" lon="-0.87308">
        <ele>116</ele>
        <time>2016-10-26T14:13:28.009Z</time>
      </trkpt>
      <trkpt lat="47.08529" lon="-0.87311">
        <ele>116.42017448323</ele>
        <time>2016-10-26T14:13:31.009Z</time>
      </trkpt>
      <trkpt lat="47.08525" lon="-0.87314">
        <ele>117</ele>
        <time>2016-10-26T14:13:34.009Z</time>
      </trkpt>
      <trkpt lat="47.08521" lon="-0.87317">
        <ele>117</ele>
        <time>2016-10-26T14:13:38.009Z</time>
      </trkpt>
      <trkpt lat="47.08518" lon="-0.87319">
        <ele>117</ele>
        <time>2016-10-26T14:13:41.009Z</time>
      </trkpt>
      <trkpt lat="47.08514" lon="-0.87322">
        <ele>117</ele>
        <time>2016-10-26T14:13:44.009Z</time>
      </trkpt>
      <trkpt lat="47.0851" lon="-0.87325">
        <ele>117</ele>
        <time>2016-10-26T14:13:47.009Z</time>
      </trkpt>
      <trkpt lat="47.08507" lon="-0.87327">
        <ele>117</ele>
        <time>2016-10-26T14:13:50.009Z</time>
      </trkpt>
      <trkpt lat="47.08504" lon="-0.8733">
        <ele>118</ele>
        <time>2016-10-26T14:13:53.009Z</time>
      </trkpt>
      <trkpt lat="47.085" lon="-0.87333">
        <ele>118</ele>
        <time>2016-10-26T14:13:56.009Z</time>
      </trkpt>
      <trkpt lat="47.08497" lon="-0.87336">
        <ele>118</ele>
        <time>2016-10-26T14:13:59.009Z</time>
      </trkpt>
      <trkpt lat="47.08493" lon="-0.87338">
        <ele>118</ele>
        <time>2016-10-26T14:14:02.009Z</time>
      </trkpt>
      <trkpt lat="47.08489" lon="-0.87341">
        <ele>118</ele>
        <time>2016-10-26T14:14:05.009Z</time>
      </trkpt>
      <trkpt lat="47.08485" lon="-0.87343">
        <ele>118</ele>
        <time>2016-10-26T14:14:08.009Z</time>
      </trkpt>
      <trkpt lat="47.08482" lon="-0.87345">
        <ele>118</ele>
        <time>2016-10-26T14:14:11.009Z</time>
      </trkpt>
      <trkpt lat="47.08478" lon="-0.87348">
        <ele>118</ele>
        <time>2016-10-26T14:14:14.009Z</time>
      </trkpt>
      <trkpt lat="47.08474" lon="-0.87351">
        <ele>118</ele>
        <time>2016-10-26T14:14:18.009Z</time>
      </trkpt>
      <trkpt lat="47.0847" lon="-0.87353">
        <ele>118.22237930573</ele>
        <time>2016-10-26T14:14:21.009Z</time>
      </trkpt>
      <trkpt lat="47.08466" lon="-0.87356">
        <ele>119</ele>
        <time>2016-10-26T14:14:24.009Z</time>
      </trkpt>
      <trkpt lat="47.08463" lon="-0.87359">
        <ele>119</ele>
        <time>2016-10-26T14:14:27.009Z</time>
      </trkpt>
      <trkpt lat="47.08459" lon="-0.87361">
        <ele>119</ele>
        <time>2016-10-26T14:14:30.009Z</time>
      </trkpt>
      <trkpt lat="47.08456" lon="-0.87363">
        <ele>119</ele>
        <time>2016-10-26T14:14:33.009Z</time>
      </trkpt>
      <trkpt lat="47.08452" lon="-0.87366">
        <ele>119</ele>
        <time>2016-10-26T14:14:37.009Z</time>
      </trkpt>
      <trkpt lat="47.08448" lon="-0.87368">
        <ele>119</ele>
        <time>2016-10-26T14:14:40.009Z</time>
      </trkpt>
      <trkpt lat="47.08444" lon="-0.87371">
        <ele>119</ele>
        <time>2016-10-26T14:14:44.009Z</time>
      </trkpt>
      <trkpt lat="47.08441" lon="-0.87374">
        <ele>119</ele>
        <time>2016-10-26T14:14:47.009Z</time>
      </trkpt>
      <trkpt lat="47.08437" lon="-0.87376">
        <ele>119</ele>
        <time>2016-10-26T14:14:50.009Z</time>
      </trkpt>
      <trkpt lat="47.08433" lon="-0.87378">
        <ele>120</ele>
        <time>2016-10-26T14:14:53.009Z</time>
      </trkpt>
      <trkpt lat="47.08429" lon="-0.87379">
        <ele>120</ele>
        <time>2016-10-26T14:14:56.009Z</time>
      </trkpt>
      <trkpt lat="47.08426" lon="-0.87382">
        <ele>120</ele>
        <time>2016-10-26T14:14:59.009Z</time>
      </trkpt>
      <trkpt lat="47.08422" lon="-0.87383">
        <ele>120</ele>
        <time>2016-10-26T14:15:02.009Z</time>
      </trkpt>
      <trkpt lat="47.08418" lon="-0.87384">
        <ele>120</ele>
        <time>2016-10-26T14:15:05.009Z</time>
      </trkpt>
      <trkpt lat="47.08414" lon="-0.87385">
        <ele>120</ele>
        <time>2016-10-26T14:15:08.009Z</time>
      </trkpt>
      <trkpt lat="47.0841" lon="-0.87387">
        <ele>120</ele>
        <time>2016-10-26T14:15:11.009Z</time>
      </trkpt>
      <trkpt lat="47.08406" lon="-0.87388">
        <ele>121</ele>
        <time>2016-10-26T14:15:14.009Z</time>
      </trkpt>
      <trkpt lat="47.08402" lon="-0.87389">
        <ele>121</ele>
        <time>2016-10-26T14:15:17.009Z</time>
      </trkpt>
      <trkpt lat="47.08398" lon="-0.87388">
        <ele>121</ele>
        <time>2016-10-26T14:15:20.009Z</time>
      </trkpt>
      <trkpt lat="47.08394" lon="-0.87389">
        <ele>121</ele>
        <time>2016-10-26T14:15:23.009Z</time>
      </trkpt>
      <trkpt lat="47.08389" lon="-0.87388">
        <ele>121</ele>
        <time>2016-10-26T14:15:27.009Z</time>
      </trkpt>
      <trkpt lat="47.08385" lon="-0.87385">
        <ele>121</ele>
        <time>2016-10-26T14:15:31.009Z</time>
      </trkpt>
      <trkpt lat="47.08381" lon="-0.87383">
        <ele>121</ele>
        <time>2016-10-26T14:15:34.009Z</time>
      </trkpt>
      <trkpt lat="47.08377" lon="-0.87382">
        <ele>121</ele>
        <time>2016-10-26T14:15:37.009Z</time>
      </trkpt>
      <trkpt lat="47.08373" lon="-0.87379">
        <ele>121</ele>
        <time>2016-10-26T14:15:41.009Z</time>
      </trkpt>
      <trkpt lat="47.08369" lon="-0.87376">
        <ele>121</ele>
        <time>2016-10-26T14:15:45.009Z</time>
      </trkpt>
      <trkpt lat="47.08366" lon="-0.87373">
        <ele>121</ele>
        <time>2016-10-26T14:15:48.009Z</time>
      </trkpt>
      <trkpt lat="47.08363" lon="-0.8737">
        <ele>121</ele>
        <time>2016-10-26T14:15:51.009Z</time>
      </trkpt>
      <trkpt lat="47.08359" lon="-0.87368">
        <ele>121</ele>
        <time>2016-10-26T14:15:55.009Z</time>
      </trkpt>
      <trkpt lat="47.08356" lon="-0.87364">
        <ele>121</ele>
        <time>2016-10-26T14:15:58.009Z</time>
      </trkpt>
      <trkpt lat="47.08352" lon="-0.87362">
        <ele>121</ele>
        <time>2016-10-26T14:16:01.009Z</time>
      </trkpt>
      <trkpt lat="47.08349" lon="-0.87358">
        <ele>121</ele>
        <time>2016-10-26T14:16:04.009Z</time>
      </trkpt>
      <trkpt lat="47.08346" lon="-0.87356">
        <ele>121</ele>
        <time>2016-10-26T14:16:07.009Z</time>
      </trkpt>
      <trkpt lat="47.08343" lon="-0.87352">
        <ele>121</ele>
        <time>2016-10-26T14:16:10.009Z</time>
      </trkpt>
      <trkpt lat="47.08339" lon="-0.87349">
        <ele>121</ele>
        <time>2016-10-26T14:16:13.009Z</time>
      </trkpt>
      <trkpt lat="47.08336" lon="-0.87345">
        <ele>121</ele>
        <time>2016-10-26T14:16:17.009Z</time>
      </trkpt>
      <trkpt lat="47.08333" lon="-0.87342">
        <ele>121</ele>
        <time>2016-10-26T14:16:20.009Z</time>
      </trkpt>
      <trkpt lat="47.0833" lon="-0.87338">
        <ele>121</ele>
        <time>2016-10-26T14:16:23.009Z</time>
      </trkpt>
      <trkpt lat="47.08327" lon="-0.87334">
        <ele>121</ele>
        <time>2016-10-26T14:16:26.009Z</time>
      </trkpt>
      <trkpt lat="47.08324" lon="-0.8733">
        <ele>121</ele>
        <time>2016-10-26T14:16:30.009Z</time>
      </trkpt>
      <trkpt lat="47.0832" lon="-0.87325">
        <ele>121</ele>
        <time>2016-10-26T14:16:34.009Z</time>
      </trkpt>
      <trkpt lat="47.08317" lon="-0.87321">
        <ele>121</ele>
        <time>2016-10-26T14:16:37.009Z</time>
      </trkpt>
      <trkpt lat="47.08314" lon="-0.87318">
        <ele>121</ele>
        <time>2016-10-26T14:16:40.009Z</time>
      </trkpt>
      <trkpt lat="47.0831" lon="-0.87314">
        <ele>120</ele>
        <time>2016-10-26T14:16:44.009Z</time>
      </trkpt>
      <trkpt lat="47.08307" lon="-0.87309">
        <ele>120</ele>
        <time>2016-10-26T14:16:48.009Z</time>
      </trkpt>
      <trkpt lat="47.08304" lon="-0.87306">
        <ele>120</ele>
        <time>2016-10-26T14:16:51.009Z</time>
      </trkpt>
      <trkpt lat="47.08301" lon="-0.87302">
        <ele>120</ele>
        <time>2016-10-26T14:16:54.009Z</time>
      </trkpt>
      <trkpt lat="47.08297" lon="-0.87299">
        <ele>120</ele>
        <time>2016-10-26T14:16:58.009Z</time>
      </trkpt>
      <trkpt lat="47.08294" lon="-0.87296">
        <ele>119.5209984</ele>
        <time>2016-10-26T14:17:01.009Z</time>
      </trkpt>
      <trkpt lat="47.08291" lon="-0.87292">
        <ele>119</ele>
        <time>2016-10-26T14:17:04.009Z</time>
      </trkpt>
      <trkpt lat="47.08288" lon="-0.87288">
        <ele>119</ele>
        <time>2016-10-26T14:17:07.009Z</time>
      </trkpt>
      <trkpt lat="47.08285" lon="-0.87284">
        <ele>119</ele>
        <time>2016-10-26T14:17:11.009Z</time>
      </trkpt>
      <trkpt lat="47.08282" lon="-0.87281">
        <ele>119</ele>
        <time>2016-10-26T14:17:14.009Z</time>
      </trkpt>
      <trkpt lat="47.08278" lon="-0.87277">
        <ele>119</ele>
        <time>2016-10-26T14:17:17.009Z</time>
      </trkpt>
      <trkpt lat="47.08275" lon="-0.87273">
        <ele>119</ele>
        <time>2016-10-26T14:17:20.009Z</time>
      </trkpt>
      <trkpt lat="47.08272" lon="-0.87269">
        <ele>119</ele>
        <time>2016-10-26T14:17:24.009Z</time>
      </trkpt>
      <trkpt lat="47.08268" lon="-0.87264">
        <ele>119</ele>
        <time>2016-10-26T14:17:28.009Z</time>
      </trkpt>
      <trkpt lat="47.08265" lon="-0.87261">
        <ele>119</ele>
        <time>2016-10-26T14:17:31.009Z</time>
      </trkpt>
      <trkpt lat="47.08261" lon="-0.87258">
        <ele>119</ele>
        <time>2016-10-26T14:17:34.009Z</time>
      </trkpt>
      <trkpt lat="47.08257" lon="-0.87254">
        <ele>119</ele>
        <time>2016-10-26T14:17:38.009Z</time>
      </trkpt>
      <trkpt lat="47.08254" lon="-0.8725">
        <ele>119</ele>
        <time>2016-10-26T14:17:42.009Z</time>
      </trkpt>
      <trkpt lat="47.08251" lon="-0.87246">
        <ele>119</ele>
        <time>2016-10-26T14:17:45.009Z</time>
      </trkpt>
      <trkpt lat="47.08248" lon="-0.87243">
        <ele>119</ele>
        <time>2016-10-26T14:17:48.009Z</time>
      </trkpt>
      <trkpt lat="47.08244" lon="-0.87239">
        <ele>119</ele>
        <time>2016-10-26T14:17:52.009Z</time>
      </trkpt>
      <trkpt lat="47.0824" lon="-0.87235">
        <ele>119</ele>
        <time>2016-10-26T14:17:56.009Z</time>
      </trkpt>
      <trkpt lat="47.08237" lon="-0.8723">
        <ele>119</ele>
        <time>2016-10-26T14:18:00.009Z</time>
      </trkpt>
      <trkpt lat="47.08234" lon="-0.87227">
        <ele>119</ele>
        <time>2016-10-26T14:18:03.009Z</time>
      </trkpt>
      <trkpt lat="47.08231" lon="-0.87222">
        <ele>119</ele>
        <time>2016-10-26T14:18:06.009Z</time>
      </trkpt>
      <trkpt lat="47.08228" lon="-0.87218">
        <ele>119</ele>
        <time>2016-10-26T14:18:09.009Z</time>
      </trkpt>
      <trkpt lat="47.08225" lon="-0.87214">
        <ele>119</ele>
        <time>2016-10-26T14:18:13.009Z</time>
      </trkpt>
      <trkpt lat="47.08221" lon="-0.87211">
        <ele>119</ele>
        <time>2016-10-26T14:18:17.009Z</time>
      </trkpt>
      <trkpt lat="47.08217" lon="-0.87207">
        <ele>119</ele>
        <time>2016-10-26T14:18:21.009Z</time>
      </trkpt>
      <trkpt lat="47.08213" lon="-0.87204">
        <ele>119</ele>
        <time>2016-10-26T14:18:25.009Z</time>
      </trkpt>
      <trkpt lat="47.0821" lon="-0.87199">
        <ele>119</ele>
        <time>2016-10-26T14:18:28.009Z</time>
      </trkpt>
      <trkpt lat="47.08206" lon="-0.87196">
        <ele>119</ele>
        <time>2016-10-26T14:18:32.009Z</time>
      </trkpt>
      <trkpt lat="47.08204" lon="-0.87192">
        <ele>119</ele>
        <time>2016-10-26T14:18:35.009Z</time>
      </trkpt>
      <trkpt lat="47.082" lon="-0.87188">
        <ele>119</ele>
        <time>2016-10-26T14:18:39.009Z</time>
      </trkpt>
      <trkpt lat="47.08197" lon="-0.87185">
        <ele>119</ele>
        <time>2016-10-26T14:18:43.009Z</time>
      </trkpt>
      <trkpt lat="47.08193" lon="-0.87181">
        <ele>119</ele>
        <time>2016-10-26T14:18:47.009Z</time>
      </trkpt>
      <trkpt lat="47.0819" lon="-0.87177">
        <ele>119.47426051251</ele>
        <time>2016-10-26T14:18:51.009Z</time>
      </trkpt>
      <trkpt lat="47.08187" lon="-0.87173">
        <ele>120</ele>
        <time>2016-10-26T14:18:54.009Z</time>
      </trkpt>
      <trkpt lat="47.08185" lon="-0.87169">
        <ele>120</ele>
        <time>2016-10-26T14:18:57.009Z</time>
      </trkpt>
      <trkpt lat="47.08181" lon="-0.87164">
        <ele>120</ele>
        <time>2016-10-26T14:19:01.009Z</time>
      </trkpt>
      <trkpt lat="47.08177" lon="-0.8716">
        <ele>120</ele>
        <time>2016-10-26T14:19:04.009Z</time>
      </trkpt>
      <trkpt lat="47.08174" lon="-0.87156">
        <ele>120</ele>
        <time>2016-10-26T14:19:07.009Z</time>
      </trkpt>
      <trkpt lat="47.08171" lon="-0.87153">
        <ele>120</ele>
        <time>2016-10-26T14:19:10.009Z</time>
      </trkpt>
      <trkpt lat="47.08168" lon="-0.87149">
        <ele>120</ele>
        <time>2016-10-26T14:19:13.009Z</time>
      </trkpt>
      <trkpt lat="47.08165" lon="-0.87146">
        <ele>120</ele>
        <time>2016-10-26T14:19:16.009Z</time>
      </trkpt>
      <trkpt lat="47.08162" lon="-0.87142">
        <ele>120</ele>
        <time>2016-10-26T14:19:19.009Z</time>
      </trkpt>
      <trkpt lat="47.08158" lon="-0.87139">
        <ele>120</ele>
        <time>2016-10-26T14:19:23.009Z</time>
      </trkpt>
      <trkpt lat="47.08154" lon="-0.87135">
        <ele>120</ele>
        <time>2016-10-26T14:19:27.009Z</time>
      </trkpt>
      <trkpt lat="47.08151" lon="-0.87132">
        <ele>120</ele>
        <time>2016-10-26T14:19:30.009Z</time>
      </trkpt>
      <trkpt lat="47.08147" lon="-0.87129">
        <ele>120</ele>
        <time>2016-10-26T14:19:35.009Z</time>
      </trkpt>
      <trkpt lat="47.08144" lon="-0.87125">
        <ele>120</ele>
        <time>2016-10-26T14:19:38.009Z</time>
      </trkpt>
      <trkpt lat="47.08141" lon="-0.8712">
        <ele>120</ele>
        <time>2016-10-26T14:19:41.009Z</time>
      </trkpt>
      <trkpt lat="47.08138" lon="-0.87116">
        <ele>119</ele>
        <time>2016-10-26T14:19:44.009Z</time>
      </trkpt>
      <trkpt lat="47.08135" lon="-0.87112">
        <ele>119</ele>
        <time>2016-10-26T14:19:47.009Z</time>
      </trkpt>
      <trkpt lat="47.08132" lon="-0.87108">
        <ele>119</ele>
        <time>2016-10-26T14:19:50.009Z</time>
      </trkpt>
      <trkpt lat="47.08128" lon="-0.87104">
        <ele>120</ele>
        <time>2016-10-26T14:19:54.009Z</time>
      </trkpt>
      <trkpt lat="47.08126" lon="-0.87101">
        <ele>120</ele>
        <time>2016-10-26T14:19:57.009Z</time>
      </trkpt>
      <trkpt lat="47.08123" lon="-0.87097">
        <ele>120</ele>
        <time>2016-10-26T14:20:00.009Z</time>
      </trkpt>
      <trkpt lat="47.08119" lon="-0.87094">
        <ele>119</ele>
        <time>2016-10-26T14:20:04.009Z</time>
      </trkpt>
      <trkpt lat="47.08116" lon="-0.87089">
        <ele>119</ele>
        <time>2016-10-26T14:20:08.009Z</time>
      </trkpt>
      <trkpt lat="47.08113" lon="-0.87084">
        <ele>119</ele>
        <time>2016-10-26T14:20:12.009Z</time>
      </trkpt>
      <trkpt lat="47.08109" lon="-0.87082">
        <ele>119</ele>
        <time>2016-10-26T14:20:15.009Z</time>
      </trkpt>
      <trkpt lat="47.08105" lon="-0.8708">
        <ele>119</ele>
        <time>2016-10-26T14:20:19.009Z</time>
      </trkpt>
      <trkpt lat="47.08101" lon="-0.87077">
        <ele>119</ele>
        <time>2016-10-26T14:20:24.009Z</time>
      </trkpt>
      <trkpt lat="47.08098" lon="-0.87072">
        <ele>119</ele>
        <time>2016-10-26T14:20:28.009Z</time>
      </trkpt>
      <trkpt lat="47.08095" lon="-0.87069">
        <ele>119.43978473904</ele>
        <time>2016-10-26T14:20:31.009Z</time>
      </trkpt>
      <trkpt lat="47.08092" lon="-0.87064">
        <ele>120</ele>
        <time>2016-10-26T14:20:34.009Z</time>
      </trkpt>
      <trkpt lat="47.08089" lon="-0.8706">
        <ele>120</ele>
        <time>2016-10-26T14:20:37.009Z</time>
      </trkpt>
      <trkpt lat="47.08086" lon="-0.87056">
        <ele>120</ele>
        <time>2016-10-26T14:20:41.009Z</time>
      </trkpt>
      <trkpt lat="47.08082" lon="-0.87052">
        <ele>120</ele>
        <time>2016-10-26T14:20:44.009Z</time>
      </trkpt>
      <trkpt lat="47.08079" lon="-0.87048">
        <ele>120</ele>
        <time>2016-10-26T14:20:47.009Z</time>
      </trkpt>
      <trkpt lat="47.08076" lon="-0.87045">
        <ele>120</ele>
        <time>2016-10-26T14:20:50.009Z</time>
      </trkpt>
      <trkpt lat="47.08073" lon="-0.87041">
        <ele>119</ele>
        <time>2016-10-26T14:20:53.009Z</time>
      </trkpt>
      <trkpt lat="47.08069" lon="-0.87037">
        <ele>119</ele>
        <time>2016-10-26T14:20:57.009Z</time>
      </trkpt>
      <trkpt lat="47.08066" lon="-0.87034">
        <ele>119</ele>
        <time>2016-10-26T14:21:00.009Z</time>
      </trkpt>
      <trkpt lat="47.08062" lon="-0.8703">
        <ele>120</ele>
        <time>2016-10-26T14:21:04.009Z</time>
      </trkpt>
      <trkpt lat="47.08059" lon="-0.87026">
        <ele>120</ele>
        <time>2016-10-26T14:21:07.009Z</time>
      </trkpt>
      <trkpt lat="47.08055" lon="-0.87022">
        <ele>120</ele>
        <time>2016-10-26T14:21:10.009Z</time>
      </trkpt>
      <trkpt lat="47.08052" lon="-0.87018">
        <ele>120</ele>
        <time>2016-10-26T14:21:13.009Z</time>
      </trkpt>
      <trkpt lat="47.0805" lon="-0.87014">
        <ele>120</ele>
        <time>2016-10-26T14:21:16.009Z</time>
      </trkpt>
      <trkpt lat="47.08046" lon="-0.87011">
        <ele>120</ele>
        <time>2016-10-26T14:21:20.009Z</time>
      </trkpt>
      <trkpt lat="47.08042" lon="-0.87007">
        <ele>120</ele>
        <time>2016-10-26T14:21:24.009Z</time>
      </trkpt>
      <trkpt lat="47.08038" lon="-0.87004">
        <ele>120</ele>
        <time>2016-10-26T14:21:27.009Z</time>
      </trkpt>
      <trkpt lat="47.08035" lon="-0.86999">
        <ele>120</ele>
        <time>2016-10-26T14:21:30.009Z</time>
      </trkpt>
      <trkpt lat="47.08032" lon="-0.86996">
        <ele>120</ele>
        <time>2016-10-26T14:21:33.009Z</time>
      </trkpt>
      <trkpt lat="47.08029" lon="-0.86992">
        <ele>120</ele>
        <time>2016-10-26T14:21:36.009Z</time>
      </trkpt>
      <trkpt lat="47.08026" lon="-0.86989">
        <ele>120</ele>
        <time>2016-10-26T14:21:39.009Z</time>
      </trkpt>
      <trkpt lat="47.08023" lon="-0.86986">
        <ele>120</ele>
        <time>2016-10-26T14:21:42.009Z</time>
      </trkpt>
      <trkpt lat="47.0802" lon="-0.86982">
        <ele>120</ele>
        <time>2016-10-26T14:21:45.009Z</time>
      </trkpt>
      <trkpt lat="47.08017" lon="-0.86979">
        <ele>120</ele>
        <time>2016-10-26T14:21:48.009Z</time>
      </trkpt>
      <trkpt lat="47.08014" lon="-0.86975">
        <ele>120</ele>
        <time>2016-10-26T14:21:51.009Z</time>
      </trkpt>
      <trkpt lat="47.08011" lon="-0.86972">
        <ele>120</ele>
        <time>2016-10-26T14:21:54.009Z</time>
      </trkpt>
      <trkpt lat="47.08007" lon="-0.86968">
        <ele>120</ele>
        <time>2016-10-26T14:21:57.009Z</time>
      </trkpt>
      <trkpt lat="47.08004" lon="-0.86965">
        <ele>120</ele>
        <time>2016-10-26T14:22:00.009Z</time>
      </trkpt>
      <trkpt lat="47.08001" lon="-0.86961">
        <ele>120</ele>
        <time>2016-10-26T14:22:03.009Z</time>
      </trkpt>
      <trkpt lat="47.07998" lon="-0.86958">
        <ele>120</ele>
        <time>2016-10-26T14:22:06.009Z</time>
      </trkpt>
      <trkpt lat="47.07995" lon="-0.86954">
        <ele>120</ele>
        <time>2016-10-26T14:22:09.009Z</time>
      </trkpt>
      <trkpt lat="47.07992" lon="-0.86951">
        <ele>120</ele>
        <time>2016-10-26T14:22:12.009Z</time>
      </trkpt>
      <trkpt lat="47.07989" lon="-0.86947">
        <ele>120</ele>
        <time>2016-10-26T14:22:15.009Z</time>
      </trkpt>
      <trkpt lat="47.07986" lon="-0.86945">
        <ele>120</ele>
        <time>2016-10-26T14:22:18.009Z</time>
      </trkpt>
      <trkpt lat="47.07982" lon="-0.86941">
        <ele>120</ele>
        <time>2016-10-26T14:22:22.009Z</time>
      </trkpt>
      <trkpt lat="47.07978" lon="-0.86936">
        <ele>120</ele>
        <time>2016-10-26T14:22:26.009Z</time>
      </trkpt>
      <trkpt lat="47.07975" lon="-0.86932">
        <ele>120</ele>
        <time>2016-10-26T14:22:29.009Z</time>
      </trkpt>
      <trkpt lat="47.07971" lon="-0.86928">
        <ele>120</ele>
        <time>2016-10-26T14:22:32.009Z</time>
      </trkpt>
      <trkpt lat="47.07968" lon="-0.86924">
        <ele>120</ele>
        <time>2016-10-26T14:22:35.009Z</time>
      </trkpt>
      <trkpt lat="47.07965" lon="-0.8692">
        <ele>120</ele>
        <time>2016-10-26T14:22:38.009Z</time>
      </trkpt>
      <trkpt lat="47.07962" lon="-0.86917">
        <ele>119.57610837996</ele>
        <time>2016-10-26T14:22:41.009Z</time>
      </trkpt>
      <trkpt lat="47.07959" lon="-0.86913">
        <ele>119</ele>
        <time>2016-10-26T14:22:44.009Z</time>
      </trkpt>
      <trkpt lat="47.07955" lon="-0.86911">
        <ele>119</ele>
        <time>2016-10-26T14:22:47.009Z</time>
      </trkpt>
      <trkpt lat="47.07952" lon="-0.86907">
        <ele>119</ele>
        <time>2016-10-26T14:22:50.009Z</time>
      </trkpt>
      <trkpt lat="47.07949" lon="-0.86904">
        <ele>119</ele>
        <time>2016-10-26T14:22:53.009Z</time>
      </trkpt>
      <trkpt lat="47.07946" lon="-0.869">
        <ele>119</ele>
        <time>2016-10-26T14:22:56.009Z</time>
      </trkpt>
      <trkpt lat="47.07943" lon="-0.86896">
        <ele>119</ele>
        <time>2016-10-26T14:23:00.009Z</time>
      </trkpt>
      <trkpt lat="47.07939" lon="-0.86893">
        <ele>119</ele>
        <time>2016-10-26T14:23:03.009Z</time>
      </trkpt>
      <trkpt lat="47.07936" lon="-0.86888">
        <ele>119</ele>
        <time>2016-10-26T14:23:06.009Z</time>
      </trkpt>
      <trkpt lat="47.07932" lon="-0.86885">
        <ele>119</ele>
        <time>2016-10-26T14:23:10.009Z</time>
      </trkpt>
      <trkpt lat="47.07929" lon="-0.86882">
        <ele>119</ele>
        <time>2016-10-26T14:23:13.009Z</time>
      </trkpt>
      <trkpt lat="47.07926" lon="-0.86878">
        <ele>119</ele>
        <time>2016-10-26T14:23:16.009Z</time>
      </trkpt>
      <trkpt lat="47.07923" lon="-0.86874">
        <ele>119</ele>
        <time>2016-10-26T14:23:19.009Z</time>
      </trkpt>
      <trkpt lat="47.07919" lon="-0.8687">
        <ele>118</ele>
        <time>2016-10-26T14:23:23.009Z</time>
      </trkpt>
      <trkpt lat="47.07916" lon="-0.86866">
        <ele>118</ele>
        <time>2016-10-26T14:23:26.009Z</time>
      </trkpt>
      <trkpt lat="47.07912" lon="-0.86862">
        <ele>118</ele>
        <time>2016-10-26T14:23:30.009Z</time>
      </trkpt>
      <trkpt lat="47.07908" lon="-0.86858">
        <ele>118</ele>
        <time>2016-10-26T14:23:34.009Z</time>
      </trkpt>
      <trkpt lat="47.07905" lon="-0.86854">
        <ele>118</ele>
        <time>2016-10-26T14:23:37.009Z</time>
      </trkpt>
      <trkpt lat="47.07901" lon="-0.8685">
        <ele>118</ele>
        <time>2016-10-26T14:23:40.009Z</time>
      </trkpt>
      <trkpt lat="47.07897" lon="-0.86847">
        <ele>118</ele>
        <time>2016-10-26T14:23:43.009Z</time>
      </trkpt>
      <trkpt lat="47.07894" lon="-0.86844">
        <ele>118</ele>
        <time>2016-10-26T14:23:46.009Z</time>
      </trkpt>
      <trkpt lat="47.07891" lon="-0.86839">
        <ele>118</ele>
        <time>2016-10-26T14:23:49.009Z</time>
      </trkpt>
      <trkpt lat="47.07888" lon="-0.86836">
        <ele>117</ele>
        <time>2016-10-26T14:23:52.009Z</time>
      </trkpt>
      <trkpt lat="47.07884" lon="-0.86833">
        <ele>117</ele>
        <time>2016-10-26T14:23:56.009Z</time>
      </trkpt>
      <trkpt lat="47.07882" lon="-0.86829">
        <ele>117</ele>
        <time>2016-10-26T14:23:59.009Z</time>
      </trkpt>
      <trkpt lat="47.07879" lon="-0.86826">
        <ele>117</ele>
        <time>2016-10-26T14:24:02.009Z</time>
      </trkpt>
      <trkpt lat="47.07875" lon="-0.86821">
        <ele>117</ele>
        <time>2016-10-26T14:24:06.009Z</time>
      </trkpt>
      <trkpt lat="47.07872" lon="-0.86818">
        <ele>117</ele>
        <time>2016-10-26T14:24:09.009Z</time>
      </trkpt>
      <trkpt lat="47.07869" lon="-0.86815">
        <ele>117</ele>
        <time>2016-10-26T14:24:12.009Z</time>
      </trkpt>
      <trkpt lat="47.07865" lon="-0.8681">
        <ele>117</ele>
        <time>2016-10-26T14:24:16.009Z</time>
      </trkpt>
      <trkpt lat="47.07862" lon="-0.86807">
        <ele>117</ele>
        <time>2016-10-26T14:24:19.009Z</time>
      </trkpt>
      <trkpt lat="47.07859" lon="-0.86802">
        <ele>116</ele>
        <time>2016-10-26T14:24:23.009Z</time>
      </trkpt>
      <trkpt lat="47.07856" lon="-0.86798">
        <ele>116</ele>
        <time>2016-10-26T14:24:26.009Z</time>
      </trkpt>
      <trkpt lat="47.07854" lon="-0.86792">
        <ele>116</ele>
        <time>2016-10-26T14:24:30.009Z</time>
      </trkpt>
      <trkpt lat="47.07852" lon="-0.86787">
        <ele>116</ele>
        <time>2016-10-26T14:24:34.009Z</time>
      </trkpt>
      <trkpt lat="47.0785" lon="-0.86781">
        <ele>116</ele>
        <time>2016-10-26T14:24:38.009Z</time>
      </trkpt>
      <trkpt lat="47.07846" lon="-0.86778">
        <ele>115.62023619048</ele>
        <time>2016-10-26T14:24:41.009Z</time>
      </trkpt>
      <trkpt lat="47.07842" lon="-0.86776">
        <ele>115</ele>
        <time>2016-10-26T14:24:44.009Z</time>
      </trkpt>
      <trkpt lat="47.07838" lon="-0.86774">
        <ele>115.34274603299</ele>
        <time>2016-10-26T14:24:47.009Z</time>
      </trkpt>
      <trkpt lat="47.07834" lon="-0.86773">
        <ele>116</ele>
        <time>2016-10-26T14:24:50.009Z</time>
      </trkpt>
      <trkpt lat="47.0783" lon="-0.86771">
        <ele>116</ele>
        <time>2016-10-26T14:24:53.009Z</time>
      </trkpt>
      <trkpt lat="47.07827" lon="-0.86769">
        <ele>116</ele>
        <time>2016-10-26T14:24:56.009Z</time>
      </trkpt>
      <trkpt lat="47.07823" lon="-0.86766">
        <ele>116</ele>
        <time>2016-10-26T14:24:59.009Z</time>
      </trkpt>
      <trkpt lat="47.0782" lon="-0.86764">
        <ele>116</ele>
        <time>2016-10-26T14:25:02.009Z</time>
      </trkpt>
      <trkpt lat="47.07816" lon="-0.8676">
        <ele>116</ele>
        <time>2016-10-26T14:25:05.009Z</time>
      </trkpt>
      <trkpt lat="47.07813" lon="-0.86757">
        <ele>116</ele>
        <time>2016-10-26T14:25:08.009Z</time>
      </trkpt>
      <trkpt lat="47.07809" lon="-0.86754">
        <ele>116</ele>
        <time>2016-10-26T14:25:11.009Z</time>
      </trkpt>
      <trkpt lat="47.07806" lon="-0.86751">
        <ele>116</ele>
        <time>2016-10-26T14:25:14.009Z</time>
      </trkpt>
      <trkpt lat="47.07803" lon="-0.86749">
        <ele>116</ele>
        <time>2016-10-26T14:25:17.009Z</time>
      </trkpt>
      <trkpt lat="47.07799" lon="-0.86746">
        <ele>116</ele>
        <time>2016-10-26T14:25:20.009Z</time>
      </trkpt>
      <trkpt lat="47.07796" lon="-0.86742">
        <ele>116</ele>
        <time>2016-10-26T14:25:23.009Z</time>
      </trkpt>
      <trkpt lat="47.07792" lon="-0.86739">
        <ele>116</ele>
        <time>2016-10-26T14:25:26.009Z</time>
      </trkpt>
      <trkpt lat="47.07788" lon="-0.86737">
        <ele>116</ele>
        <time>2016-10-26T14:25:29.009Z</time>
      </trkpt>
      <trkpt lat="47.07784" lon="-0.86735">
        <ele>116</ele>
        <time>2016-10-26T14:25:32.009Z</time>
      </trkpt>
      <trkpt lat="47.0778" lon="-0.86733">
        <ele>116</ele>
        <time>2016-10-26T14:25:36.009Z</time>
      </trkpt>
      <trkpt lat="47.07776" lon="-0.86732">
        <ele>116</ele>
        <time>2016-10-26T14:25:39.009Z</time>
      </trkpt>
      <trkpt lat="47.07772" lon="-0.8673">
        <ele>116</ele>
        <time>2016-10-26T14:25:42.009Z</time>
      </trkpt>
      <trkpt lat="47.07768" lon="-0.86729">
        <ele>116</ele>
        <time>2016-10-26T14:25:46.009Z</time>
      </trkpt>
      <trkpt lat="47.07764" lon="-0.86728">
        <ele>116</ele>
        <time>2016-10-26T14:25:49.009Z</time>
      </trkpt>
      <trkpt lat="47.0776" lon="-0.86727">
        <ele>116.38705839834</ele>
        <time>2016-10-26T14:25:52.009Z</time>
      </trkpt>
      <trkpt lat="47.07756" lon="-0.86725">
        <ele>117</ele>
        <time>2016-10-26T14:25:56.009Z</time>
      </trkpt>
      <trkpt lat="47.07752" lon="-0.86722">
        <ele>117</ele>
        <time>2016-10-26T14:25:59.009Z</time>
      </trkpt>
      <trkpt lat="47.07748" lon="-0.8672">
        <ele>116</ele>
        <time>2016-10-26T14:26:02.009Z</time>
      </trkpt>
      <trkpt lat="47.07744" lon="-0.86718">
        <ele>116</ele>
        <time>2016-10-26T14:26:05.009Z</time>
      </trkpt>
      <trkpt lat="47.0774" lon="-0.86717">
        <ele>116</ele>
        <time>2016-10-26T14:26:08.009Z</time>
      </trkpt>
      <trkpt lat="47.07736" lon="-0.86715">
        <ele>116.9580032</ele>
        <time>2016-10-26T14:26:11.009Z</time>
      </trkpt>
      <trkpt lat="47.07733" lon="-0.86714">
        <ele>118</ele>
        <time>2016-10-26T14:26:14.009Z</time>
      </trkpt>
      <trkpt lat="47.07729" lon="-0.86713">
        <ele>118</ele>
        <time>2016-10-26T14:26:17.009Z</time>
      </trkpt>
      <trkpt lat="47.07725" lon="-0.86712">
        <ele>118</ele>
        <time>2016-10-26T14:26:20.009Z</time>
      </trkpt>
      <trkpt lat="47.07721" lon="-0.86711">
        <ele>118</ele>
        <time>2016-10-26T14:26:23.009Z</time>
      </trkpt>
      <trkpt lat="47.07717" lon="-0.8671">
        <ele>118</ele>
        <time>2016-10-26T14:26:27.009Z</time>
      </trkpt>
      <trkpt lat="47.07713" lon="-0.8671">
        <ele>118</ele>
        <time>2016-10-26T14:26:30.009Z</time>
      </trkpt>
      <trkpt lat="47.07709" lon="-0.86708">
        <ele>117</ele>
        <time>2016-10-26T14:26:34.009Z</time>
      </trkpt>
      <trkpt lat="47.07704" lon="-0.86707">
        <ele>117</ele>
        <time>2016-10-26T14:26:38.009Z</time>
      </trkpt>
      <trkpt lat="47.07701" lon="-0.86706">
        <ele>117.66528</ele>
        <time>2016-10-26T14:26:41.009Z</time>
      </trkpt>
      <trkpt lat="47.07697" lon="-0.86706">
        <ele>119</ele>
        <time>2016-10-26T14:26:44.009Z</time>
      </trkpt>
      <trkpt lat="47.07693" lon="-0.86706">
        <ele>119</ele>
        <time>2016-10-26T14:26:47.009Z</time>
      </trkpt>
      <trkpt lat="47.07689" lon="-0.86706">
        <ele>119</ele>
        <time>2016-10-26T14:26:50.009Z</time>
      </trkpt>
      <trkpt lat="47.07685" lon="-0.86706">
        <ele>120</ele>
        <time>2016-10-26T14:26:53.009Z</time>
      </trkpt>
      <trkpt lat="47.07681" lon="-0.86707">
        <ele>120</ele>
        <time>2016-10-26T14:26:57.009Z</time>
      </trkpt>
      <trkpt lat="47.07677" lon="-0.86707">
        <ele>120</ele>
        <time>2016-10-26T14:27:00.009Z</time>
      </trkpt>
      <trkpt lat="47.07673" lon="-0.86708">
        <ele>120</ele>
        <time>2016-10-26T14:27:03.009Z</time>
      </trkpt>
      <trkpt lat="47.07669" lon="-0.86707">
        <ele>120</ele>
        <time>2016-10-26T14:27:06.009Z</time>
      </trkpt>
      <trkpt lat="47.07665" lon="-0.86707">
        <ele>120</ele>
        <time>2016-10-26T14:27:09.009Z</time>
      </trkpt>
      <trkpt lat="47.07661" lon="-0.86707">
        <ele>120</ele>
        <time>2016-10-26T14:27:12.009Z</time>
      </trkpt>
      <trkpt lat="47.07658" lon="-0.86708">
        <ele>120</ele>
        <time>2016-10-26T14:27:15.009Z</time>
      </trkpt>
      <trkpt lat="47.07654" lon="-0.86708">
        <ele>120</ele>
        <time>2016-10-26T14:27:18.009Z</time>
      </trkpt>
      <trkpt lat="47.0765" lon="-0.86708">
        <ele>120</ele>
        <time>2016-10-26T14:27:21.009Z</time>
      </trkpt>
      <trkpt lat="47.07645" lon="-0.86709">
        <ele>120</ele>
        <time>2016-10-26T14:27:25.009Z</time>
      </trkpt>
      <trkpt lat="47.07642" lon="-0.8671">
        <ele>120</ele>
        <time>2016-10-26T14:27:28.009Z</time>
      </trkpt>
      <trkpt lat="47.07638" lon="-0.86712">
        <ele>120</ele>
        <time>2016-10-26T14:27:31.009Z</time>
      </trkpt>
      <trkpt lat="47.07635" lon="-0.86712">
        <ele>120</ele>
        <time>2016-10-26T14:27:34.009Z</time>
      </trkpt>
      <trkpt lat="47.07631" lon="-0.86712">
        <ele>120</ele>
        <time>2016-10-26T14:27:37.009Z</time>
      </trkpt>
      <trkpt lat="47.07627" lon="-0.86713">
        <ele>120</ele>
        <time>2016-10-26T14:27:40.009Z</time>
      </trkpt>
      <trkpt lat="47.07623" lon="-0.86714">
        <ele>121</ele>
        <time>2016-10-26T14:27:43.009Z</time>
      </trkpt>
      <trkpt lat="47.07618" lon="-0.86714">
        <ele>121</ele>
        <time>2016-10-26T14:27:46.009Z</time>
      </trkpt>
      <trkpt lat="47.07615" lon="-0.86715">
        <ele>121</ele>
        <time>2016-10-26T14:27:49.009Z</time>
      </trkpt>
      <trkpt lat="47.0761" lon="-0.86716">
        <ele>121</ele>
        <time>2016-10-26T14:27:53.009Z</time>
      </trkpt>
      <trkpt lat="47.07606" lon="-0.86718">
        <ele>121</ele>
        <time>2016-10-26T14:27:56.009Z</time>
      </trkpt>
      <trkpt lat="47.07602" lon="-0.86718">
        <ele>121</ele>
        <time>2016-10-26T14:27:59.009Z</time>
      </trkpt>
      <trkpt lat="47.07598" lon="-0.86719">
        <ele>121</ele>
        <time>2016-10-26T14:28:02.009Z</time>
      </trkpt>
      <trkpt lat="47.07594" lon="-0.8672">
        <ele>121</ele>
        <time>2016-10-26T14:28:06.009Z</time>
      </trkpt>
      <trkpt lat="47.0759" lon="-0.8672">
        <ele>121</ele>
        <time>2016-10-26T14:28:09.009Z</time>
      </trkpt>
      <trkpt lat="47.07586" lon="-0.86721">
        <ele>121.42768</ele>
        <time>2016-10-26T14:28:12.009Z</time>
      </trkpt>
      <trkpt lat="47.07582" lon="-0.86724">
        <ele>122</ele>
        <time>2016-10-26T14:28:16.009Z</time>
      </trkpt>
      <trkpt lat="47.07579" lon="-0.86727">
        <ele>122</ele>
        <time>2016-10-26T14:28:19.009Z</time>
      </trkpt>
      <trkpt lat="47.07576" lon="-0.86731">
        <ele>122</ele>
        <time>2016-10-26T14:28:22.009Z</time>
      </trkpt>
      <trkpt lat="47.07573" lon="-0.86734">
        <ele>122</ele>
        <time>2016-10-26T14:28:27.009Z</time>
      </trkpt>
      <trkpt lat="47.07569" lon="-0.8673">
        <ele>122</ele>
        <time>2016-10-26T14:28:31.009Z</time>
      </trkpt>
      <trkpt lat="47.07565" lon="-0.86729">
        <ele>122</ele>
        <time>2016-10-26T14:28:35.009Z</time>
      </trkpt>
      <trkpt lat="47.07561" lon="-0.8673">
        <ele>122</ele>
        <time>2016-10-26T14:28:38.009Z</time>
      </trkpt>
      <trkpt lat="47.07557" lon="-0.86731">
        <ele>123.38865942651</ele>
        <time>2016-10-26T14:28:41.009Z</time>
      </trkpt>
      <trkpt lat="47.07553" lon="-0.86731">
        <ele>125</ele>
        <time>2016-10-26T14:28:45.009Z</time>
      </trkpt>
      <trkpt lat="47.07548" lon="-0.86733">
        <ele>125</ele>
        <time>2016-10-26T14:28:49.009Z</time>
      </trkpt>
      <trkpt lat="47.07545" lon="-0.86733">
        <ele>125</ele>
        <time>2016-10-26T14:28:52.009Z</time>
      </trkpt>
      <trkpt lat="47.07541" lon="-0.86732">
        <ele>125</ele>
        <time>2016-10-26T14:28:55.009Z</time>
      </trkpt>
      <trkpt lat="47.07537" lon="-0.86733">
        <ele>125</ele>
        <time>2016-10-26T14:28:59.009Z</time>
      </trkpt>
      <trkpt lat="47.07532" lon="-0.86735">
        <ele>125</ele>
        <time>2016-10-26T14:29:03.009Z</time>
      </trkpt>
      <trkpt lat="47.07527" lon="-0.86735">
        <ele>125</ele>
        <time>2016-10-26T14:29:07.009Z</time>
      </trkpt>
      <trkpt lat="47.07523" lon="-0.86734">
        <ele>125</ele>
        <time>2016-10-26T14:29:10.009Z</time>
      </trkpt>
      <trkpt lat="47.0752" lon="-0.86733">
        <ele>125</ele>
        <time>2016-10-26T14:29:13.009Z</time>
      </trkpt>
      <trkpt lat="47.07516" lon="-0.86733">
        <ele>125</ele>
        <time>2016-10-26T14:29:16.009Z</time>
      </trkpt>
      <trkpt lat="47.07511" lon="-0.86733">
        <ele>125</ele>
        <time>2016-10-26T14:29:20.009Z</time>
      </trkpt>
      <trkpt lat="47.07507" lon="-0.86733">
        <ele>125</ele>
        <time>2016-10-26T14:29:24.009Z</time>
      </trkpt>
      <trkpt lat="47.07503" lon="-0.86733">
        <ele>125</ele>
        <time>2016-10-26T14:29:27.009Z</time>
      </trkpt>
      <trkpt lat="47.07499" lon="-0.86734">
        <ele>125</ele>
        <time>2016-10-26T14:29:31.009Z</time>
      </trkpt>
      <trkpt lat="47.07495" lon="-0.86732">
        <ele>125</ele>
        <time>2016-10-26T14:29:36.009Z</time>
      </trkpt>
      <trkpt lat="47.07492" lon="-0.86728">
        <ele>125</ele>
        <time>2016-10-26T14:29:40.009Z</time>
      </trkpt>
      <trkpt lat="47.0749" lon="-0.86723">
        <ele>126</ele>
        <time>2016-10-26T14:29:43.009Z</time>
      </trkpt>
      <trkpt lat="47.07486" lon="-0.8672">
        <ele>126</ele>
        <time>2016-10-26T14:29:47.009Z</time>
      </trkpt>
      <trkpt lat="47.07483" lon="-0.86716">
        <ele>126</ele>
        <time>2016-10-26T14:29:51.009Z</time>
      </trkpt>
      <trkpt lat="47.0748" lon="-0.86712">
        <ele>126</ele>
        <time>2016-10-26T14:29:55.009Z</time>
      </trkpt>
      <trkpt lat="47.07476" lon="-0.86709">
        <ele>126</ele>
        <time>2016-10-26T14:29:59.009Z</time>
      </trkpt>
      <trkpt lat="47.07474" lon="-0.86704">
        <ele>125</ele>
        <time>2016-10-26T14:30:04.009Z</time>
      </trkpt>
      <trkpt lat="47.07473" lon="-0.86699">
        <ele>125</ele>
        <time>2016-10-26T14:30:07.009Z</time>
      </trkpt>
      <trkpt lat="47.07473" lon="-0.86692">
        <ele>125</ele>
        <time>2016-10-26T14:30:11.009Z</time>
      </trkpt>
      <trkpt lat="47.07472" lon="-0.86686">
        <ele>125</ele>
        <time>2016-10-26T14:30:14.009Z</time>
      </trkpt>
      <trkpt lat="47.07472" lon="-0.86679">
        <ele>125</ele>
        <time>2016-10-26T14:30:18.009Z</time>
      </trkpt>
      <trkpt lat="47.07471" lon="-0.86673">
        <ele>125</ele>
        <time>2016-10-26T14:30:21.009Z</time>
      </trkpt>
      <trkpt lat="47.07472" lon="-0.86666">
        <ele>126</ele>
        <time>2016-10-26T14:30:25.009Z</time>
      </trkpt>
      <trkpt lat="47.07473" lon="-0.86661">
        <ele>126</ele>
        <time>2016-10-26T14:30:28.009Z</time>
      </trkpt>
      <trkpt lat="47.07472" lon="-0.86655">
        <ele>126</ele>
        <time>2016-10-26T14:30:32.009Z</time>
      </trkpt>
      <trkpt lat="47.07471" lon="-0.86649">
        <ele>126</ele>
        <time>2016-10-26T14:30:36.009Z</time>
      </trkpt>
      <trkpt lat="47.0747" lon="-0.86643">
        <ele>126</ele>
        <time>2016-10-26T14:30:40.009Z</time>
      </trkpt>
      <trkpt lat="47.07469" lon="-0.86638">
        <ele>125</ele>
        <time>2016-10-26T14:30:43.009Z</time>
      </trkpt>
      <trkpt lat="47.07468" lon="-0.86633">
        <ele>125</ele>
        <time>2016-10-26T14:30:46.009Z</time>
      </trkpt>
      <trkpt lat="47.07466" lon="-0.86627">
        <ele>125</ele>
        <time>2016-10-26T14:30:49.009Z</time>
      </trkpt>
      <trkpt lat="47.07466" lon="-0.86621">
        <ele>125</ele>
        <time>2016-10-26T14:30:52.009Z</time>
      </trkpt>
      <trkpt lat="47.07465" lon="-0.86616">
        <ele>125</ele>
        <time>2016-10-26T14:30:55.009Z</time>
      </trkpt>
      <trkpt lat="47.07464" lon="-0.8661">
        <ele>125</ele>
        <time>2016-10-26T14:30:58.009Z</time>
      </trkpt>
      <trkpt lat="47.07464" lon="-0.86605">
        <ele>123.62812</ele>
        <time>2016-10-26T14:31:01.009Z</time>
      </trkpt>
      <trkpt lat="47.07463" lon="-0.866">
        <ele>122</ele>
        <time>2016-10-26T14:31:04.009Z</time>
      </trkpt>
      <trkpt lat="47.07462" lon="-0.86594">
        <ele>122</ele>
        <time>2016-10-26T14:31:07.009Z</time>
      </trkpt>
      <trkpt lat="47.07463" lon="-0.86587">
        <ele>122</ele>
        <time>2016-10-26T14:31:11.009Z</time>
      </trkpt>
      <trkpt lat="47.07462" lon="-0.86581">
        <ele>122</ele>
        <time>2016-10-26T14:31:14.009Z</time>
      </trkpt>
      <trkpt lat="47.07461" lon="-0.86576">
        <ele>122</ele>
        <time>2016-10-26T14:31:17.009Z</time>
      </trkpt>
      <trkpt lat="47.07461" lon="-0.8657">
        <ele>122</ele>
        <time>2016-10-26T14:31:20.009Z</time>
      </trkpt>
      <trkpt lat="47.0746" lon="-0.86564">
        <ele>126</ele>
        <time>2016-10-26T14:31:23.009Z</time>
      </trkpt>
      <trkpt lat="47.07459" lon="-0.86558">
        <ele>126</ele>
        <time>2016-10-26T14:31:26.009Z</time>
      </trkpt>
      <trkpt lat="47.07458" lon="-0.86552">
        <ele>126</ele>
        <time>2016-10-26T14:31:29.009Z</time>
      </trkpt>
      <trkpt lat="47.07458" lon="-0.86547">
        <ele>122</ele>
        <time>2016-10-26T14:31:32.009Z</time>
      </trkpt>
      <trkpt lat="47.07458" lon="-0.8654">
        <ele>122</ele>
        <time>2016-10-26T14:31:36.009Z</time>
      </trkpt>
      <trkpt lat="47.07457" lon="-0.86534">
        <ele>122</ele>
        <time>2016-10-26T14:31:39.009Z</time>
      </trkpt>
      <trkpt lat="47.07457" lon="-0.86529">
        <ele>126</ele>
        <time>2016-10-26T14:31:42.009Z</time>
      </trkpt>
      <trkpt lat="47.07457" lon="-0.86521">
        <ele>126</ele>
        <time>2016-10-26T14:31:46.009Z</time>
      </trkpt>
      <trkpt lat="47.07457" lon="-0.86514">
        <ele>126</ele>
        <time>2016-10-26T14:31:50.009Z</time>
      </trkpt>
      <trkpt lat="47.07458" lon="-0.86509">
        <ele>122</ele>
        <time>2016-10-26T14:31:53.009Z</time>
      </trkpt>
      <trkpt lat="47.07459" lon="-0.86503">
        <ele>126</ele>
        <time>2016-10-26T14:31:57.009Z</time>
      </trkpt>
      <trkpt lat="47.07459" lon="-0.86497">
        <ele>126</ele>
        <time>2016-10-26T14:32:00.009Z</time>
      </trkpt>
      <trkpt lat="47.0746" lon="-0.8649">
        <ele>122</ele>
        <time>2016-10-26T14:32:04.009Z</time>
      </trkpt>
      <trkpt lat="47.07462" lon="-0.86484">
        <ele>122</ele>
        <time>2016-10-26T14:32:08.009Z</time>
      </trkpt>
      <trkpt lat="47.07463" lon="-0.86478">
        <ele>123.68069793292</ele>
        <time>2016-10-26T14:32:11.009Z</time>
      </trkpt>
      <trkpt lat="47.07465" lon="-0.86472">
        <ele>126</ele>
        <time>2016-10-26T14:32:14.009Z</time>
      </trkpt>
      <trkpt lat="47.07467" lon="-0.86465">
        <ele>126</ele>
        <time>2016-10-26T14:32:18.009Z</time>
      </trkpt>
      <trkpt lat="47.07467" lon="-0.8646">
        <ele>122</ele>
        <time>2016-10-26T14:32:22.009Z</time>
      </trkpt>
      <trkpt lat="47.07469" lon="-0.86454">
        <ele>122</ele>
        <time>2016-10-26T14:32:26.009Z</time>
      </trkpt>
      <trkpt lat="47.07471" lon="-0.86449">
        <ele>122</ele>
        <time>2016-10-26T14:32:28.009Z</time>
      </trkpt>
      <trkpt lat="47.07473" lon="-0.86444">
        <ele>122</ele>
        <time>2016-10-26T14:32:31.009Z</time>
      </trkpt>
      <trkpt lat="47.07475" lon="-0.86439">
        <ele>122</ele>
        <time>2016-10-26T14:32:35.009Z</time>
      </trkpt>
      <trkpt lat="47.07477" lon="-0.86434">
        <ele>122</ele>
        <time>2016-10-26T14:32:38.009Z</time>
      </trkpt>
      <trkpt lat="47.07479" lon="-0.8643">
        <ele>122</ele>
        <time>2016-10-26T14:32:41.009Z</time>
      </trkpt>
      <trkpt lat="47.07482" lon="-0.86425">
        <ele>122</ele>
        <time>2016-10-26T14:32:44.009Z</time>
      </trkpt>
      <trkpt lat="47.07484" lon="-0.86418">
        <ele>122</ele>
        <time>2016-10-26T14:32:47.009Z</time>
      </trkpt>
      <trkpt lat="47.07485" lon="-0.86411">
        <ele>122</ele>
        <time>2016-10-26T14:32:51.009Z</time>
      </trkpt>
      <trkpt lat="47.07487" lon="-0.86406">
        <ele>122</ele>
        <time>2016-10-26T14:32:54.009Z</time>
      </trkpt>
      <trkpt lat="47.07489" lon="-0.86401">
        <ele>122</ele>
        <time>2016-10-26T14:32:58.009Z</time>
      </trkpt>
      <trkpt lat="47.07491" lon="-0.86395">
        <ele>122</ele>
        <time>2016-10-26T14:33:02.009Z</time>
      </trkpt>
      <trkpt lat="47.07492" lon="-0.8639">
        <ele>122</ele>
        <time>2016-10-26T14:33:05.009Z</time>
      </trkpt>
      <trkpt lat="47.07494" lon="-0.86386">
        <ele>122</ele>
        <time>2016-10-26T14:33:08.009Z</time>
      </trkpt>
      <trkpt lat="47.07496" lon="-0.8638">
        <ele>122</ele>
        <time>2016-10-26T14:33:12.009Z</time>
      </trkpt>
      <trkpt lat="47.07498" lon="-0.86374">
        <ele>122</ele>
        <time>2016-10-26T14:33:16.009Z</time>
      </trkpt>
      <trkpt lat="47.07499" lon="-0.86369">
        <ele>122</ele>
        <time>2016-10-26T14:33:19.009Z</time>
      </trkpt>
      <trkpt lat="47.075" lon="-0.86363">
        <ele>122</ele>
        <time>2016-10-26T14:33:22.009Z</time>
      </trkpt>
      <trkpt lat="47.07502" lon="-0.86358">
        <ele>121</ele>
        <time>2016-10-26T14:33:25.009Z</time>
      </trkpt>
      <trkpt lat="47.07505" lon="-0.86352">
        <ele>121</ele>
        <time>2016-10-26T14:33:29.009Z</time>
      </trkpt>
      <trkpt lat="47.07506" lon="-0.86346">
        <ele>121</ele>
        <time>2016-10-26T14:33:33.009Z</time>
      </trkpt>
      <trkpt lat="47.07507" lon="-0.86339">
        <ele>121</ele>
        <time>2016-10-26T14:33:37.009Z</time>
      </trkpt>
      <trkpt lat="47.07508" lon="-0.86333">
        <ele>121</ele>
        <time>2016-10-26T14:33:40.009Z</time>
      </trkpt>
      <trkpt lat="47.07509" lon="-0.86328">
        <ele>121</ele>
        <time>2016-10-26T14:33:43.009Z</time>
      </trkpt>
      <trkpt lat="47.07509" lon="-0.86322">
        <ele>121</ele>
        <time>2016-10-26T14:33:46.009Z</time>
      </trkpt>
      <trkpt lat="47.07509" lon="-0.86316">
        <ele>121</ele>
        <time>2016-10-26T14:33:49.009Z</time>
      </trkpt>
      <trkpt lat="47.0751" lon="-0.8631">
        <ele>121</ele>
        <time>2016-10-26T14:33:53.009Z</time>
      </trkpt>
      <trkpt lat="47.0751" lon="-0.86304">
        <ele>121</ele>
        <time>2016-10-26T14:33:56.009Z</time>
      </trkpt>
      <trkpt lat="47.0751" lon="-0.86297">
        <ele>121</ele>
        <time>2016-10-26T14:34:00.009Z</time>
      </trkpt>
      <trkpt lat="47.0751" lon="-0.86292">
        <ele>121</ele>
        <time>2016-10-26T14:34:03.009Z</time>
      </trkpt>
      <trkpt lat="47.07509" lon="-0.86285">
        <ele>121</ele>
        <time>2016-10-26T14:34:07.009Z</time>
      </trkpt>
      <trkpt lat="47.07509" lon="-0.86279">
        <ele>121</ele>
        <time>2016-10-26T14:34:10.009Z</time>
      </trkpt>
      <trkpt lat="47.07509" lon="-0.86273">
        <ele>121</ele>
        <time>2016-10-26T14:34:13.009Z</time>
      </trkpt>
      <trkpt lat="47.0751" lon="-0.86267">
        <ele>121</ele>
        <time>2016-10-26T14:34:17.009Z</time>
      </trkpt>
      <trkpt lat="47.0751" lon="-0.8626">
        <ele>121.4790016</ele>
        <time>2016-10-26T14:34:21.009Z</time>
      </trkpt>
      <trkpt lat="47.0751" lon="-0.86255">
        <ele>122</ele>
        <time>2016-10-26T14:34:24.009Z</time>
      </trkpt>
      <trkpt lat="47.07508" lon="-0.8625">
        <ele>122</ele>
        <time>2016-10-26T14:34:27.009Z</time>
      </trkpt>
      <trkpt lat="47.07508" lon="-0.86244">
        <ele>122</ele>
        <time>2016-10-26T14:34:30.009Z</time>
      </trkpt>
      <trkpt lat="47.07508" lon="-0.86238">
        <ele>122</ele>
        <time>2016-10-26T14:34:33.009Z</time>
      </trkpt>
      <trkpt lat="47.07507" lon="-0.86232">
        <ele>122</ele>
        <time>2016-10-26T14:34:36.009Z</time>
      </trkpt>
      <trkpt lat="47.07507" lon="-0.86225">
        <ele>122</ele>
        <time>2016-10-26T14:34:40.009Z</time>
      </trkpt>
      <trkpt lat="47.07507" lon="-0.8622">
        <ele>121</ele>
        <time>2016-10-26T14:34:43.009Z</time>
      </trkpt>
      <trkpt lat="47.07507" lon="-0.86214">
        <ele>121</ele>
        <time>2016-10-26T14:34:46.009Z</time>
      </trkpt>
      <trkpt lat="47.07507" lon="-0.86209">
        <ele>121</ele>
        <time>2016-10-26T14:34:49.009Z</time>
      </trkpt>
      <trkpt lat="47.07506" lon="-0.86203">
        <ele>121</ele>
        <time>2016-10-26T14:34:52.009Z</time>
      </trkpt>
      <trkpt lat="47.07505" lon="-0.86197">
        <ele>121</ele>
        <time>2016-10-26T14:34:56.009Z</time>
      </trkpt>
      <trkpt lat="47.07505" lon="-0.86191">
        <ele>121</ele>
        <time>2016-10-26T14:35:00.009Z</time>
      </trkpt>
      <trkpt lat="47.07502" lon="-0.86185">
        <ele>120</ele>
        <time>2016-10-26T14:35:04.009Z</time>
      </trkpt>
      <trkpt lat="47.07501" lon="-0.8618">
        <ele>120.40115346702</ele>
        <time>2016-10-26T14:35:07.009Z</time>
      </trkpt>
      <trkpt lat="47.075" lon="-0.86174">
        <ele>121</ele>
        <time>2016-10-26T14:35:10.009Z</time>
      </trkpt>
      <trkpt lat="47.075" lon="-0.86168">
        <ele>121</ele>
        <time>2016-10-26T14:35:14.009Z</time>
      </trkpt>
      <trkpt lat="47.07499" lon="-0.86162">
        <ele>121</ele>
        <time>2016-10-26T14:35:17.009Z</time>
      </trkpt>
      <trkpt lat="47.07499" lon="-0.86157">
        <ele>121</ele>
        <time>2016-10-26T14:35:20.009Z</time>
      </trkpt>
      <trkpt lat="47.07498" lon="-0.86151">
        <ele>121</ele>
        <time>2016-10-26T14:35:23.009Z</time>
      </trkpt>
      <trkpt lat="47.07497" lon="-0.86145">
        <ele>121</ele>
        <time>2016-10-26T14:35:27.009Z</time>
      </trkpt>
      <trkpt lat="47.07497" lon="-0.86139">
        <ele>121</ele>
        <time>2016-10-26T14:35:30.009Z</time>
      </trkpt>
      <trkpt lat="47.07497" lon="-0.86133">
        <ele>121</ele>
        <time>2016-10-26T14:35:33.009Z</time>
      </trkpt>
      <trkpt lat="47.07498" lon="-0.86128">
        <ele>121</ele>
        <time>2016-10-26T14:35:36.009Z</time>
      </trkpt>
      <trkpt lat="47.075" lon="-0.86123">
        <ele>121</ele>
        <time>2016-10-26T14:35:39.009Z</time>
      </trkpt>
      <trkpt lat="47.07502" lon="-0.86119">
        <ele>120</ele>
        <time>2016-10-26T14:35:42.009Z</time>
      </trkpt>
      <trkpt lat="47.07506" lon="-0.86116">
        <ele>120</ele>
        <time>2016-10-26T14:35:45.009Z</time>
      </trkpt>
      <trkpt lat="47.07508" lon="-0.86112">
        <ele>120</ele>
        <time>2016-10-26T14:35:48.009Z</time>
      </trkpt>
      <trkpt lat="47.07512" lon="-0.86109">
        <ele>121</ele>
        <time>2016-10-26T14:35:52.009Z</time>
      </trkpt>
      <trkpt lat="47.07516" lon="-0.86106">
        <ele>121</ele>
        <time>2016-10-26T14:35:55.009Z</time>
      </trkpt>
      <trkpt lat="47.07519" lon="-0.86103">
        <ele>121</ele>
        <time>2016-10-26T14:35:58.009Z</time>
      </trkpt>
      <trkpt lat="47.07522" lon="-0.86099">
        <ele>121</ele>
        <time>2016-10-26T14:36:02.009Z</time>
      </trkpt>
      <trkpt lat="47.07525" lon="-0.86096">
        <ele>121</ele>
        <time>2016-10-26T14:36:05.009Z</time>
      </trkpt>
      <trkpt lat="47.07528" lon="-0.86093">
        <ele>121</ele>
        <time>2016-10-26T14:36:08.009Z</time>
      </trkpt>
      <trkpt lat="47.07531" lon="-0.8609">
        <ele>121</ele>
        <time>2016-10-26T14:36:11.009Z</time>
      </trkpt>
      <trkpt lat="47.07535" lon="-0.86086">
        <ele>121</ele>
        <time>2016-10-26T14:36:15.009Z</time>
      </trkpt>
      <trkpt lat="47.07538" lon="-0.86083">
        <ele>121</ele>
        <time>2016-10-26T14:36:18.009Z</time>
      </trkpt>
      <trkpt lat="47.07542" lon="-0.8608">
        <ele>121</ele>
        <time>2016-10-26T14:36:21.009Z</time>
      </trkpt>
      <trkpt lat="47.07545" lon="-0.86077">
        <ele>121</ele>
        <time>2016-10-26T14:36:24.009Z</time>
      </trkpt>
      <trkpt lat="47.07548" lon="-0.86074">
        <ele>121</ele>
        <time>2016-10-26T14:36:27.009Z</time>
      </trkpt>
      <trkpt lat="47.07551" lon="-0.8607">
        <ele>121</ele>
        <time>2016-10-26T14:36:30.009Z</time>
      </trkpt>
      <trkpt lat="47.07555" lon="-0.86067">
        <ele>122</ele>
        <time>2016-10-26T14:36:33.009Z</time>
      </trkpt>
      <trkpt lat="47.07559" lon="-0.86064">
        <ele>122</ele>
        <time>2016-10-26T14:36:36.009Z</time>
      </trkpt>
      <trkpt lat="47.07562" lon="-0.8606">
        <ele>122</ele>
        <time>2016-10-26T14:36:40.009Z</time>
      </trkpt>
      <trkpt lat="47.07565" lon="-0.86056">
        <ele>122</ele>
        <time>2016-10-26T14:36:44.009Z</time>
      </trkpt>
      <trkpt lat="47.07569" lon="-0.86052">
        <ele>122</ele>
        <time>2016-10-26T14:36:48.009Z</time>
      </trkpt>
      <trkpt lat="47.07573" lon="-0.86048">
        <ele>121.60581660143</ele>
        <time>2016-10-26T14:36:52.009Z</time>
      </trkpt>
      <trkpt lat="47.07578" lon="-0.86044">
        <ele>121</ele>
        <time>2016-10-26T14:36:56.009Z</time>
      </trkpt>
      <trkpt lat="47.07581" lon="-0.86041">
        <ele>121</ele>
        <time>2016-10-26T14:36:59.009Z</time>
      </trkpt>
      <trkpt lat="47.07584" lon="-0.86038">
        <ele>121</ele>
        <time>2016-10-26T14:37:02.009Z</time>
      </trkpt>
      <trkpt lat="47.07587" lon="-0.86034">
        <ele>121</ele>
        <time>2016-10-26T14:37:05.009Z</time>
      </trkpt>
      <trkpt lat="47.07591" lon="-0.8603">
        <ele>121</ele>
        <time>2016-10-26T14:37:09.009Z</time>
      </trkpt>
      <trkpt lat="47.07594" lon="-0.86025">
        <ele>121</ele>
        <time>2016-10-26T14:37:13.009Z</time>
      </trkpt>
      <trkpt lat="47.07598" lon="-0.86021">
        <ele>121</ele>
        <time>2016-10-26T14:37:17.009Z</time>
      </trkpt>
      <trkpt lat="47.07601" lon="-0.86017">
        <ele>121</ele>
        <time>2016-10-26T14:37:20.009Z</time>
      </trkpt>
      <trkpt lat="47.07604" lon="-0.86014">
        <ele>122</ele>
        <time>2016-10-26T14:37:23.009Z</time>
      </trkpt>
      <trkpt lat="47.07607" lon="-0.86012">
        <ele>122</ele>
        <time>2016-10-26T14:37:26.009Z</time>
      </trkpt>
      <trkpt lat="47.07611" lon="-0.86009">
        <ele>122</ele>
        <time>2016-10-26T14:37:30.009Z</time>
      </trkpt>
      <trkpt lat="47.07615" lon="-0.86005">
        <ele>122</ele>
        <time>2016-10-26T14:37:34.009Z</time>
      </trkpt>
      <trkpt lat="47.07619" lon="-0.86001">
        <ele>122</ele>
        <time>2016-10-26T14:37:38.009Z</time>
      </trkpt>
      <trkpt lat="47.07622" lon="-0.85998">
        <ele>122</ele>
        <time>2016-10-26T14:37:41.009Z</time>
      </trkpt>
      <trkpt lat="47.07625" lon="-0.85994">
        <ele>122</ele>
        <time>2016-10-26T14:37:44.009Z</time>
      </trkpt>
      <trkpt lat="47.07628" lon="-0.8599">
        <ele>122</ele>
        <time>2016-10-26T14:37:48.009Z</time>
      </trkpt>
      <trkpt lat="47.07631" lon="-0.85985">
        <ele>122</ele>
        <time>2016-10-26T14:37:52.009Z</time>
      </trkpt>
      <trkpt lat="47.07635" lon="-0.8598">
        <ele>122</ele>
        <time>2016-10-26T14:37:56.009Z</time>
      </trkpt>
      <trkpt lat="47.07638" lon="-0.85975">
        <ele>122</ele>
        <time>2016-10-26T14:38:00.009Z</time>
      </trkpt>
      <trkpt lat="47.07641" lon="-0.85971">
        <ele>122</ele>
        <time>2016-10-26T14:38:03.009Z</time>
      </trkpt>
      <trkpt lat="47.07644" lon="-0.85967">
        <ele>122</ele>
        <time>2016-10-26T14:38:06.009Z</time>
      </trkpt>
      <trkpt lat="47.07647" lon="-0.85963">
        <ele>122</ele>
        <time>2016-10-26T14:38:09.009Z</time>
      </trkpt>
      <trkpt lat="47.0765" lon="-0.85959">
        <ele>122</ele>
        <time>2016-10-26T14:38:12.009Z</time>
      </trkpt>
      <trkpt lat="47.07653" lon="-0.85955">
        <ele>122</ele>
        <time>2016-10-26T14:38:15.009Z</time>
      </trkpt>
      <trkpt lat="47.07656" lon="-0.85952">
        <ele>122</ele>
        <time>2016-10-26T14:38:18.009Z</time>
      </trkpt>
      <trkpt lat="47.07659" lon="-0.85948">
        <ele>122</ele>
        <time>2016-10-26T14:38:21.009Z</time>
      </trkpt>
      <trkpt lat="47.07663" lon="-0.85945">
        <ele>122</ele>
        <time>2016-10-26T14:38:25.009Z</time>
      </trkpt>
      <trkpt lat="47.07666" lon="-0.8594">
        <ele>122</ele>
        <time>2016-10-26T14:38:28.009Z</time>
      </trkpt>
      <trkpt lat="47.07668" lon="-0.85936">
        <ele>122.4628864755</ele>
        <time>2016-10-26T14:38:31.009Z</time>
      </trkpt>
      <trkpt lat="47.07671" lon="-0.85932">
        <ele>123</ele>
        <time>2016-10-26T14:38:34.009Z</time>
      </trkpt>
      <trkpt lat="47.07667" lon="-0.85931">
        <ele>123</ele>
        <time>2016-10-26T14:38:50.009Z</time>
      </trkpt>
      <trkpt lat="47.07664" lon="-0.85935">
        <ele>123</ele>
        <time>2016-10-26T14:39:04.009Z</time>
      </trkpt>
      <trkpt lat="47.07661" lon="-0.85939">
        <ele>123</ele>
        <time>2016-10-26T14:39:07.009Z</time>
      </trkpt>
      <trkpt lat="47.07658" lon="-0.85943">
        <ele>123</ele>
        <time>2016-10-26T14:39:10.009Z</time>
      </trkpt>
      <trkpt lat="47.07655" lon="-0.85946">
        <ele>123</ele>
        <time>2016-10-26T14:39:13.009Z</time>
      </trkpt>
      <trkpt lat="47.07652" lon="-0.8595">
        <ele>123</ele>
        <time>2016-10-26T14:39:16.009Z</time>
      </trkpt>
      <trkpt lat="47.0765" lon="-0.85953">
        <ele>123</ele>
        <time>2016-10-26T14:39:19.009Z</time>
      </trkpt>
      <trkpt lat="47.07646" lon="-0.85958">
        <ele>122</ele>
        <time>2016-10-26T14:39:23.009Z</time>
      </trkpt>
      <trkpt lat="47.07642" lon="-0.85958">
        <ele>122</ele>
        <time>2016-10-26T14:39:29.009Z</time>
      </trkpt>
      <trkpt lat="47.07639" lon="-0.85953">
        <ele>122</ele>
        <time>2016-10-26T14:39:33.009Z</time>
      </trkpt>
      <trkpt lat="47.07637" lon="-0.85949">
        <ele>122</ele>
        <time>2016-10-26T14:39:36.009Z</time>
      </trkpt>
      <trkpt lat="47.07634" lon="-0.85946">
        <ele>122</ele>
        <time>2016-10-26T14:39:40.009Z</time>
      </trkpt>
      <trkpt lat="47.07632" lon="-0.85941">
        <ele>123</ele>
        <time>2016-10-26T14:40:04.009Z</time>
      </trkpt>
      <trkpt lat="47.07628" lon="-0.85938">
        <ele>123</ele>
        <time>2016-10-26T14:40:07.009Z</time>
      </trkpt>
      <trkpt lat="47.07625" lon="-0.85935">
        <ele>123</ele>
        <time>2016-10-26T14:40:10.009Z</time>
      </trkpt>
      <trkpt lat="47.07621" lon="-0.85932">
        <ele>123</ele>
        <time>2016-10-26T14:40:14.009Z</time>
      </trkpt>
      <trkpt lat="47.07618" lon="-0.85928">
        <ele>123</ele>
        <time>2016-10-26T14:40:18.009Z</time>
      </trkpt>
      <trkpt lat="47.07615" lon="-0.85924">
        <ele>123</ele>
        <time>2016-10-26T14:40:22.009Z</time>
      </trkpt>
      <trkpt lat="47.07611" lon="-0.8592">
        <ele>122</ele>
        <time>2016-10-26T14:40:25.009Z</time>
      </trkpt>
      <trkpt lat="47.07607" lon="-0.85916">
        <ele>122</ele>
        <time>2016-10-26T14:40:28.009Z</time>
      </trkpt>
      <trkpt lat="47.07605" lon="-0.85909">
        <ele>122</ele>
        <time>2016-10-26T14:40:33.009Z</time>
      </trkpt>
      <trkpt lat="47.07602" lon="-0.85905">
        <ele>122</ele>
        <time>2016-10-26T14:40:36.009Z</time>
      </trkpt>
      <trkpt lat="47.07599" lon="-0.859">
        <ele>122</ele>
        <time>2016-10-26T14:40:39.009Z</time>
      </trkpt>
      <trkpt lat="47.07596" lon="-0.85897">
        <ele>122</ele>
        <time>2016-10-26T14:40:43.009Z</time>
      </trkpt>
      <trkpt lat="47.07593" lon="-0.85893">
        <ele>122</ele>
        <time>2016-10-26T14:41:20.009Z</time>
      </trkpt>
      <trkpt lat="47.0759" lon="-0.8589">
        <ele>123</ele>
        <time>2016-10-26T14:41:25.009Z</time>
      </trkpt>
      <trkpt lat="47.07587" lon="-0.85886">
        <ele>123</ele>
        <time>2016-10-26T14:41:30.009Z</time>
      </trkpt>
      <trkpt lat="47.07584" lon="-0.85881">
        <ele>129</ele>
        <time>2016-10-26T14:41:35.009Z</time>
      </trkpt>
      <trkpt lat="47.07581" lon="-0.85877">
        <ele>131</ele>
        <time>2016-10-26T14:41:40.009Z</time>
      </trkpt>
      <trkpt lat="47.07578" lon="-0.85873">
        <ele>131</ele>
        <time>2016-10-26T14:41:45.009Z</time>
      </trkpt>
      <trkpt lat="47.07575" lon="-0.85868">
        <ele>132</ele>
        <time>2016-10-26T14:41:50.009Z</time>
      </trkpt>
      <trkpt lat="47.07573" lon="-0.85863">
        <ele>133</ele>
        <time>2016-10-26T14:41:55.009Z</time>
      </trkpt>
      <trkpt lat="47.0757" lon="-0.85859">
        <ele>134</ele>
        <time>2016-10-26T14:42:00.009Z</time>
      </trkpt>
      <trkpt lat="47.07568" lon="-0.85854">
        <ele>135</ele>
        <time>2016-10-26T14:42:04.009Z</time>
      </trkpt>
      <trkpt lat="47.07566" lon="-0.85849">
        <ele>135</ele>
        <time>2016-10-26T14:42:09.009Z</time>
      </trkpt>
      <trkpt lat="47.07563" lon="-0.85844">
        <ele>138</ele>
        <time>2016-10-26T14:42:14.009Z</time>
      </trkpt>
      <trkpt lat="47.07559" lon="-0.85842">
        <ele>139</ele>
        <time>2016-10-26T14:42:18.009Z</time>
      </trkpt>
      <trkpt lat="47.07556" lon="-0.85838">
        <ele>140</ele>
        <time>2016-10-26T14:42:23.009Z</time>
      </trkpt>
      <trkpt lat="47.07553" lon="-0.85833">
        <ele>142</ele>
        <time>2016-10-26T14:42:27.009Z</time>
      </trkpt>
      <trkpt lat="47.0755" lon="-0.85828">
        <ele>143</ele>
        <time>2016-10-26T14:42:32.009Z</time>
      </trkpt>
      <trkpt lat="47.07547" lon="-0.85824">
        <ele>144</ele>
        <time>2016-10-26T14:42:37.009Z</time>
      </trkpt>
      <trkpt lat="47.07544" lon="-0.85819">
        <ele>144</ele>
        <time>2016-10-26T14:42:42.009Z</time>
      </trkpt>
      <trkpt lat="47.07541" lon="-0.85815">
        <ele>144</ele>
        <time>2016-10-26T14:42:46.009Z</time>
      </trkpt>
      <trkpt lat="47.07538" lon="-0.85812">
        <ele>144</ele>
        <time>2016-10-26T14:42:50.009Z</time>
      </trkpt>
      <trkpt lat="47.07535" lon="-0.85808">
        <ele>146</ele>
        <time>2016-10-26T14:42:54.009Z</time>
      </trkpt>
      <trkpt lat="47.07531" lon="-0.85803">
        <ele>146</ele>
        <time>2016-10-26T14:42:58.009Z</time>
      </trkpt>
      <trkpt lat="47.07528" lon="-0.85802">
        <ele>147</ele>
        <time>2016-10-26T14:43:09.009Z</time>
      </trkpt>
      <trkpt lat="47.07524" lon="-0.85799">
        <ele>148</ele>
        <time>2016-10-26T14:43:13.009Z</time>
      </trkpt>
      <trkpt lat="47.0752" lon="-0.85796">
        <ele>149</ele>
        <time>2016-10-26T14:43:23.009Z</time>
      </trkpt>
      <trkpt lat="47.07524" lon="-0.85796">
        <ele>149</ele>
        <time>2016-10-26T14:43:44.009Z</time>
      </trkpt>
      <trkpt lat="47.07525" lon="-0.85802">
        <ele>148</ele>
        <time>2016-10-26T14:44:44.009Z</time>
      </trkpt>
      <trkpt lat="47.07525" lon="-0.85808">
        <ele>148</ele>
        <time>2016-10-26T14:45:10.009Z</time>
      </trkpt>
      <trkpt lat="47.07527" lon="-0.85813">
        <ele>148</ele>
        <time>2016-10-26T14:45:14.009Z</time>
      </trkpt>
      <trkpt lat="47.07527" lon="-0.85819">
        <ele>148</ele>
        <time>2016-10-26T14:45:21.009Z</time>
      </trkpt>
      <trkpt lat="47.07523" lon="-0.8582">
        <ele>147</ele>
        <time>2016-10-26T14:45:24.009Z</time>
      </trkpt>
      <trkpt lat="47.07519" lon="-0.8582">
        <ele>147</ele>
        <time>2016-10-26T14:45:28.009Z</time>
      </trkpt>
      <trkpt lat="47.0752" lon="-0.85812">
        <ele>148</ele>
        <time>2016-10-26T14:45:43.009Z</time>
      </trkpt>
      <trkpt lat="47.07524" lon="-0.85805">
        <ele>148</ele>
        <time>2016-10-26T14:45:45.009Z</time>
      </trkpt>
      <trkpt lat="47.07526" lon="-0.85797">
        <ele>148</ele>
        <time>2016-10-26T14:45:47.009Z</time>
      </trkpt>
      <trkpt lat="47.07526" lon="-0.85789">
        <ele>148</ele>
        <time>2016-10-26T14:45:49.009Z</time>
      </trkpt>
      <trkpt lat="47.07524" lon="-0.85784">
        <ele>149</ele>
        <time>2016-10-26T14:45:53.009Z</time>
      </trkpt>
      <trkpt lat="47.07525" lon="-0.85791">
        <ele>149</ele>
        <time>2016-10-26T14:45:59.009Z</time>
      </trkpt>
      <trkpt lat="47.07525" lon="-0.85797">
        <ele>149</ele>
        <time>2016-10-26T14:46:02.009Z</time>
      </trkpt>
      <trkpt lat="47.07525" lon="-0.85803">
        <ele>149</ele>
        <time>2016-10-26T14:46:05.009Z</time>
      </trkpt>
      <trkpt lat="47.07526" lon="-0.85809">
        <ele>149</ele>
        <time>2016-10-26T14:46:08.009Z</time>
      </trkpt>
      <trkpt lat="47.07527" lon="-0.85814">
        <ele>149</ele>
        <time>2016-10-26T14:46:11.009Z</time>
      </trkpt>
      <trkpt lat="47.07524" lon="-0.85818">
        <ele>149</ele>
        <time>2016-10-26T14:46:15.009Z</time>
      </trkpt>
      <trkpt lat="47.0752" lon="-0.85819">
        <ele>149</ele>
        <time>2016-10-26T14:46:18.009Z</time>
      </trkpt>
      <trkpt lat="47.07516" lon="-0.85821">
        <ele>149</ele>
        <time>2016-10-26T14:46:21.009Z</time>
      </trkpt>
      <trkpt lat="47.07514" lon="-0.85825">
        <ele>146</ele>
        <time>2016-10-26T14:46:25.009Z</time>
      </trkpt>
      <trkpt lat="47.07514" lon="-0.85831">
        <ele>145</ele>
        <time>2016-10-26T14:46:28.009Z</time>
      </trkpt>
      <trkpt lat="47.07518" lon="-0.85835">
        <ele>145</ele>
        <time>2016-10-26T14:46:32.009Z</time>
      </trkpt>
      <trkpt lat="47.07522" lon="-0.85838">
        <ele>145</ele>
        <time>2016-10-26T14:46:35.009Z</time>
      </trkpt>
      <trkpt lat="47.07526" lon="-0.85841">
        <ele>144</ele>
        <time>2016-10-26T14:46:38.009Z</time>
      </trkpt>
      <trkpt lat="47.07529" lon="-0.85843">
        <ele>144</ele>
        <time>2016-10-26T14:46:41.009Z</time>
      </trkpt>
      <trkpt lat="47.07534" lon="-0.85845">
        <ele>144</ele>
        <time>2016-10-26T14:46:45.009Z</time>
      </trkpt>
      <trkpt lat="47.07539" lon="-0.85844">
        <ele>143</ele>
        <time>2016-10-26T14:46:48.009Z</time>
      </trkpt>
      <trkpt lat="47.07543" lon="-0.85845">
        <ele>143</ele>
        <time>2016-10-26T14:46:51.009Z</time>
      </trkpt>
      <trkpt lat="47.07547" lon="-0.85845">
        <ele>143</ele>
        <time>2016-10-26T14:46:54.009Z</time>
      </trkpt>
      <trkpt lat="47.07546" lon="-0.85851">
        <ele>142</ele>
        <time>2016-10-26T14:47:00.009Z</time>
      </trkpt>
      <trkpt lat="47.07542" lon="-0.85854">
        <ele>141</ele>
        <time>2016-10-26T14:47:03.009Z</time>
      </trkpt>
      <trkpt lat="47.07538" lon="-0.85857">
        <ele>141</ele>
        <time>2016-10-26T14:47:06.009Z</time>
      </trkpt>
      <trkpt lat="47.07534" lon="-0.8586">
        <ele>141</ele>
        <time>2016-10-26T14:47:09.009Z</time>
      </trkpt>
      <trkpt lat="47.07531" lon="-0.85863">
        <ele>140</ele>
        <time>2016-10-26T14:47:12.009Z</time>
      </trkpt>
      <trkpt lat="47.07527" lon="-0.85866">
        <ele>140</ele>
        <time>2016-10-26T14:47:15.009Z</time>
      </trkpt>
      <trkpt lat="47.07523" lon="-0.85868">
        <ele>140</ele>
        <time>2016-10-26T14:47:18.009Z</time>
      </trkpt>
      <trkpt lat="47.07519" lon="-0.8587">
        <ele>140</ele>
        <time>2016-10-26T14:47:21.009Z</time>
      </trkpt>
      <trkpt lat="47.07515" lon="-0.85871">
        <ele>138</ele>
        <time>2016-10-26T14:47:24.009Z</time>
      </trkpt>
      <trkpt lat="47.07511" lon="-0.85871">
        <ele>138</ele>
        <time>2016-10-26T14:47:27.009Z</time>
      </trkpt>
      <trkpt lat="47.07506" lon="-0.85871">
        <ele>137.54270666667</ele>
        <time>2016-10-26T14:47:31.009Z</time>
      </trkpt>
      <trkpt lat="47.07502" lon="-0.8587">
        <ele>137</ele>
        <time>2016-10-26T14:47:34.009Z</time>
      </trkpt>
      <trkpt lat="47.07498" lon="-0.85869">
        <ele>137</ele>
        <time>2016-10-26T14:47:37.009Z</time>
      </trkpt>
      <trkpt lat="47.07494" lon="-0.85866">
        <ele>136.5663026087</ele>
        <time>2016-10-26T14:47:41.009Z</time>
      </trkpt>
      <trkpt lat="47.0749" lon="-0.85864">
        <ele>136</ele>
        <time>2016-10-26T14:47:45.009Z</time>
      </trkpt>
      <trkpt lat="47.07486" lon="-0.85862">
        <ele>136</ele>
        <time>2016-10-26T14:47:48.009Z</time>
      </trkpt>
      <trkpt lat="47.07482" lon="-0.8586">
        <ele>136</ele>
        <time>2016-10-26T14:47:51.009Z</time>
      </trkpt>
      <trkpt lat="47.07479" lon="-0.85856">
        <ele>136</ele>
        <time>2016-10-26T14:47:54.009Z</time>
      </trkpt>
      <trkpt lat="47.07477" lon="-0.85852">
        <ele>136</ele>
        <time>2016-10-26T14:47:57.009Z</time>
      </trkpt>
      <trkpt lat="47.07475" lon="-0.85846">
        <ele>136</ele>
        <time>2016-10-26T14:48:00.009Z</time>
      </trkpt>
      <trkpt lat="47.07474" lon="-0.8584">
        <ele>135</ele>
        <time>2016-10-26T14:48:03.009Z</time>
      </trkpt>
      <trkpt lat="47.07473" lon="-0.85834">
        <ele>135</ele>
        <time>2016-10-26T14:48:07.009Z</time>
      </trkpt>
      <trkpt lat="47.07473" lon="-0.85827">
        <ele>135</ele>
        <time>2016-10-26T14:48:11.009Z</time>
      </trkpt>
      <trkpt lat="47.07473" lon="-0.85822">
        <ele>135</ele>
        <time>2016-10-26T14:48:14.009Z</time>
      </trkpt>
      <trkpt lat="47.07472" lon="-0.85816">
        <ele>135</ele>
        <time>2016-10-26T14:48:17.009Z</time>
      </trkpt>
      <trkpt lat="47.07473" lon="-0.8581">
        <ele>135</ele>
        <time>2016-10-26T14:48:20.009Z</time>
      </trkpt>
      <trkpt lat="47.07472" lon="-0.85805">
        <ele>135</ele>
        <time>2016-10-26T14:48:23.009Z</time>
      </trkpt>
      <trkpt lat="47.07473" lon="-0.85799">
        <ele>135</ele>
        <time>2016-10-26T14:48:32.009Z</time>
      </trkpt>
      <trkpt lat="47.07473" lon="-0.85792">
        <ele>135</ele>
        <time>2016-10-26T14:48:35.009Z</time>
      </trkpt>
      <trkpt lat="47.07472" lon="-0.85784">
        <ele>135</ele>
        <time>2016-10-26T14:48:38.009Z</time>
      </trkpt>
      <trkpt lat="47.07473" lon="-0.85777">
        <ele>134.57982551677</ele>
        <time>2016-10-26T14:48:41.009Z</time>
      </trkpt>
      <trkpt lat="47.07473" lon="-0.85769">
        <ele>134</ele>
        <time>2016-10-26T14:48:44.009Z</time>
      </trkpt>
      <trkpt lat="47.07473" lon="-0.85762">
        <ele>134</ele>
        <time>2016-10-26T14:48:47.009Z</time>
      </trkpt>
      <trkpt lat="47.07474" lon="-0.85757">
        <ele>134</ele>
        <time>2016-10-26T14:48:50.009Z</time>
      </trkpt>
      <trkpt lat="47.07474" lon="-0.8575">
        <ele>133</ele>
        <time>2016-10-26T14:48:53.009Z</time>
      </trkpt>
      <trkpt lat="47.07474" lon="-0.85744">
        <ele>133</ele>
        <time>2016-10-26T14:48:56.009Z</time>
      </trkpt>
      <trkpt lat="47.07474" lon="-0.85738">
        <ele>133</ele>
        <time>2016-10-26T14:48:59.009Z</time>
      </trkpt>
      <trkpt lat="47.07474" lon="-0.85732">
        <ele>133</ele>
        <time>2016-10-26T14:49:02.009Z</time>
      </trkpt>
      <trkpt lat="47.07475" lon="-0.85725">
        <ele>133</ele>
        <time>2016-10-26T14:49:06.009Z</time>
      </trkpt>
      <trkpt lat="47.07475" lon="-0.85718">
        <ele>133</ele>
        <time>2016-10-26T14:49:10.009Z</time>
      </trkpt>
      <trkpt lat="47.07476" lon="-0.85711">
        <ele>133</ele>
        <time>2016-10-26T14:49:14.009Z</time>
      </trkpt>
      <trkpt lat="47.07477" lon="-0.85704">
        <ele>133</ele>
        <time>2016-10-26T14:49:18.009Z</time>
      </trkpt>
      <trkpt lat="47.07477" lon="-0.85698">
        <ele>133</ele>
        <time>2016-10-26T14:49:22.009Z</time>
      </trkpt>
      <trkpt lat="47.07477" lon="-0.85692">
        <ele>133</ele>
        <time>2016-10-26T14:49:25.009Z</time>
      </trkpt>
      <trkpt lat="47.07478" lon="-0.85686">
        <ele>133</ele>
        <time>2016-10-26T14:49:29.009Z</time>
      </trkpt>
      <trkpt lat="47.07479" lon="-0.8568">
        <ele>132</ele>
        <time>2016-10-26T14:49:33.009Z</time>
      </trkpt>
      <trkpt lat="47.07482" lon="-0.85675">
        <ele>132</ele>
        <time>2016-10-26T14:49:37.009Z</time>
      </trkpt>
      <trkpt lat="47.07484" lon="-0.85669">
        <ele>132</ele>
        <time>2016-10-26T14:49:41.009Z</time>
      </trkpt>
      <trkpt lat="47.07487" lon="-0.85666">
        <ele>132</ele>
        <time>2016-10-26T14:49:45.009Z</time>
      </trkpt>
      <trkpt lat="47.07491" lon="-0.85666">
        <ele>132</ele>
        <time>2016-10-26T14:49:48.009Z</time>
      </trkpt>
      <trkpt lat="47.07495" lon="-0.85666">
        <ele>131.5209984</ele>
        <time>2016-10-26T14:49:52.009Z</time>
      </trkpt>
      <trkpt lat="47.07499" lon="-0.85663">
        <ele>131</ele>
        <time>2016-10-26T14:49:56.009Z</time>
      </trkpt>
      <trkpt lat="47.07499" lon="-0.85656">
        <ele>131</ele>
        <time>2016-10-26T14:50:00.009Z</time>
      </trkpt>
      <trkpt lat="47.07498" lon="-0.85652">
        <ele>130</ele>
        <time>2016-10-26T14:50:03.009Z</time>
      </trkpt>
      <trkpt lat="47.07496" lon="-0.85646">
        <ele>130</ele>
        <time>2016-10-26T14:50:07.009Z</time>
      </trkpt>
      <trkpt lat="47.07491" lon="-0.85644">
        <ele>130</ele>
        <time>2016-10-26T14:50:10.009Z</time>
      </trkpt>
      <trkpt lat="47.07484" lon="-0.85644">
        <ele>128</ele>
        <time>2016-10-26T14:50:17.009Z</time>
      </trkpt>
      <trkpt lat="47.07479" lon="-0.85645">
        <ele>128</ele>
        <time>2016-10-26T14:50:20.009Z</time>
      </trkpt>
      <trkpt lat="47.07475" lon="-0.85648">
        <ele>128</ele>
        <time>2016-10-26T14:50:24.009Z</time>
      </trkpt>
      <trkpt lat="47.07472" lon="-0.85651">
        <ele>128</ele>
        <time>2016-10-26T14:50:27.009Z</time>
      </trkpt>
      <trkpt lat="47.07469" lon="-0.85655">
        <ele>128</ele>
        <time>2016-10-26T14:50:30.009Z</time>
      </trkpt>
      <trkpt lat="47.0746" lon="-0.85667">
        <ele>127</ele>
        <time>2016-10-26T14:50:39.009Z</time>
      </trkpt>
      <trkpt lat="47.07456" lon="-0.85674">
        <ele>124.89445613835</ele>
        <time>2016-10-26T14:50:43.009Z</time>
      </trkpt>
      <trkpt lat="47.07453" lon="-0.85677">
        <ele>122</ele>
        <time>2016-10-26T14:50:46.009Z</time>
      </trkpt>
      <trkpt lat="47.07449" lon="-0.85678">
        <ele>121</ele>
        <time>2016-10-26T14:50:51.009Z</time>
      </trkpt>
      <trkpt lat="47.07452" lon="-0.85663">
        <ele>119</ele>
        <time>2016-10-26T14:51:04.009Z</time>
      </trkpt>
      <trkpt lat="47.07455" lon="-0.85647">
        <ele>118</ele>
        <time>2016-10-26T14:51:15.009Z</time>
      </trkpt>
      <trkpt lat="47.07456" lon="-0.8563">
        <ele>116</ele>
        <time>2016-10-26T14:51:24.009Z</time>
      </trkpt>
      <trkpt lat="47.0746" lon="-0.85614">
        <ele>116</ele>
        <time>2016-10-26T14:51:31.009Z</time>
      </trkpt>
      <trkpt lat="47.0746" lon="-0.85607">
        <ele>116</ele>
        <time>2016-10-26T14:51:34.009Z</time>
      </trkpt>
      <trkpt lat="47.07461" lon="-0.85601">
        <ele>116</ele>
        <time>2016-10-26T14:51:37.009Z</time>
      </trkpt>
      <trkpt lat="47.07461" lon="-0.85595">
        <ele>115.0419968</ele>
        <time>2016-10-26T14:51:41.009Z</time>
      </trkpt>
      <trkpt lat="47.07463" lon="-0.8559">
        <ele>114</ele>
        <time>2016-10-26T14:51:45.009Z</time>
      </trkpt>
      <trkpt lat="47.07464" lon="-0.85583">
        <ele>114</ele>
        <time>2016-10-26T14:51:49.009Z</time>
      </trkpt>
      <trkpt lat="47.07466" lon="-0.85578">
        <ele>113</ele>
        <time>2016-10-26T14:51:54.009Z</time>
      </trkpt>
      <trkpt lat="47.07468" lon="-0.85572">
        <ele>113</ele>
        <time>2016-10-26T14:51:58.009Z</time>
      </trkpt>
      <trkpt lat="47.07469" lon="-0.85567">
        <ele>113</ele>
        <time>2016-10-26T14:52:01.009Z</time>
      </trkpt>
      <trkpt lat="47.07471" lon="-0.85561">
        <ele>114</ele>
        <time>2016-10-26T14:52:04.009Z</time>
      </trkpt>
      <trkpt lat="47.07472" lon="-0.85555">
        <ele>114</ele>
        <time>2016-10-26T14:52:07.009Z</time>
      </trkpt>
      <trkpt lat="47.07473" lon="-0.8555">
        <ele>114</ele>
        <time>2016-10-26T14:52:10.009Z</time>
      </trkpt>
      <trkpt lat="47.07475" lon="-0.85544">
        <ele>114</ele>
        <time>2016-10-26T14:52:14.009Z</time>
      </trkpt>
      <trkpt lat="47.07477" lon="-0.85539">
        <ele>114</ele>
        <time>2016-10-26T14:52:19.009Z</time>
      </trkpt>
      <trkpt lat="47.0748" lon="-0.85534">
        <ele>114</ele>
        <time>2016-10-26T14:52:26.009Z</time>
      </trkpt>
      <trkpt lat="47.07485" lon="-0.85532">
        <ele>114</ele>
        <time>2016-10-26T14:52:30.009Z</time>
      </trkpt>
      <trkpt lat="47.07489" lon="-0.85529">
        <ele>113</ele>
        <time>2016-10-26T14:52:34.009Z</time>
      </trkpt>
      <trkpt lat="47.07492" lon="-0.85527">
        <ele>113</ele>
        <time>2016-10-26T14:52:38.009Z</time>
      </trkpt>
      <trkpt lat="47.07497" lon="-0.85526">
        <ele>113</ele>
        <time>2016-10-26T14:52:42.009Z</time>
      </trkpt>
      <trkpt lat="47.07501" lon="-0.85524">
        <ele>113</ele>
        <time>2016-10-26T14:52:46.009Z</time>
      </trkpt>
      <trkpt lat="47.07505" lon="-0.85521">
        <ele>113</ele>
        <time>2016-10-26T14:52:51.009Z</time>
      </trkpt>
      <trkpt lat="47.07509" lon="-0.8552">
        <ele>113</ele>
        <time>2016-10-26T14:52:55.009Z</time>
      </trkpt>
      <trkpt lat="47.07513" lon="-0.8552">
        <ele>113</ele>
        <time>2016-10-26T14:52:58.009Z</time>
      </trkpt>
      <trkpt lat="47.07518" lon="-0.85519">
        <ele>113</ele>
        <time>2016-10-26T14:53:02.009Z</time>
      </trkpt>
      <trkpt lat="47.07521" lon="-0.85517">
        <ele>113</ele>
        <time>2016-10-26T14:53:06.009Z</time>
      </trkpt>
      <trkpt lat="47.07525" lon="-0.85515">
        <ele>113</ele>
        <time>2016-10-26T14:53:10.009Z</time>
      </trkpt>
      <trkpt lat="47.07529" lon="-0.85514">
        <ele>113</ele>
        <time>2016-10-26T14:53:13.009Z</time>
      </trkpt>
      <trkpt lat="47.07533" lon="-0.85514">
        <ele>113</ele>
        <time>2016-10-26T14:53:17.009Z</time>
      </trkpt>
      <trkpt lat="47.07537" lon="-0.85512">
        <ele>113</ele>
        <time>2016-10-26T14:53:21.009Z</time>
      </trkpt>
      <trkpt lat="47.07542" lon="-0.8551">
        <ele>113</ele>
        <time>2016-10-26T14:53:24.009Z</time>
      </trkpt>
      <trkpt lat="47.07546" lon="-0.85509">
        <ele>113</ele>
        <time>2016-10-26T14:53:27.009Z</time>
      </trkpt>
      <trkpt lat="47.0755" lon="-0.85508">
        <ele>113</ele>
        <time>2016-10-26T14:53:31.009Z</time>
      </trkpt>
      <trkpt lat="47.07554" lon="-0.85509">
        <ele>113</ele>
        <time>2016-10-26T14:53:34.009Z</time>
      </trkpt>
      <trkpt lat="47.07558" lon="-0.85508">
        <ele>113</ele>
        <time>2016-10-26T14:53:37.009Z</time>
      </trkpt>
      <trkpt lat="47.07563" lon="-0.85507">
        <ele>113</ele>
        <time>2016-10-26T14:53:41.009Z</time>
      </trkpt>
      <trkpt lat="47.07567" lon="-0.85506">
        <ele>113</ele>
        <time>2016-10-26T14:53:44.009Z</time>
      </trkpt>
      <trkpt lat="47.07571" lon="-0.85505">
        <ele>113</ele>
        <time>2016-10-26T14:53:47.009Z</time>
      </trkpt>
      <trkpt lat="47.07574" lon="-0.85504">
        <ele>113</ele>
        <time>2016-10-26T14:53:50.009Z</time>
      </trkpt>
      <trkpt lat="47.07577" lon="-0.855">
        <ele>113</ele>
        <time>2016-10-26T14:53:53.009Z</time>
      </trkpt>
      <trkpt lat="47.0758" lon="-0.85497">
        <ele>113</ele>
        <time>2016-10-26T14:53:56.009Z</time>
      </trkpt>
      <trkpt lat="47.07584" lon="-0.85494">
        <ele>113</ele>
        <time>2016-10-26T14:53:59.009Z</time>
      </trkpt>
      <trkpt lat="47.07587" lon="-0.8549">
        <ele>113</ele>
        <time>2016-10-26T14:54:02.009Z</time>
      </trkpt>
      <trkpt lat="47.07591" lon="-0.85488">
        <ele>113</ele>
        <time>2016-10-26T14:54:05.009Z</time>
      </trkpt>
      <trkpt lat="47.07595" lon="-0.85487">
        <ele>113</ele>
        <time>2016-10-26T14:54:15.009Z</time>
      </trkpt>
      <trkpt lat="47.07598" lon="-0.85483">
        <ele>113</ele>
        <time>2016-10-26T14:54:18.009Z</time>
      </trkpt>
      <trkpt lat="47.07602" lon="-0.85478">
        <ele>113</ele>
        <time>2016-10-26T14:54:21.009Z</time>
      </trkpt>
      <trkpt lat="47.07605" lon="-0.85474">
        <ele>113</ele>
        <time>2016-10-26T14:54:25.009Z</time>
      </trkpt>
      <trkpt lat="47.07608" lon="-0.85471">
        <ele>113</ele>
        <time>2016-10-26T14:54:29.009Z</time>
      </trkpt>
      <trkpt lat="47.07612" lon="-0.85468">
        <ele>114</ele>
        <time>2016-10-26T14:54:33.009Z</time>
      </trkpt>
      <trkpt lat="47.07615" lon="-0.85465">
        <ele>114</ele>
        <time>2016-10-26T14:54:36.009Z</time>
      </trkpt>
      <trkpt lat="47.07619" lon="-0.85462">
        <ele>114</ele>
        <time>2016-10-26T14:54:41.009Z</time>
      </trkpt>
      <trkpt lat="47.07623" lon="-0.8546">
        <ele>114</ele>
        <time>2016-10-26T14:54:47.009Z</time>
      </trkpt>
      <trkpt lat="47.07625" lon="-0.85455">
        <ele>113</ele>
        <time>2016-10-26T14:54:56.009Z</time>
      </trkpt>
      <trkpt lat="47.07629" lon="-0.85452">
        <ele>113</ele>
        <time>2016-10-26T14:55:51.009Z</time>
      </trkpt>
      <trkpt lat="47.07633" lon="-0.8545">
        <ele>113</ele>
        <time>2016-10-26T14:55:58.009Z</time>
      </trkpt>
      <trkpt lat="47.07636" lon="-0.85446">
        <ele>114</ele>
        <time>2016-10-26T14:56:02.009Z</time>
      </trkpt>
      <trkpt lat="47.07639" lon="-0.85441">
        <ele>114</ele>
        <time>2016-10-26T14:56:07.009Z</time>
      </trkpt>
      <trkpt lat="47.07644" lon="-0.85437">
        <ele>113</ele>
        <time>2016-10-26T14:56:12.009Z</time>
      </trkpt>
      <trkpt lat="47.07648" lon="-0.85435">
        <ele>113</ele>
        <time>2016-10-26T14:56:15.009Z</time>
      </trkpt>
      <trkpt lat="47.07651" lon="-0.85434">
        <ele>113</ele>
        <time>2016-10-26T14:56:18.009Z</time>
      </trkpt>
      <trkpt lat="47.07655" lon="-0.85432">
        <ele>113</ele>
        <time>2016-10-26T14:56:22.009Z</time>
      </trkpt>
      <trkpt lat="47.07659" lon="-0.85431">
        <ele>113</ele>
        <time>2016-10-26T14:56:26.009Z</time>
      </trkpt>
      <trkpt lat="47.07663" lon="-0.85429">
        <ele>113</ele>
        <time>2016-10-26T14:56:30.009Z</time>
      </trkpt>
      <trkpt lat="47.07667" lon="-0.85427">
        <ele>113</ele>
        <time>2016-10-26T14:56:34.009Z</time>
      </trkpt>
      <trkpt lat="47.07671" lon="-0.85425">
        <ele>113</ele>
        <time>2016-10-26T14:56:38.009Z</time>
      </trkpt>
      <trkpt lat="47.07674" lon="-0.85422">
        <ele>113</ele>
        <time>2016-10-26T14:56:42.009Z</time>
      </trkpt>
      <trkpt lat="47.07679" lon="-0.8542">
        <ele>113</ele>
        <time>2016-10-26T14:56:46.009Z</time>
      </trkpt>
      <trkpt lat="47.07683" lon="-0.85419">
        <ele>113</ele>
        <time>2016-10-26T14:56:50.009Z</time>
      </trkpt>
      <trkpt lat="47.07687" lon="-0.85416">
        <ele>113</ele>
        <time>2016-10-26T14:56:54.009Z</time>
      </trkpt>
      <trkpt lat="47.07691" lon="-0.85414">
        <ele>113</ele>
        <time>2016-10-26T14:56:58.009Z</time>
      </trkpt>
      <trkpt lat="47.07695" lon="-0.85411">
        <ele>113</ele>
        <time>2016-10-26T14:57:02.009Z</time>
      </trkpt>
      <trkpt lat="47.07698" lon="-0.85408">
        <ele>113</ele>
        <time>2016-10-26T14:57:06.009Z</time>
      </trkpt>
      <trkpt lat="47.07701" lon="-0.85404">
        <ele>113</ele>
        <time>2016-10-26T14:57:09.009Z</time>
      </trkpt>
      <trkpt lat="47.07705" lon="-0.85403">
        <ele>113</ele>
        <time>2016-10-26T14:57:12.009Z</time>
      </trkpt>
      <trkpt lat="47.0771" lon="-0.854">
        <ele>113</ele>
        <time>2016-10-26T14:57:15.009Z</time>
      </trkpt>
      <trkpt lat="47.07713" lon="-0.85398">
        <ele>113</ele>
        <time>2016-10-26T14:57:18.009Z</time>
      </trkpt>
      <trkpt lat="47.07717" lon="-0.85396">
        <ele>113.4790016</ele>
        <time>2016-10-26T14:57:21.009Z</time>
      </trkpt>
      <trkpt lat="47.07721" lon="-0.85394">
        <ele>113</ele>
        <time>2016-10-26T14:57:25.009Z</time>
      </trkpt>
      <trkpt lat="47.07725" lon="-0.85392">
        <ele>113</ele>
        <time>2016-10-26T14:57:28.009Z</time>
      </trkpt>
      <trkpt lat="47.07729" lon="-0.8539">
        <ele>113</ele>
        <time>2016-10-26T14:57:31.009Z</time>
      </trkpt>
      <trkpt lat="47.07733" lon="-0.85388">
        <ele>113</ele>
        <time>2016-10-26T14:57:35.009Z</time>
      </trkpt>
      <trkpt lat="47.07736" lon="-0.85385">
        <ele>113</ele>
        <time>2016-10-26T14:57:38.009Z</time>
      </trkpt>
      <trkpt lat="47.0774" lon="-0.85384">
        <ele>113</ele>
        <time>2016-10-26T14:57:42.009Z</time>
      </trkpt>
      <trkpt lat="47.07744" lon="-0.85383">
        <ele>113</ele>
        <time>2016-10-26T14:57:45.009Z</time>
      </trkpt>
      <trkpt lat="47.07749" lon="-0.85384">
        <ele>113</ele>
        <time>2016-10-26T14:57:49.009Z</time>
      </trkpt>
      <trkpt lat="47.07753" lon="-0.85384">
        <ele>113</ele>
        <time>2016-10-26T14:57:53.009Z</time>
      </trkpt>
      <trkpt lat="47.07758" lon="-0.85386">
        <ele>113</ele>
        <time>2016-10-26T14:57:57.009Z</time>
      </trkpt>
      <trkpt lat="47.07761" lon="-0.85386">
        <ele>113</ele>
        <time>2016-10-26T14:58:00.009Z</time>
      </trkpt>
      <trkpt lat="47.07766" lon="-0.85387">
        <ele>112</ele>
        <time>2016-10-26T14:58:04.009Z</time>
      </trkpt>
      <trkpt lat="47.07771" lon="-0.85388">
        <ele>112</ele>
        <time>2016-10-26T14:58:08.009Z</time>
      </trkpt>
      <trkpt lat="47.07775" lon="-0.85388">
        <ele>112</ele>
        <time>2016-10-26T14:58:11.009Z</time>
      </trkpt>
      <trkpt lat="47.07779" lon="-0.85388">
        <ele>112</ele>
        <time>2016-10-26T14:58:15.009Z</time>
      </trkpt>
      <trkpt lat="47.07783" lon="-0.85387">
        <ele>112</ele>
        <time>2016-10-26T14:58:19.009Z</time>
      </trkpt>
      <trkpt lat="47.07787" lon="-0.85386">
        <ele>113</ele>
        <time>2016-10-26T14:58:22.009Z</time>
      </trkpt>
      <trkpt lat="47.07791" lon="-0.85384">
        <ele>113</ele>
        <time>2016-10-26T14:58:25.009Z</time>
      </trkpt>
      <trkpt lat="47.07795" lon="-0.85384">
        <ele>113</ele>
        <time>2016-10-26T14:58:28.009Z</time>
      </trkpt>
      <trkpt lat="47.07799" lon="-0.85383">
        <ele>113</ele>
        <time>2016-10-26T14:58:31.009Z</time>
      </trkpt>
      <trkpt lat="47.07803" lon="-0.85383">
        <ele>113</ele>
        <time>2016-10-26T14:58:34.009Z</time>
      </trkpt>
      <trkpt lat="47.07807" lon="-0.8538">
        <ele>113</ele>
        <time>2016-10-26T14:58:38.009Z</time>
      </trkpt>
      <trkpt lat="47.07811" lon="-0.85377">
        <ele>112</ele>
        <time>2016-10-26T14:58:42.009Z</time>
      </trkpt>
      <trkpt lat="47.07815" lon="-0.85375">
        <ele>112</ele>
        <time>2016-10-26T14:58:46.009Z</time>
      </trkpt>
      <trkpt lat="47.07819" lon="-0.85374">
        <ele>112</ele>
        <time>2016-10-26T14:58:49.009Z</time>
      </trkpt>
      <trkpt lat="47.07823" lon="-0.85373">
        <ele>112</ele>
        <time>2016-10-26T14:58:52.009Z</time>
      </trkpt>
      <trkpt lat="47.07826" lon="-0.85371">
        <ele>112</ele>
        <time>2016-10-26T14:58:55.009Z</time>
      </trkpt>
      <trkpt lat="47.07831" lon="-0.8537">
        <ele>112</ele>
        <time>2016-10-26T14:58:59.009Z</time>
      </trkpt>
      <trkpt lat="47.07834" lon="-0.85369">
        <ele>111.57889122767</ele>
        <time>2016-10-26T14:59:02.009Z</time>
      </trkpt>
      <trkpt lat="47.07838" lon="-0.85368">
        <ele>111</ele>
        <time>2016-10-26T14:59:05.009Z</time>
      </trkpt>
      <trkpt lat="47.07843" lon="-0.85367">
        <ele>111</ele>
        <time>2016-10-26T14:59:09.009Z</time>
      </trkpt>
      <trkpt lat="47.07847" lon="-0.85366">
        <ele>111</ele>
        <time>2016-10-26T14:59:13.009Z</time>
      </trkpt>
      <trkpt lat="47.07851" lon="-0.85364">
        <ele>111</ele>
        <time>2016-10-26T14:59:17.009Z</time>
      </trkpt>
      <trkpt lat="47.07855" lon="-0.85362">
        <ele>111</ele>
        <time>2016-10-26T14:59:21.009Z</time>
      </trkpt>
      <trkpt lat="47.07859" lon="-0.85359">
        <ele>111</ele>
        <time>2016-10-26T14:59:24.009Z</time>
      </trkpt>
      <trkpt lat="47.07862" lon="-0.85356">
        <ele>111</ele>
        <time>2016-10-26T14:59:28.009Z</time>
      </trkpt>
      <trkpt lat="47.07866" lon="-0.85353">
        <ele>112</ele>
        <time>2016-10-26T14:59:33.009Z</time>
      </trkpt>
      <trkpt lat="47.07869" lon="-0.8535">
        <ele>112</ele>
        <time>2016-10-26T14:59:36.009Z</time>
      </trkpt>
      <trkpt lat="47.07873" lon="-0.85347">
        <ele>112</ele>
        <time>2016-10-26T14:59:40.009Z</time>
      </trkpt>
      <trkpt lat="47.07877" lon="-0.85344">
        <ele>112</ele>
        <time>2016-10-26T14:59:43.009Z</time>
      </trkpt>
      <trkpt lat="47.07881" lon="-0.8534">
        <ele>112</ele>
        <time>2016-10-26T14:59:46.009Z</time>
      </trkpt>
      <trkpt lat="47.07885" lon="-0.85338">
        <ele>112</ele>
        <time>2016-10-26T14:59:49.009Z</time>
      </trkpt>
      <trkpt lat="47.07889" lon="-0.85334">
        <ele>112</ele>
        <time>2016-10-26T14:59:53.009Z</time>
      </trkpt>
      <trkpt lat="47.07893" lon="-0.85332">
        <ele>112</ele>
        <time>2016-10-26T14:59:56.009Z</time>
      </trkpt>
      <trkpt lat="47.07896" lon="-0.85329">
        <ele>112</ele>
        <time>2016-10-26T15:00:00.009Z</time>
      </trkpt>
      <trkpt lat="47.079" lon="-0.85327">
        <ele>112</ele>
        <time>2016-10-26T15:00:03.009Z</time>
      </trkpt>
      <trkpt lat="47.07905" lon="-0.85325">
        <ele>112</ele>
        <time>2016-10-26T15:00:06.009Z</time>
      </trkpt>
      <trkpt lat="47.07909" lon="-0.85322">
        <ele>112</ele>
        <time>2016-10-26T15:00:09.009Z</time>
      </trkpt>
      <trkpt lat="47.07913" lon="-0.85322">
        <ele>111.53495134772</ele>
        <time>2016-10-26T15:00:12.009Z</time>
      </trkpt>
      <trkpt lat="47.07917" lon="-0.8532">
        <ele>111</ele>
        <time>2016-10-26T15:00:15.009Z</time>
      </trkpt>
      <trkpt lat="47.0792" lon="-0.85319">
        <ele>111</ele>
        <time>2016-10-26T15:00:18.009Z</time>
      </trkpt>
      <trkpt lat="47.07924" lon="-0.85318">
        <ele>111</ele>
        <time>2016-10-26T15:00:22.009Z</time>
      </trkpt>
      <trkpt lat="47.07929" lon="-0.85317">
        <ele>111</ele>
        <time>2016-10-26T15:00:26.009Z</time>
      </trkpt>
      <trkpt lat="47.07933" lon="-0.85317">
        <ele>111</ele>
        <time>2016-10-26T15:00:29.009Z</time>
      </trkpt>
      <trkpt lat="47.07936" lon="-0.85316">
        <ele>111</ele>
        <time>2016-10-26T15:00:32.009Z</time>
      </trkpt>
      <trkpt lat="47.07941" lon="-0.85315">
        <ele>111</ele>
        <time>2016-10-26T15:00:36.009Z</time>
      </trkpt>
      <trkpt lat="47.07945" lon="-0.85314">
        <ele>111</ele>
        <time>2016-10-26T15:00:40.009Z</time>
      </trkpt>
      <trkpt lat="47.07949" lon="-0.85312">
        <ele>111</ele>
        <time>2016-10-26T15:00:43.009Z</time>
      </trkpt>
      <trkpt lat="47.07953" lon="-0.8531">
        <ele>111</ele>
        <time>2016-10-26T15:00:46.009Z</time>
      </trkpt>
      <trkpt lat="47.07957" lon="-0.85308">
        <ele>111</ele>
        <time>2016-10-26T15:00:49.009Z</time>
      </trkpt>
      <trkpt lat="47.07961" lon="-0.85305">
        <ele>110</ele>
        <time>2016-10-26T15:00:53.009Z</time>
      </trkpt>
      <trkpt lat="47.07965" lon="-0.85304">
        <ele>110</ele>
        <time>2016-10-26T15:01:01.009Z</time>
      </trkpt>
      <trkpt lat="47.0797" lon="-0.85302">
        <ele>110</ele>
        <time>2016-10-26T15:01:05.009Z</time>
      </trkpt>
      <trkpt lat="47.07973" lon="-0.853">
        <ele>110</ele>
        <time>2016-10-26T15:01:08.009Z</time>
      </trkpt>
      <trkpt lat="47.07977" lon="-0.85298">
        <ele>110</ele>
        <time>2016-10-26T15:01:11.009Z</time>
      </trkpt>
      <trkpt lat="47.0798" lon="-0.85296">
        <ele>110</ele>
        <time>2016-10-26T15:01:14.009Z</time>
      </trkpt>
      <trkpt lat="47.07984" lon="-0.85295">
        <ele>110</ele>
        <time>2016-10-26T15:01:17.009Z</time>
      </trkpt>
      <trkpt lat="47.07988" lon="-0.85293">
        <ele>110</ele>
        <time>2016-10-26T15:01:20.009Z</time>
      </trkpt>
      <trkpt lat="47.07992" lon="-0.85291">
        <ele>111</ele>
        <time>2016-10-26T15:01:24.009Z</time>
      </trkpt>
      <trkpt lat="47.07996" lon="-0.85289">
        <ele>111</ele>
        <time>2016-10-26T15:01:27.009Z</time>
      </trkpt>
      <trkpt lat="47.08001" lon="-0.85286">
        <ele>111</ele>
        <time>2016-10-26T15:01:31.009Z</time>
      </trkpt>
      <trkpt lat="47.08004" lon="-0.85284">
        <ele>111</ele>
        <time>2016-10-26T15:01:34.009Z</time>
      </trkpt>
      <trkpt lat="47.08008" lon="-0.85282">
        <ele>111</ele>
        <time>2016-10-26T15:01:38.009Z</time>
      </trkpt>
      <trkpt lat="47.08012" lon="-0.8528">
        <ele>110.59204363636</ele>
        <time>2016-10-26T15:01:42.009Z</time>
      </trkpt>
      <trkpt lat="47.08017" lon="-0.85278">
        <ele>110</ele>
        <time>2016-10-26T15:01:46.009Z</time>
      </trkpt>
      <trkpt lat="47.08021" lon="-0.85275">
        <ele>110</ele>
        <time>2016-10-26T15:01:50.009Z</time>
      </trkpt>
      <trkpt lat="47.08025" lon="-0.85273">
        <ele>111</ele>
        <time>2016-10-26T15:01:54.009Z</time>
      </trkpt>
      <trkpt lat="47.08029" lon="-0.8527">
        <ele>111</ele>
        <time>2016-10-26T15:01:57.009Z</time>
      </trkpt>
      <trkpt lat="47.08032" lon="-0.85268">
        <ele>111</ele>
        <time>2016-10-26T15:02:00.009Z</time>
      </trkpt>
      <trkpt lat="47.08036" lon="-0.85266">
        <ele>110</ele>
        <time>2016-10-26T15:02:03.009Z</time>
      </trkpt>
      <trkpt lat="47.08039" lon="-0.85263">
        <ele>110</ele>
        <time>2016-10-26T15:02:06.009Z</time>
      </trkpt>
      <trkpt lat="47.08043" lon="-0.85261">
        <ele>110</ele>
        <time>2016-10-26T15:02:09.009Z</time>
      </trkpt>
      <trkpt lat="47.08046" lon="-0.8526">
        <ele>110</ele>
        <time>2016-10-26T15:02:12.009Z</time>
      </trkpt>
      <trkpt lat="47.08051" lon="-0.85258">
        <ele>110</ele>
        <time>2016-10-26T15:02:16.009Z</time>
      </trkpt>
      <trkpt lat="47.08054" lon="-0.85259">
        <ele>110</ele>
        <time>2016-10-26T15:02:19.009Z</time>
      </trkpt>
      <trkpt lat="47.08059" lon="-0.8526">
        <ele>110</ele>
        <time>2016-10-26T15:02:23.009Z</time>
      </trkpt>
      <trkpt lat="47.08063" lon="-0.85261">
        <ele>110</ele>
        <time>2016-10-26T15:02:27.009Z</time>
      </trkpt>
      <trkpt lat="47.08067" lon="-0.85263">
        <ele>110</ele>
        <time>2016-10-26T15:02:31.009Z</time>
      </trkpt>
      <trkpt lat="47.08072" lon="-0.85265">
        <ele>110</ele>
        <time>2016-10-26T15:02:35.009Z</time>
      </trkpt>
      <trkpt lat="47.08076" lon="-0.85266">
        <ele>110</ele>
        <time>2016-10-26T15:02:39.009Z</time>
      </trkpt>
      <trkpt lat="47.08081" lon="-0.85267">
        <ele>109</ele>
        <time>2016-10-26T15:02:43.009Z</time>
      </trkpt>
      <trkpt lat="47.08085" lon="-0.85269">
        <ele>109</ele>
        <time>2016-10-26T15:02:47.009Z</time>
      </trkpt>
      <trkpt lat="47.0809" lon="-0.8527">
        <ele>109</ele>
        <time>2016-10-26T15:02:51.009Z</time>
      </trkpt>
      <trkpt lat="47.08094" lon="-0.85271">
        <ele>109</ele>
        <time>2016-10-26T15:02:55.009Z</time>
      </trkpt>
      <trkpt lat="47.08099" lon="-0.85273">
        <ele>109</ele>
        <time>2016-10-26T15:02:59.009Z</time>
      </trkpt>
      <trkpt lat="47.08103" lon="-0.85273">
        <ele>109</ele>
        <time>2016-10-26T15:03:03.009Z</time>
      </trkpt>
      <trkpt lat="47.08107" lon="-0.85274">
        <ele>109</ele>
        <time>2016-10-26T15:03:06.009Z</time>
      </trkpt>
      <trkpt lat="47.08111" lon="-0.85276">
        <ele>109</ele>
        <time>2016-10-26T15:03:10.009Z</time>
      </trkpt>
      <trkpt lat="47.08115" lon="-0.85276">
        <ele>109</ele>
        <time>2016-10-26T15:03:13.009Z</time>
      </trkpt>
      <trkpt lat="47.08119" lon="-0.85277">
        <ele>109</ele>
        <time>2016-10-26T15:03:16.009Z</time>
      </trkpt>
      <trkpt lat="47.08123" lon="-0.85279">
        <ele>109</ele>
        <time>2016-10-26T15:03:20.009Z</time>
      </trkpt>
      <trkpt lat="47.08127" lon="-0.8528">
        <ele>109</ele>
        <time>2016-10-26T15:03:23.009Z</time>
      </trkpt>
      <trkpt lat="47.08131" lon="-0.85279">
        <ele>109</ele>
        <time>2016-10-26T15:03:26.009Z</time>
      </trkpt>
      <trkpt lat="47.08135" lon="-0.85279">
        <ele>109</ele>
        <time>2016-10-26T15:03:29.009Z</time>
      </trkpt>
      <trkpt lat="47.08139" lon="-0.8528">
        <ele>109</ele>
        <time>2016-10-26T15:03:32.009Z</time>
      </trkpt>
      <trkpt lat="47.08143" lon="-0.85281">
        <ele>109</ele>
        <time>2016-10-26T15:03:35.009Z</time>
      </trkpt>
      <trkpt lat="47.08146" lon="-0.85283">
        <ele>109</ele>
        <time>2016-10-26T15:03:38.009Z</time>
      </trkpt>
      <trkpt lat="47.0815" lon="-0.85284">
        <ele>109</ele>
        <time>2016-10-26T15:03:41.009Z</time>
      </trkpt>
      <trkpt lat="47.08154" lon="-0.85285">
        <ele>109</ele>
        <time>2016-10-26T15:03:44.009Z</time>
      </trkpt>
      <trkpt lat="47.08159" lon="-0.85286">
        <ele>109</ele>
        <time>2016-10-26T15:03:48.009Z</time>
      </trkpt>
      <trkpt lat="47.08162" lon="-0.85287">
        <ele>109</ele>
        <time>2016-10-26T15:03:51.009Z</time>
      </trkpt>
      <trkpt lat="47.08166" lon="-0.85288">
        <ele>110</ele>
        <time>2016-10-26T15:03:54.009Z</time>
      </trkpt>
      <trkpt lat="47.0817" lon="-0.85287">
        <ele>110</ele>
        <time>2016-10-26T15:03:57.009Z</time>
      </trkpt>
      <trkpt lat="47.08173" lon="-0.85285">
        <ele>110</ele>
        <time>2016-10-26T15:04:00.009Z</time>
      </trkpt>
      <trkpt lat="47.08174" lon="-0.8528">
        <ele>110</ele>
        <time>2016-10-26T15:04:03.009Z</time>
      </trkpt>
      <trkpt lat="47.08175" lon="-0.85274">
        <ele>110</ele>
        <time>2016-10-26T15:04:07.009Z</time>
      </trkpt>
      <trkpt lat="47.08176" lon="-0.85268">
        <ele>110</ele>
        <time>2016-10-26T15:04:10.009Z</time>
      </trkpt>
      <trkpt lat="47.08177" lon="-0.85262">
        <ele>110</ele>
        <time>2016-10-26T15:04:14.009Z</time>
      </trkpt>
      <trkpt lat="47.08178" lon="-0.85257">
        <ele>110</ele>
        <time>2016-10-26T15:04:18.009Z</time>
      </trkpt>
      <trkpt lat="47.08179" lon="-0.8525">
        <ele>110</ele>
        <time>2016-10-26T15:04:22.009Z</time>
      </trkpt>
      <trkpt lat="47.0818" lon="-0.85244">
        <ele>110</ele>
        <time>2016-10-26T15:04:26.009Z</time>
      </trkpt>
      <trkpt lat="47.08179" lon="-0.85239">
        <ele>110</ele>
        <time>2016-10-26T15:04:29.009Z</time>
      </trkpt>
      <trkpt lat="47.08179" lon="-0.85232">
        <ele>109</ele>
        <time>2016-10-26T15:04:33.009Z</time>
      </trkpt>
      <trkpt lat="47.0818" lon="-0.85227">
        <ele>109</ele>
        <time>2016-10-26T15:04:36.009Z</time>
      </trkpt>
      <trkpt lat="47.08181" lon="-0.85221">
        <ele>109</ele>
        <time>2016-10-26T15:04:39.009Z</time>
      </trkpt>
      <trkpt lat="47.08181" lon="-0.85215">
        <ele>109</ele>
        <time>2016-10-26T15:04:42.009Z</time>
      </trkpt>
      <trkpt lat="47.08181" lon="-0.85209">
        <ele>109</ele>
        <time>2016-10-26T15:04:46.009Z</time>
      </trkpt>
      <trkpt lat="47.08182" lon="-0.85204">
        <ele>109</ele>
        <time>2016-10-26T15:04:49.009Z</time>
      </trkpt>
      <trkpt lat="47.08183" lon="-0.85198">
        <ele>109</ele>
        <time>2016-10-26T15:04:53.009Z</time>
      </trkpt>
      <trkpt lat="47.08183" lon="-0.85192">
        <ele>109</ele>
        <time>2016-10-26T15:04:57.009Z</time>
      </trkpt>
      <trkpt lat="47.08185" lon="-0.85187">
        <ele>109</ele>
        <time>2016-10-26T15:05:02.009Z</time>
      </trkpt>
      <trkpt lat="47.08187" lon="-0.85182">
        <ele>109</ele>
        <time>2016-10-26T15:05:05.009Z</time>
      </trkpt>
      <trkpt lat="47.08191" lon="-0.85178">
        <ele>109</ele>
        <time>2016-10-26T15:05:08.009Z</time>
      </trkpt>
      <trkpt lat="47.08195" lon="-0.85178">
        <ele>109</ele>
        <time>2016-10-26T15:05:12.009Z</time>
      </trkpt>
      <trkpt lat="47.08198" lon="-0.85177">
        <ele>109</ele>
        <time>2016-10-26T15:05:15.009Z</time>
      </trkpt>
      <trkpt lat="47.08202" lon="-0.85177">
        <ele>109</ele>
        <time>2016-10-26T15:05:21.009Z</time>
      </trkpt>
      <trkpt lat="47.08211" lon="-0.85177">
        <ele>108</ele>
        <time>2016-10-26T15:05:28.009Z</time>
      </trkpt>
      <trkpt lat="47.08215" lon="-0.85177">
        <ele>108</ele>
        <time>2016-10-26T15:05:31.009Z</time>
      </trkpt>
      <trkpt lat="47.08219" lon="-0.85177">
        <ele>108</ele>
        <time>2016-10-26T15:05:34.009Z</time>
      </trkpt>
      <trkpt lat="47.08223" lon="-0.85176">
        <ele>108</ele>
        <time>2016-10-26T15:05:37.009Z</time>
      </trkpt>
      <trkpt lat="47.08227" lon="-0.85175">
        <ele>108</ele>
        <time>2016-10-26T15:05:40.009Z</time>
      </trkpt>
      <trkpt lat="47.08232" lon="-0.85172">
        <ele>108</ele>
        <time>2016-10-26T15:05:44.009Z</time>
      </trkpt>
      <trkpt lat="47.08236" lon="-0.8517">
        <ele>108</ele>
        <time>2016-10-26T15:05:48.009Z</time>
      </trkpt>
      <trkpt lat="47.0824" lon="-0.85168">
        <ele>108</ele>
        <time>2016-10-26T15:05:52.009Z</time>
      </trkpt>
      <trkpt lat="47.08243" lon="-0.85165">
        <ele>108</ele>
        <time>2016-10-26T15:05:57.009Z</time>
      </trkpt>
      <trkpt lat="47.08247" lon="-0.85165">
        <ele>108.41652197142</ele>
        <time>2016-10-26T15:06:01.009Z</time>
      </trkpt>
      <trkpt lat="47.08252" lon="-0.85161">
        <ele>109</ele>
        <time>2016-10-26T15:06:05.009Z</time>
      </trkpt>
      <trkpt lat="47.08262" lon="-0.8515">
        <ele>109</ele>
        <time>2016-10-26T15:06:15.009Z</time>
      </trkpt>
      <trkpt lat="47.08265" lon="-0.85147">
        <ele>109</ele>
        <time>2016-10-26T15:06:17.009Z</time>
      </trkpt>
      <trkpt lat="47.08267" lon="-0.85142">
        <ele>109</ele>
        <time>2016-10-26T15:06:20.009Z</time>
      </trkpt>
      <trkpt lat="47.0827" lon="-0.85138">
        <ele>109</ele>
        <time>2016-10-26T15:06:23.009Z</time>
      </trkpt>
      <trkpt lat="47.08273" lon="-0.85133">
        <ele>109</ele>
        <time>2016-10-26T15:06:26.009Z</time>
      </trkpt>
      <trkpt lat="47.08276" lon="-0.85129">
        <ele>109</ele>
        <time>2016-10-26T15:06:29.009Z</time>
      </trkpt>
      <trkpt lat="47.08279" lon="-0.85125">
        <ele>109</ele>
        <time>2016-10-26T15:06:33.009Z</time>
      </trkpt>
      <trkpt lat="47.08282" lon="-0.8512">
        <ele>109</ele>
        <time>2016-10-26T15:06:36.009Z</time>
      </trkpt>
      <trkpt lat="47.08284" lon="-0.85117">
        <ele>109</ele>
        <time>2016-10-26T15:06:39.009Z</time>
      </trkpt>
      <trkpt lat="47.08287" lon="-0.85113">
        <ele>109</ele>
        <time>2016-10-26T15:06:42.009Z</time>
      </trkpt>
      <trkpt lat="47.0829" lon="-0.85109">
        <ele>109</ele>
        <time>2016-10-26T15:06:45.009Z</time>
      </trkpt>
      <trkpt lat="47.08292" lon="-0.85105">
        <ele>109</ele>
        <time>2016-10-26T15:06:48.009Z</time>
      </trkpt>
      <trkpt lat="47.08294" lon="-0.85099">
        <ele>109</ele>
        <time>2016-10-26T15:06:52.009Z</time>
      </trkpt>
      <trkpt lat="47.08297" lon="-0.85094">
        <ele>109</ele>
        <time>2016-10-26T15:06:55.009Z</time>
      </trkpt>
      <trkpt lat="47.083" lon="-0.85089">
        <ele>109</ele>
        <time>2016-10-26T15:06:59.009Z</time>
      </trkpt>
      <trkpt lat="47.08303" lon="-0.85084">
        <ele>109</ele>
        <time>2016-10-26T15:07:03.009Z</time>
      </trkpt>
      <trkpt lat="47.08306" lon="-0.85078">
        <ele>109</ele>
        <time>2016-10-26T15:07:07.009Z</time>
      </trkpt>
      <trkpt lat="47.08307" lon="-0.85073">
        <ele>109</ele>
        <time>2016-10-26T15:07:10.009Z</time>
      </trkpt>
      <trkpt lat="47.0831" lon="-0.85068">
        <ele>109</ele>
        <time>2016-10-26T15:07:14.009Z</time>
      </trkpt>
      <trkpt lat="47.08313" lon="-0.85063">
        <ele>109</ele>
        <time>2016-10-26T15:07:17.009Z</time>
      </trkpt>
      <trkpt lat="47.08315" lon="-0.85058">
        <ele>109</ele>
        <time>2016-10-26T15:07:21.009Z</time>
      </trkpt>
      <trkpt lat="47.08318" lon="-0.85053">
        <ele>109</ele>
        <time>2016-10-26T15:07:25.009Z</time>
      </trkpt>
      <trkpt lat="47.08321" lon="-0.85049">
        <ele>109</ele>
        <time>2016-10-26T15:07:28.009Z</time>
      </trkpt>
      <trkpt lat="47.08323" lon="-0.85043">
        <ele>109</ele>
        <time>2016-10-26T15:07:32.009Z</time>
      </trkpt>
      <trkpt lat="47.08326" lon="-0.85038">
        <ele>109</ele>
        <time>2016-10-26T15:07:36.009Z</time>
      </trkpt>
      <trkpt lat="47.08329" lon="-0.85033">
        <ele>109</ele>
        <time>2016-10-26T15:07:40.009Z</time>
      </trkpt>
      <trkpt lat="47.08331" lon="-0.85029">
        <ele>109</ele>
        <time>2016-10-26T15:07:43.009Z</time>
      </trkpt>
      <trkpt lat="47.08334" lon="-0.85026">
        <ele>109</ele>
        <time>2016-10-26T15:07:46.009Z</time>
      </trkpt>
      <trkpt lat="47.08338" lon="-0.85023">
        <ele>109</ele>
        <time>2016-10-26T15:07:50.009Z</time>
      </trkpt>
      <trkpt lat="47.08341" lon="-0.85025">
        <ele>109</ele>
        <time>2016-10-26T15:07:53.009Z</time>
      </trkpt>
      <trkpt lat="47.08345" lon="-0.85028">
        <ele>109</ele>
        <time>2016-10-26T15:07:57.009Z</time>
      </trkpt>
      <trkpt lat="47.08348" lon="-0.85032">
        <ele>109</ele>
        <time>2016-10-26T15:08:00.009Z</time>
      </trkpt>
      <trkpt lat="47.0835" lon="-0.85037">
        <ele>109</ele>
        <time>2016-10-26T15:08:04.009Z</time>
      </trkpt>
      <trkpt lat="47.08353" lon="-0.85041">
        <ele>109</ele>
        <time>2016-10-26T15:08:08.009Z</time>
      </trkpt>
      <trkpt lat="47.08356" lon="-0.85045">
        <ele>109</ele>
        <time>2016-10-26T15:08:11.009Z</time>
      </trkpt>
      <trkpt lat="47.08359" lon="-0.8505">
        <ele>109</ele>
        <time>2016-10-26T15:08:15.009Z</time>
      </trkpt>
      <trkpt lat="47.08362" lon="-0.85054">
        <ele>109</ele>
        <time>2016-10-26T15:08:20.009Z</time>
      </trkpt>
      <trkpt lat="47.08366" lon="-0.85058">
        <ele>109</ele>
        <time>2016-10-26T15:08:24.009Z</time>
      </trkpt>
      <trkpt lat="47.08369" lon="-0.85063">
        <ele>109</ele>
        <time>2016-10-26T15:08:28.009Z</time>
      </trkpt>
      <trkpt lat="47.08371" lon="-0.85067">
        <ele>109</ele>
        <time>2016-10-26T15:08:32.009Z</time>
      </trkpt>
      <trkpt lat="47.08374" lon="-0.85072">
        <ele>109</ele>
        <time>2016-10-26T15:08:36.009Z</time>
      </trkpt>
      <trkpt lat="47.08377" lon="-0.85077">
        <ele>109</ele>
        <time>2016-10-26T15:08:40.009Z</time>
      </trkpt>
      <trkpt lat="47.08379" lon="-0.8508">
        <ele>109</ele>
        <time>2016-10-26T15:08:43.009Z</time>
      </trkpt>
      <trkpt lat="47.08383" lon="-0.85085">
        <ele>109</ele>
        <time>2016-10-26T15:08:47.009Z</time>
      </trkpt>
      <trkpt lat="47.08386" lon="-0.8509">
        <ele>109</ele>
        <time>2016-10-26T15:08:51.009Z</time>
      </trkpt>
      <trkpt lat="47.0839" lon="-0.85094">
        <ele>109</ele>
        <time>2016-10-26T15:08:55.009Z</time>
      </trkpt>
      <trkpt lat="47.08393" lon="-0.85099">
        <ele>109</ele>
        <time>2016-10-26T15:08:59.009Z</time>
      </trkpt>
      <trkpt lat="47.08396" lon="-0.85103">
        <ele>109</ele>
        <time>2016-10-26T15:09:03.009Z</time>
      </trkpt>
      <trkpt lat="47.08399" lon="-0.85107">
        <ele>109</ele>
        <time>2016-10-26T15:09:06.009Z</time>
      </trkpt>
      <trkpt lat="47.08402" lon="-0.8511">
        <ele>109</ele>
        <time>2016-10-26T15:09:09.009Z</time>
      </trkpt>
      <trkpt lat="47.08405" lon="-0.85114">
        <ele>109</ele>
        <time>2016-10-26T15:09:12.009Z</time>
      </trkpt>
      <trkpt lat="47.08409" lon="-0.85118">
        <ele>109</ele>
        <time>2016-10-26T15:09:16.009Z</time>
      </trkpt>
      <trkpt lat="47.08412" lon="-0.85122">
        <ele>109</ele>
        <time>2016-10-26T15:09:20.009Z</time>
      </trkpt>
      <trkpt lat="47.08415" lon="-0.85126">
        <ele>109</ele>
        <time>2016-10-26T15:09:23.009Z</time>
      </trkpt>
      <trkpt lat="47.08417" lon="-0.8513">
        <ele>109</ele>
        <time>2016-10-26T15:09:26.009Z</time>
      </trkpt>
      <trkpt lat="47.0842" lon="-0.85134">
        <ele>109</ele>
        <time>2016-10-26T15:09:29.009Z</time>
      </trkpt>
      <trkpt lat="47.08423" lon="-0.85138">
        <ele>109</ele>
        <time>2016-10-26T15:09:32.009Z</time>
      </trkpt>
      <trkpt lat="47.08426" lon="-0.85143">
        <ele>109</ele>
        <time>2016-10-26T15:09:36.009Z</time>
      </trkpt>
      <trkpt lat="47.08429" lon="-0.85147">
        <ele>109</ele>
        <time>2016-10-26T15:09:40.009Z</time>
      </trkpt>
      <trkpt lat="47.08432" lon="-0.85153">
        <ele>109</ele>
        <time>2016-10-26T15:09:44.009Z</time>
      </trkpt>
      <trkpt lat="47.08435" lon="-0.85158">
        <ele>109</ele>
        <time>2016-10-26T15:09:48.009Z</time>
      </trkpt>
      <trkpt lat="47.08437" lon="-0.85162">
        <ele>109</ele>
        <time>2016-10-26T15:09:51.009Z</time>
      </trkpt>
      <trkpt lat="47.0844" lon="-0.85167">
        <ele>109</ele>
        <time>2016-10-26T15:09:55.009Z</time>
      </trkpt>
      <trkpt lat="47.08443" lon="-0.85171">
        <ele>109</ele>
        <time>2016-10-26T15:09:59.009Z</time>
      </trkpt>
      <trkpt lat="47.08446" lon="-0.85176">
        <ele>109</ele>
        <time>2016-10-26T15:10:03.009Z</time>
      </trkpt>
      <trkpt lat="47.08448" lon="-0.85181">
        <ele>109</ele>
        <time>2016-10-26T15:10:06.009Z</time>
      </trkpt>
      <trkpt lat="47.08449" lon="-0.85185">
        <ele>109</ele>
        <time>2016-10-26T15:10:09.009Z</time>
      </trkpt>
      <trkpt lat="47.08452" lon="-0.85191">
        <ele>109</ele>
        <time>2016-10-26T15:10:13.009Z</time>
      </trkpt>
      <trkpt lat="47.08455" lon="-0.85196">
        <ele>109</ele>
        <time>2016-10-26T15:10:16.009Z</time>
      </trkpt>
      <trkpt lat="47.08457" lon="-0.852">
        <ele>109</ele>
        <time>2016-10-26T15:10:19.009Z</time>
      </trkpt>
      <trkpt lat="47.0846" lon="-0.85205">
        <ele>109</ele>
        <time>2016-10-26T15:10:23.009Z</time>
      </trkpt>
      <trkpt lat="47.08462" lon="-0.85211">
        <ele>109</ele>
        <time>2016-10-26T15:10:27.009Z</time>
      </trkpt>
      <trkpt lat="47.08464" lon="-0.85215">
        <ele>109</ele>
        <time>2016-10-26T15:10:30.009Z</time>
      </trkpt>
      <trkpt lat="47.08467" lon="-0.85221">
        <ele>109</ele>
        <time>2016-10-26T15:10:34.009Z</time>
      </trkpt>
      <trkpt lat="47.0847" lon="-0.85226">
        <ele>109</ele>
        <time>2016-10-26T15:10:38.009Z</time>
      </trkpt>
      <trkpt lat="47.08472" lon="-0.85231">
        <ele>109</ele>
        <time>2016-10-26T15:10:41.009Z</time>
      </trkpt>
      <trkpt lat="47.08475" lon="-0.85236">
        <ele>109</ele>
        <time>2016-10-26T15:10:45.009Z</time>
      </trkpt>
      <trkpt lat="47.08477" lon="-0.85241">
        <ele>109</ele>
        <time>2016-10-26T15:10:48.009Z</time>
      </trkpt>
      <trkpt lat="47.0848" lon="-0.85246">
        <ele>109</ele>
        <time>2016-10-26T15:10:52.009Z</time>
      </trkpt>
      <trkpt lat="47.08483" lon="-0.85251">
        <ele>109</ele>
        <time>2016-10-26T15:10:56.009Z</time>
      </trkpt>
      <trkpt lat="47.08486" lon="-0.85256">
        <ele>109</ele>
        <time>2016-10-26T15:11:00.009Z</time>
      </trkpt>
      <trkpt lat="47.08488" lon="-0.85262">
        <ele>109</ele>
        <time>2016-10-26T15:11:04.009Z</time>
      </trkpt>
      <trkpt lat="47.08491" lon="-0.85267">
        <ele>109</ele>
        <time>2016-10-26T15:11:07.009Z</time>
      </trkpt>
      <trkpt lat="47.08493" lon="-0.85271">
        <ele>109</ele>
        <time>2016-10-26T15:11:10.009Z</time>
      </trkpt>
      <trkpt lat="47.08496" lon="-0.85276">
        <ele>109.46960646521</ele>
        <time>2016-10-26T15:11:14.009Z</time>
      </trkpt>
      <trkpt lat="47.08499" lon="-0.85282">
        <ele>110</ele>
        <time>2016-10-26T15:11:19.009Z</time>
      </trkpt>
      <trkpt lat="47.08502" lon="-0.85287">
        <ele>110</ele>
        <time>2016-10-26T15:11:23.009Z</time>
      </trkpt>
      <trkpt lat="47.08504" lon="-0.85292">
        <ele>110</ele>
        <time>2016-10-26T15:11:26.009Z</time>
      </trkpt>
      <trkpt lat="47.08506" lon="-0.85296">
        <ele>110</ele>
        <time>2016-10-26T15:11:29.009Z</time>
      </trkpt>
      <trkpt lat="47.08509" lon="-0.85301">
        <ele>110</ele>
        <time>2016-10-26T15:11:32.009Z</time>
      </trkpt>
      <trkpt lat="47.08511" lon="-0.85306">
        <ele>110</ele>
        <time>2016-10-26T15:11:35.009Z</time>
      </trkpt>
      <trkpt lat="47.08513" lon="-0.85311">
        <ele>110</ele>
        <time>2016-10-26T15:11:38.009Z</time>
      </trkpt>
      <trkpt lat="47.08515" lon="-0.85316">
        <ele>110</ele>
        <time>2016-10-26T15:11:41.009Z</time>
      </trkpt>
      <trkpt lat="47.08518" lon="-0.8532">
        <ele>110</ele>
        <time>2016-10-26T15:11:46.009Z</time>
      </trkpt>
      <trkpt lat="47.08521" lon="-0.85325">
        <ele>110</ele>
        <time>2016-10-26T15:11:52.009Z</time>
      </trkpt>
      <trkpt lat="47.08523" lon="-0.85329">
        <ele>110</ele>
        <time>2016-10-26T15:11:55.009Z</time>
      </trkpt>
      <trkpt lat="47.08526" lon="-0.85335">
        <ele>110</ele>
        <time>2016-10-26T15:11:59.009Z</time>
      </trkpt>
      <trkpt lat="47.08529" lon="-0.8534">
        <ele>110</ele>
        <time>2016-10-26T15:12:03.009Z</time>
      </trkpt>
      <trkpt lat="47.08531" lon="-0.85345">
        <ele>110</ele>
        <time>2016-10-26T15:12:06.009Z</time>
      </trkpt>
      <trkpt lat="47.08534" lon="-0.85349">
        <ele>110</ele>
        <time>2016-10-26T15:12:09.009Z</time>
      </trkpt>
      <trkpt lat="47.08536" lon="-0.85352">
        <ele>110</ele>
        <time>2016-10-26T15:12:12.009Z</time>
      </trkpt>
      <trkpt lat="47.08538" lon="-0.85357">
        <ele>110</ele>
        <time>2016-10-26T15:12:16.009Z</time>
      </trkpt>
      <trkpt lat="47.08541" lon="-0.85362">
        <ele>110</ele>
        <time>2016-10-26T15:12:20.009Z</time>
      </trkpt>
      <trkpt lat="47.08543" lon="-0.85366">
        <ele>110</ele>
        <time>2016-10-26T15:12:23.009Z</time>
      </trkpt>
      <trkpt lat="47.08546" lon="-0.85372">
        <ele>110</ele>
        <time>2016-10-26T15:12:27.009Z</time>
      </trkpt>
      <trkpt lat="47.08548" lon="-0.85376">
        <ele>110</ele>
        <time>2016-10-26T15:12:30.009Z</time>
      </trkpt>
      <trkpt lat="47.08551" lon="-0.85382">
        <ele>110</ele>
        <time>2016-10-26T15:12:34.009Z</time>
      </trkpt>
      <trkpt lat="47.08554" lon="-0.85387">
        <ele>110</ele>
        <time>2016-10-26T15:12:39.009Z</time>
      </trkpt>
      <trkpt lat="47.08557" lon="-0.85391">
        <ele>110</ele>
        <time>2016-10-26T15:12:43.009Z</time>
      </trkpt>
      <trkpt lat="47.08559" lon="-0.85395">
        <ele>110</ele>
        <time>2016-10-26T15:12:46.009Z</time>
      </trkpt>
      <trkpt lat="47.08563" lon="-0.85401">
        <ele>110</ele>
        <time>2016-10-26T15:12:50.009Z</time>
      </trkpt>
      <trkpt lat="47.08565" lon="-0.85405">
        <ele>110</ele>
        <time>2016-10-26T15:12:53.009Z</time>
      </trkpt>
      <trkpt lat="47.08568" lon="-0.85411">
        <ele>111</ele>
        <time>2016-10-26T15:12:57.009Z</time>
      </trkpt>
      <trkpt lat="47.08571" lon="-0.85417">
        <ele>111</ele>
        <time>2016-10-26T15:13:00.009Z</time>
      </trkpt>
      <trkpt lat="47.08573" lon="-0.85422">
        <ele>111</ele>
        <time>2016-10-26T15:13:03.009Z</time>
      </trkpt>
      <trkpt lat="47.08575" lon="-0.85426">
        <ele>111</ele>
        <time>2016-10-26T15:13:06.009Z</time>
      </trkpt>
      <trkpt lat="47.08577" lon="-0.85431">
        <ele>111</ele>
        <time>2016-10-26T15:13:09.009Z</time>
      </trkpt>
      <trkpt lat="47.0858" lon="-0.85435">
        <ele>111</ele>
        <time>2016-10-26T15:13:12.009Z</time>
      </trkpt>
      <trkpt lat="47.08582" lon="-0.8544">
        <ele>111</ele>
        <time>2016-10-26T15:13:15.009Z</time>
      </trkpt>
      <trkpt lat="47.08584" lon="-0.85445">
        <ele>111</ele>
        <time>2016-10-26T15:13:19.009Z</time>
      </trkpt>
      <trkpt lat="47.08587" lon="-0.8545">
        <ele>111</ele>
        <time>2016-10-26T15:13:22.009Z</time>
      </trkpt>
      <trkpt lat="47.0859" lon="-0.85453">
        <ele>111</ele>
        <time>2016-10-26T15:13:25.009Z</time>
      </trkpt>
      <trkpt lat="47.08592" lon="-0.85459">
        <ele>111</ele>
        <time>2016-10-26T15:13:28.009Z</time>
      </trkpt>
      <trkpt lat="47.08595" lon="-0.85464">
        <ele>111</ele>
        <time>2016-10-26T15:13:31.009Z</time>
      </trkpt>
      <trkpt lat="47.08597" lon="-0.85469">
        <ele>111</ele>
        <time>2016-10-26T15:13:34.009Z</time>
      </trkpt>
      <trkpt lat="47.086" lon="-0.85475">
        <ele>111</ele>
        <time>2016-10-26T15:13:38.009Z</time>
      </trkpt>
      <trkpt lat="47.08603" lon="-0.8548">
        <ele>111</ele>
        <time>2016-10-26T15:13:42.009Z</time>
      </trkpt>
      <trkpt lat="47.08605" lon="-0.85485">
        <ele>111</ele>
        <time>2016-10-26T15:13:46.009Z</time>
      </trkpt>
      <trkpt lat="47.08608" lon="-0.8549">
        <ele>111</ele>
        <time>2016-10-26T15:13:50.009Z</time>
      </trkpt>
      <trkpt lat="47.08612" lon="-0.85495">
        <ele>111</ele>
        <time>2016-10-26T15:13:54.009Z</time>
      </trkpt>
      <trkpt lat="47.08615" lon="-0.85497">
        <ele>111</ele>
        <time>2016-10-26T15:13:57.009Z</time>
      </trkpt>
      <trkpt lat="47.08619" lon="-0.85496">
        <ele>111</ele>
        <time>2016-10-26T15:14:00.009Z</time>
      </trkpt>
      <trkpt lat="47.08623" lon="-0.85495">
        <ele>111</ele>
        <time>2016-10-26T15:14:03.009Z</time>
      </trkpt>
      <trkpt lat="47.08626" lon="-0.85493">
        <ele>111</ele>
        <time>2016-10-26T15:14:06.009Z</time>
      </trkpt>
      <trkpt lat="47.0863" lon="-0.85489">
        <ele>111</ele>
        <time>2016-10-26T15:14:10.009Z</time>
      </trkpt>
      <trkpt lat="47.08633" lon="-0.85488">
        <ele>111</ele>
        <time>2016-10-26T15:14:14.009Z</time>
      </trkpt>
      <trkpt lat="47.08638" lon="-0.85485">
        <ele>111</ele>
        <time>2016-10-26T15:14:18.009Z</time>
      </trkpt>
      <trkpt lat="47.08641" lon="-0.85483">
        <ele>111</ele>
        <time>2016-10-26T15:14:21.009Z</time>
      </trkpt>
      <trkpt lat="47.08645" lon="-0.85479">
        <ele>111</ele>
        <time>2016-10-26T15:14:25.009Z</time>
      </trkpt>
      <trkpt lat="47.08649" lon="-0.85475">
        <ele>111</ele>
        <time>2016-10-26T15:14:29.009Z</time>
      </trkpt>
      <trkpt lat="47.08652" lon="-0.85472">
        <ele>111</ele>
        <time>2016-10-26T15:14:33.009Z</time>
      </trkpt>
      <trkpt lat="47.08656" lon="-0.85469">
        <ele>111</ele>
        <time>2016-10-26T15:14:37.009Z</time>
      </trkpt>
      <trkpt lat="47.0866" lon="-0.85466">
        <ele>111</ele>
        <time>2016-10-26T15:14:40.009Z</time>
      </trkpt>
      <trkpt lat="47.08665" lon="-0.85464">
        <ele>111</ele>
        <time>2016-10-26T15:14:44.009Z</time>
      </trkpt>
      <trkpt lat="47.08668" lon="-0.85463">
        <ele>111</ele>
        <time>2016-10-26T15:14:47.009Z</time>
      </trkpt>
      <trkpt lat="47.08672" lon="-0.85461">
        <ele>111</ele>
        <time>2016-10-26T15:14:51.009Z</time>
      </trkpt>
      <trkpt lat="47.08675" lon="-0.85458">
        <ele>111</ele>
        <time>2016-10-26T15:14:55.009Z</time>
      </trkpt>
      <trkpt lat="47.08679" lon="-0.85456">
        <ele>111</ele>
        <time>2016-10-26T15:14:59.009Z</time>
      </trkpt>
      <trkpt lat="47.08682" lon="-0.85453">
        <ele>111</ele>
        <time>2016-10-26T15:15:03.009Z</time>
      </trkpt>
      <trkpt lat="47.08687" lon="-0.85449">
        <ele>111</ele>
        <time>2016-10-26T15:15:07.009Z</time>
      </trkpt>
      <trkpt lat="47.08691" lon="-0.85447">
        <ele>111</ele>
        <time>2016-10-26T15:15:11.009Z</time>
      </trkpt>
      <trkpt lat="47.08695" lon="-0.85445">
        <ele>111</ele>
        <time>2016-10-26T15:15:15.009Z</time>
      </trkpt>
      <trkpt lat="47.08699" lon="-0.85442">
        <ele>111</ele>
        <time>2016-10-26T15:15:21.009Z</time>
      </trkpt>
      <trkpt lat="47.08703" lon="-0.85439">
        <ele>111</ele>
        <time>2016-10-26T15:15:24.009Z</time>
      </trkpt>
      <trkpt lat="47.08707" lon="-0.85436">
        <ele>111</ele>
        <time>2016-10-26T15:15:27.009Z</time>
      </trkpt>
      <trkpt lat="47.08711" lon="-0.85435">
        <ele>111</ele>
        <time>2016-10-26T15:15:30.009Z</time>
      </trkpt>
      <trkpt lat="47.08714" lon="-0.85432">
        <ele>111</ele>
        <time>2016-10-26T15:15:33.009Z</time>
      </trkpt>
      <trkpt lat="47.08718" lon="-0.85429">
        <ele>111</ele>
        <time>2016-10-26T15:15:35.009Z</time>
      </trkpt>
      <trkpt lat="47.08721" lon="-0.85427">
        <ele>111</ele>
        <time>2016-10-26T15:15:38.009Z</time>
      </trkpt>
      <trkpt lat="47.08725" lon="-0.85425">
        <ele>111</ele>
        <time>2016-10-26T15:15:41.009Z</time>
      </trkpt>
      <trkpt lat="47.08729" lon="-0.85422">
        <ele>111</ele>
        <time>2016-10-26T15:15:44.009Z</time>
      </trkpt>
      <trkpt lat="47.08733" lon="-0.8542">
        <ele>111</ele>
        <time>2016-10-26T15:15:49.009Z</time>
      </trkpt>
      <trkpt lat="47.08737" lon="-0.85417">
        <ele>111</ele>
        <time>2016-10-26T15:15:53.009Z</time>
      </trkpt>
      <trkpt lat="47.0874" lon="-0.85414">
        <ele>111</ele>
        <time>2016-10-26T15:15:56.009Z</time>
      </trkpt>
      <trkpt lat="47.08744" lon="-0.85412">
        <ele>111</ele>
        <time>2016-10-26T15:15:59.009Z</time>
      </trkpt>
      <trkpt lat="47.08748" lon="-0.8541">
        <ele>111</ele>
        <time>2016-10-26T15:16:03.009Z</time>
      </trkpt>
      <trkpt lat="47.08752" lon="-0.85407">
        <ele>111</ele>
        <time>2016-10-26T15:16:07.009Z</time>
      </trkpt>
      <trkpt lat="47.08755" lon="-0.85405">
        <ele>111</ele>
        <time>2016-10-26T15:16:10.009Z</time>
      </trkpt>
      <trkpt lat="47.08759" lon="-0.85402">
        <ele>111</ele>
        <time>2016-10-26T15:16:14.009Z</time>
      </trkpt>
      <trkpt lat="47.08763" lon="-0.85399">
        <ele>111</ele>
        <time>2016-10-26T15:16:17.009Z</time>
      </trkpt>
      <trkpt lat="47.08766" lon="-0.85399">
        <ele>111</ele>
        <time>2016-10-26T15:16:20.009Z</time>
      </trkpt>
      <trkpt lat="47.08771" lon="-0.85396">
        <ele>111</ele>
        <time>2016-10-26T15:16:24.009Z</time>
      </trkpt>
      <trkpt lat="47.08774" lon="-0.85394">
        <ele>111</ele>
        <time>2016-10-26T15:16:28.009Z</time>
      </trkpt>
      <trkpt lat="47.08778" lon="-0.85392">
        <ele>109</ele>
        <time>2016-10-26T15:16:33.009Z</time>
      </trkpt>
      <trkpt lat="47.08782" lon="-0.85389">
        <ele>109</ele>
        <time>2016-10-26T15:16:37.009Z</time>
      </trkpt>
      <trkpt lat="47.08785" lon="-0.85387">
        <ele>109</ele>
        <time>2016-10-26T15:16:40.009Z</time>
      </trkpt>
      <trkpt lat="47.0879" lon="-0.85382">
        <ele>109</ele>
        <time>2016-10-26T15:16:43.009Z</time>
      </trkpt>
      <trkpt lat="47.08793" lon="-0.85379">
        <ele>109</ele>
        <time>2016-10-26T15:16:46.009Z</time>
      </trkpt>
      <trkpt lat="47.08796" lon="-0.85376">
        <ele>109</ele>
        <time>2016-10-26T15:16:49.009Z</time>
      </trkpt>
      <trkpt lat="47.088" lon="-0.85374">
        <ele>109</ele>
        <time>2016-10-26T15:16:52.009Z</time>
      </trkpt>
      <trkpt lat="47.08804" lon="-0.85372">
        <ele>109</ele>
        <time>2016-10-26T15:16:56.009Z</time>
      </trkpt>
      <trkpt lat="47.08808" lon="-0.85369">
        <ele>109</ele>
        <time>2016-10-26T15:17:00.009Z</time>
      </trkpt>
      <trkpt lat="47.08812" lon="-0.85366">
        <ele>109</ele>
        <time>2016-10-26T15:17:03.009Z</time>
      </trkpt>
      <trkpt lat="47.08817" lon="-0.85363">
        <ele>109</ele>
        <time>2016-10-26T15:17:06.009Z</time>
      </trkpt>
      <trkpt lat="47.0882" lon="-0.85361">
        <ele>109</ele>
        <time>2016-10-26T15:17:09.009Z</time>
      </trkpt>
      <trkpt lat="47.08823" lon="-0.85358">
        <ele>109</ele>
        <time>2016-10-26T15:17:12.009Z</time>
      </trkpt>
      <trkpt lat="47.08827" lon="-0.85356">
        <ele>109</ele>
        <time>2016-10-26T15:17:15.009Z</time>
      </trkpt>
      <trkpt lat="47.08831" lon="-0.85354">
        <ele>109</ele>
        <time>2016-10-26T15:17:18.009Z</time>
      </trkpt>
      <trkpt lat="47.08834" lon="-0.85353">
        <ele>109</ele>
        <time>2016-10-26T15:17:21.009Z</time>
      </trkpt>
      <trkpt lat="47.08838" lon="-0.8535">
        <ele>109</ele>
        <time>2016-10-26T15:17:25.009Z</time>
      </trkpt>
      <trkpt lat="47.08841" lon="-0.85349">
        <ele>109</ele>
        <time>2016-10-26T15:17:29.009Z</time>
      </trkpt>
      <trkpt lat="47.08845" lon="-0.85346">
        <ele>109</ele>
        <time>2016-10-26T15:17:32.009Z</time>
      </trkpt>
      <trkpt lat="47.08848" lon="-0.85344">
        <ele>109</ele>
        <time>2016-10-26T15:17:38.009Z</time>
      </trkpt>
      <trkpt lat="47.08853" lon="-0.85341">
        <ele>109</ele>
        <time>2016-10-26T15:17:41.009Z</time>
      </trkpt>
      <trkpt lat="47.08856" lon="-0.85338">
        <ele>109</ele>
        <time>2016-10-26T15:17:43.009Z</time>
      </trkpt>
      <trkpt lat="47.0886" lon="-0.85335">
        <ele>109</ele>
        <time>2016-10-26T15:17:45.009Z</time>
      </trkpt>
      <trkpt lat="47.08863" lon="-0.85332">
        <ele>109</ele>
        <time>2016-10-26T15:17:48.009Z</time>
      </trkpt>
      <trkpt lat="47.08867" lon="-0.85329">
        <ele>109</ele>
        <time>2016-10-26T15:17:51.009Z</time>
      </trkpt>
      <trkpt lat="47.08871" lon="-0.85326">
        <ele>109</ele>
        <time>2016-10-26T15:17:55.009Z</time>
      </trkpt>
      <trkpt lat="47.08874" lon="-0.85324">
        <ele>109</ele>
        <time>2016-10-26T15:17:59.009Z</time>
      </trkpt>
      <trkpt lat="47.08878" lon="-0.85321">
        <ele>109</ele>
        <time>2016-10-26T15:18:03.009Z</time>
      </trkpt>
      <trkpt lat="47.08882" lon="-0.85318">
        <ele>109</ele>
        <time>2016-10-26T15:18:08.009Z</time>
      </trkpt>
      <trkpt lat="47.08886" lon="-0.85315">
        <ele>109</ele>
        <time>2016-10-26T15:18:11.009Z</time>
      </trkpt>
      <trkpt lat="47.08889" lon="-0.85312">
        <ele>109</ele>
        <time>2016-10-26T15:18:14.009Z</time>
      </trkpt>
      <trkpt lat="47.08893" lon="-0.85309">
        <ele>109</ele>
        <time>2016-10-26T15:18:17.009Z</time>
      </trkpt>
      <trkpt lat="47.08896" lon="-0.85306">
        <ele>109</ele>
        <time>2016-10-26T15:18:20.009Z</time>
      </trkpt>
      <trkpt lat="47.089" lon="-0.85303">
        <ele>108</ele>
        <time>2016-10-26T15:18:24.009Z</time>
      </trkpt>
      <trkpt lat="47.08904" lon="-0.85299">
        <ele>108</ele>
        <time>2016-10-26T15:18:28.009Z</time>
      </trkpt>
      <trkpt lat="47.08907" lon="-0.85295">
        <ele>108</ele>
        <time>2016-10-26T15:18:32.009Z</time>
      </trkpt>
      <trkpt lat="47.08911" lon="-0.85292">
        <ele>108</ele>
        <time>2016-10-26T15:18:37.009Z</time>
      </trkpt>
      <trkpt lat="47.08915" lon="-0.85289">
        <ele>108</ele>
        <time>2016-10-26T15:18:41.009Z</time>
      </trkpt>
      <trkpt lat="47.08918" lon="-0.85287">
        <ele>108</ele>
        <time>2016-10-26T15:18:44.009Z</time>
      </trkpt>
      <trkpt lat="47.08922" lon="-0.85284">
        <ele>108</ele>
        <time>2016-10-26T15:18:47.009Z</time>
      </trkpt>
      <trkpt lat="47.08925" lon="-0.85281">
        <ele>108</ele>
        <time>2016-10-26T15:18:51.009Z</time>
      </trkpt>
      <trkpt lat="47.08929" lon="-0.85279">
        <ele>108</ele>
        <time>2016-10-26T15:18:55.009Z</time>
      </trkpt>
      <trkpt lat="47.08933" lon="-0.85275">
        <ele>108</ele>
        <time>2016-10-26T15:18:58.009Z</time>
      </trkpt>
      <trkpt lat="47.08936" lon="-0.85273">
        <ele>107.61294160166</ele>
        <time>2016-10-26T15:19:01.009Z</time>
      </trkpt>
      <trkpt lat="47.0894" lon="-0.85271">
        <ele>107</ele>
        <time>2016-10-26T15:19:04.009Z</time>
      </trkpt>
      <trkpt lat="47.08945" lon="-0.85272">
        <ele>107</ele>
        <time>2016-10-26T15:19:07.009Z</time>
      </trkpt>
      <trkpt lat="47.08948" lon="-0.85274">
        <ele>107</ele>
        <time>2016-10-26T15:19:10.009Z</time>
      </trkpt>
      <trkpt lat="47.08951" lon="-0.85278">
        <ele>107</ele>
        <time>2016-10-26T15:19:13.009Z</time>
      </trkpt>
      <trkpt lat="47.08953" lon="-0.85283">
        <ele>107</ele>
        <time>2016-10-26T15:19:16.009Z</time>
      </trkpt>
      <trkpt lat="47.08955" lon="-0.85288">
        <ele>107</ele>
        <time>2016-10-26T15:19:19.009Z</time>
      </trkpt>
      <trkpt lat="47.08958" lon="-0.85294">
        <ele>107</ele>
        <time>2016-10-26T15:19:22.009Z</time>
      </trkpt>
      <trkpt lat="47.0896" lon="-0.85299">
        <ele>107</ele>
        <time>2016-10-26T15:19:25.009Z</time>
      </trkpt>
      <trkpt lat="47.08962" lon="-0.85304">
        <ele>107</ele>
        <time>2016-10-26T15:19:28.009Z</time>
      </trkpt>
      <trkpt lat="47.08965" lon="-0.8531">
        <ele>107</ele>
        <time>2016-10-26T15:19:32.009Z</time>
      </trkpt>
      <trkpt lat="47.08967" lon="-0.85315">
        <ele>107</ele>
        <time>2016-10-26T15:19:35.009Z</time>
      </trkpt>
      <trkpt lat="47.0897" lon="-0.8532">
        <ele>107</ele>
        <time>2016-10-26T15:19:39.009Z</time>
      </trkpt>
      <trkpt lat="47.08972" lon="-0.85324">
        <ele>107</ele>
        <time>2016-10-26T15:19:42.009Z</time>
      </trkpt>
      <trkpt lat="47.08974" lon="-0.85331">
        <ele>107</ele>
        <time>2016-10-26T15:19:46.009Z</time>
      </trkpt>
      <trkpt lat="47.08976" lon="-0.85336">
        <ele>107</ele>
        <time>2016-10-26T15:19:49.009Z</time>
      </trkpt>
      <trkpt lat="47.08979" lon="-0.85342">
        <ele>106</ele>
        <time>2016-10-26T15:19:53.009Z</time>
      </trkpt>
      <trkpt lat="47.08981" lon="-0.85347">
        <ele>106</ele>
        <time>2016-10-26T15:19:56.009Z</time>
      </trkpt>
      <trkpt lat="47.08983" lon="-0.85352">
        <ele>106</ele>
        <time>2016-10-26T15:19:59.009Z</time>
      </trkpt>
      <trkpt lat="47.08984" lon="-0.85358">
        <ele>107</ele>
        <time>2016-10-26T15:20:02.009Z</time>
      </trkpt>
      <trkpt lat="47.08986" lon="-0.85363">
        <ele>107</ele>
        <time>2016-10-26T15:20:05.009Z</time>
      </trkpt>
      <trkpt lat="47.08989" lon="-0.85368">
        <ele>107</ele>
        <time>2016-10-26T15:20:08.009Z</time>
      </trkpt>
      <trkpt lat="47.08991" lon="-0.85372">
        <ele>107</ele>
        <time>2016-10-26T15:20:11.009Z</time>
      </trkpt>
      <trkpt lat="47.08993" lon="-0.85377">
        <ele>107</ele>
        <time>2016-10-26T15:20:14.009Z</time>
      </trkpt>
      <trkpt lat="47.08995" lon="-0.85382">
        <ele>107</ele>
        <time>2016-10-26T15:20:17.009Z</time>
      </trkpt>
      <trkpt lat="47.08997" lon="-0.85387">
        <ele>107</ele>
        <time>2016-10-26T15:20:20.009Z</time>
      </trkpt>
      <trkpt lat="47.08999" lon="-0.85392">
        <ele>106</ele>
        <time>2016-10-26T15:20:23.009Z</time>
      </trkpt>
      <trkpt lat="47.09001" lon="-0.85397">
        <ele>106</ele>
        <time>2016-10-26T15:20:26.009Z</time>
      </trkpt>
      <trkpt lat="47.09003" lon="-0.85402">
        <ele>106</ele>
        <time>2016-10-26T15:20:29.009Z</time>
      </trkpt>
      <trkpt lat="47.09005" lon="-0.85407">
        <ele>106</ele>
        <time>2016-10-26T15:20:32.009Z</time>
      </trkpt>
      <trkpt lat="47.09007" lon="-0.85411">
        <ele>106</ele>
        <time>2016-10-26T15:20:35.009Z</time>
      </trkpt>
      <trkpt lat="47.09009" lon="-0.85417">
        <ele>106</ele>
        <time>2016-10-26T15:20:39.009Z</time>
      </trkpt>
      <trkpt lat="47.09011" lon="-0.85422">
        <ele>106</ele>
        <time>2016-10-26T15:20:42.009Z</time>
      </trkpt>
      <trkpt lat="47.09013" lon="-0.85427">
        <ele>106</ele>
        <time>2016-10-26T15:20:45.009Z</time>
      </trkpt>
      <trkpt lat="47.09016" lon="-0.85432">
        <ele>106</ele>
        <time>2016-10-26T15:20:48.009Z</time>
      </trkpt>
      <trkpt lat="47.09017" lon="-0.85437">
        <ele>106</ele>
        <time>2016-10-26T15:20:51.009Z</time>
      </trkpt>
      <trkpt lat="47.0902" lon="-0.85442">
        <ele>106</ele>
        <time>2016-10-26T15:20:54.009Z</time>
      </trkpt>
      <trkpt lat="47.09022" lon="-0.85447">
        <ele>106</ele>
        <time>2016-10-26T15:20:57.009Z</time>
      </trkpt>
      <trkpt lat="47.09024" lon="-0.85451">
        <ele>106</ele>
        <time>2016-10-26T15:21:00.009Z</time>
      </trkpt>
      <trkpt lat="47.09026" lon="-0.85456">
        <ele>106</ele>
        <time>2016-10-26T15:21:03.009Z</time>
      </trkpt>
      <trkpt lat="47.09028" lon="-0.85462">
        <ele>106</ele>
        <time>2016-10-26T15:21:07.009Z</time>
      </trkpt>
      <trkpt lat="47.09031" lon="-0.85468">
        <ele>106</ele>
        <time>2016-10-26T15:21:11.009Z</time>
      </trkpt>
      <trkpt lat="47.09033" lon="-0.85472">
        <ele>106</ele>
        <time>2016-10-26T15:21:14.009Z</time>
      </trkpt>
      <trkpt lat="47.09035" lon="-0.85477">
        <ele>106</ele>
        <time>2016-10-26T15:21:17.009Z</time>
      </trkpt>
      <trkpt lat="47.09037" lon="-0.85484">
        <ele>106</ele>
        <time>2016-10-26T15:21:21.009Z</time>
      </trkpt>
      <trkpt lat="47.09039" lon="-0.85489">
        <ele>106</ele>
        <time>2016-10-26T15:21:24.009Z</time>
      </trkpt>
      <trkpt lat="47.09042" lon="-0.85494">
        <ele>106</ele>
        <time>2016-10-26T15:21:27.009Z</time>
      </trkpt>
      <trkpt lat="47.09043" lon="-0.85499">
        <ele>106</ele>
        <time>2016-10-26T15:21:30.009Z</time>
      </trkpt>
      <trkpt lat="47.09045" lon="-0.85504">
        <ele>106</ele>
        <time>2016-10-26T15:21:33.009Z</time>
      </trkpt>
      <trkpt lat="47.09046" lon="-0.8551">
        <ele>106</ele>
        <time>2016-10-26T15:21:36.009Z</time>
      </trkpt>
      <trkpt lat="47.09048" lon="-0.85515">
        <ele>106</ele>
        <time>2016-10-26T15:21:39.009Z</time>
      </trkpt>
      <trkpt lat="47.0905" lon="-0.8552">
        <ele>105</ele>
        <time>2016-10-26T15:21:42.009Z</time>
      </trkpt>
      <trkpt lat="47.09051" lon="-0.85526">
        <ele>105</ele>
        <time>2016-10-26T15:21:45.009Z</time>
      </trkpt>
      <trkpt lat="47.09053" lon="-0.85531">
        <ele>105</ele>
        <time>2016-10-26T15:21:48.009Z</time>
      </trkpt>
      <trkpt lat="47.09054" lon="-0.85536">
        <ele>105</ele>
        <time>2016-10-26T15:21:51.009Z</time>
      </trkpt>
      <trkpt lat="47.09056" lon="-0.85541">
        <ele>105</ele>
        <time>2016-10-26T15:21:54.009Z</time>
      </trkpt>
      <trkpt lat="47.09057" lon="-0.85547">
        <ele>105</ele>
        <time>2016-10-26T15:21:57.009Z</time>
      </trkpt>
      <trkpt lat="47.09058" lon="-0.85553">
        <ele>105</ele>
        <time>2016-10-26T15:22:01.009Z</time>
      </trkpt>
      <trkpt lat="47.09059" lon="-0.85559">
        <ele>105</ele>
        <time>2016-10-26T15:22:04.009Z</time>
      </trkpt>
      <trkpt lat="47.0906" lon="-0.85564">
        <ele>105</ele>
        <time>2016-10-26T15:22:07.009Z</time>
      </trkpt>
      <trkpt lat="47.09062" lon="-0.8557">
        <ele>105</ele>
        <time>2016-10-26T15:22:10.009Z</time>
      </trkpt>
      <trkpt lat="47.09063" lon="-0.85575">
        <ele>105</ele>
        <time>2016-10-26T15:22:13.009Z</time>
      </trkpt>
      <trkpt lat="47.09065" lon="-0.8558">
        <ele>105</ele>
        <time>2016-10-26T15:22:16.009Z</time>
      </trkpt>
      <trkpt lat="47.09067" lon="-0.85585">
        <ele>105</ele>
        <time>2016-10-26T15:22:19.009Z</time>
      </trkpt>
      <trkpt lat="47.09069" lon="-0.85592">
        <ele>105</ele>
        <time>2016-10-26T15:22:23.009Z</time>
      </trkpt>
      <trkpt lat="47.09071" lon="-0.85596">
        <ele>105</ele>
        <time>2016-10-26T15:22:26.009Z</time>
      </trkpt>
      <trkpt lat="47.09073" lon="-0.85602">
        <ele>105</ele>
        <time>2016-10-26T15:22:30.009Z</time>
      </trkpt>
      <trkpt lat="47.09075" lon="-0.85607">
        <ele>105</ele>
        <time>2016-10-26T15:22:33.009Z</time>
      </trkpt>
      <trkpt lat="47.09078" lon="-0.85611">
        <ele>105</ele>
        <time>2016-10-26T15:22:36.009Z</time>
      </trkpt>
      <trkpt lat="47.09081" lon="-0.85615">
        <ele>105</ele>
        <time>2016-10-26T15:22:40.009Z</time>
      </trkpt>
      <trkpt lat="47.09085" lon="-0.85618">
        <ele>105</ele>
        <time>2016-10-26T15:22:43.009Z</time>
      </trkpt>
      <trkpt lat="47.09089" lon="-0.85621">
        <ele>105</ele>
        <time>2016-10-26T15:22:46.009Z</time>
      </trkpt>
      <trkpt lat="47.09092" lon="-0.85624">
        <ele>105</ele>
        <time>2016-10-26T15:22:49.009Z</time>
      </trkpt>
      <trkpt lat="47.09096" lon="-0.85627">
        <ele>105</ele>
        <time>2016-10-26T15:22:53.009Z</time>
      </trkpt>
      <trkpt lat="47.091" lon="-0.85629">
        <ele>105</ele>
        <time>2016-10-26T15:22:56.009Z</time>
      </trkpt>
      <trkpt lat="47.09103" lon="-0.85631">
        <ele>105</ele>
        <time>2016-10-26T15:22:59.009Z</time>
      </trkpt>
      <trkpt lat="47.09107" lon="-0.85633">
        <ele>105</ele>
        <time>2016-10-26T15:23:02.009Z</time>
      </trkpt>
      <trkpt lat="47.09111" lon="-0.85636">
        <ele>105</ele>
        <time>2016-10-26T15:23:06.009Z</time>
      </trkpt>
      <trkpt lat="47.09114" lon="-0.8564">
        <ele>105</ele>
        <time>2016-10-26T15:23:09.009Z</time>
      </trkpt>
      <trkpt lat="47.09117" lon="-0.85643">
        <ele>106</ele>
        <time>2016-10-26T15:23:12.009Z</time>
      </trkpt>
      <trkpt lat="47.09121" lon="-0.85644">
        <ele>106</ele>
        <time>2016-10-26T15:23:15.009Z</time>
      </trkpt>
      <trkpt lat="47.09125" lon="-0.85642">
        <ele>106</ele>
        <time>2016-10-26T15:23:18.009Z</time>
      </trkpt>
      <trkpt lat="47.09128" lon="-0.85639">
        <ele>106</ele>
        <time>2016-10-26T15:23:21.009Z</time>
      </trkpt>
      <trkpt lat="47.09132" lon="-0.8564">
        <ele>106</ele>
        <time>2016-10-26T15:23:25.009Z</time>
      </trkpt>
      <trkpt lat="47.09134" lon="-0.85645">
        <ele>106</ele>
        <time>2016-10-26T15:23:28.009Z</time>
      </trkpt>
      <trkpt lat="47.09137" lon="-0.8565">
        <ele>105.5209984</ele>
        <time>2016-10-26T15:23:31.009Z</time>
      </trkpt>
      <trkpt lat="47.09139" lon="-0.85655">
        <ele>105</ele>
        <time>2016-10-26T15:23:34.009Z</time>
      </trkpt>
      <trkpt lat="47.09142" lon="-0.85659">
        <ele>105</ele>
        <time>2016-10-26T15:23:37.009Z</time>
      </trkpt>
      <trkpt lat="47.09144" lon="-0.85664">
        <ele>105</ele>
        <time>2016-10-26T15:23:40.009Z</time>
      </trkpt>
      <trkpt lat="47.09146" lon="-0.85669">
        <ele>105</ele>
        <time>2016-10-26T15:23:44.009Z</time>
      </trkpt>
      <trkpt lat="47.09148" lon="-0.85673">
        <ele>105</ele>
        <time>2016-10-26T15:23:48.009Z</time>
      </trkpt>
      <trkpt lat="47.09151" lon="-0.85678">
        <ele>105</ele>
        <time>2016-10-26T15:23:52.009Z</time>
      </trkpt>
      <trkpt lat="47.09154" lon="-0.85682">
        <ele>105</ele>
        <time>2016-10-26T15:23:55.009Z</time>
      </trkpt>
      <trkpt lat="47.09158" lon="-0.85685">
        <ele>105</ele>
        <time>2016-10-26T15:23:58.009Z</time>
      </trkpt>
      <trkpt lat="47.09161" lon="-0.8569">
        <ele>105</ele>
        <time>2016-10-26T15:24:02.009Z</time>
      </trkpt>
      <trkpt lat="47.09164" lon="-0.85694">
        <ele>105</ele>
        <time>2016-10-26T15:24:05.009Z</time>
      </trkpt>
      <trkpt lat="47.09166" lon="-0.85698">
        <ele>105</ele>
        <time>2016-10-26T15:24:08.009Z</time>
      </trkpt>
      <trkpt lat="47.09169" lon="-0.85703">
        <ele>105</ele>
        <time>2016-10-26T15:24:12.009Z</time>
      </trkpt>
      <trkpt lat="47.09173" lon="-0.85707">
        <ele>105</ele>
        <time>2016-10-26T15:24:15.009Z</time>
      </trkpt>
      <trkpt lat="47.09176" lon="-0.85711">
        <ele>105</ele>
        <time>2016-10-26T15:24:18.009Z</time>
      </trkpt>
      <trkpt lat="47.09179" lon="-0.85715">
        <ele>105</ele>
        <time>2016-10-26T15:24:21.009Z</time>
      </trkpt>
      <trkpt lat="47.09182" lon="-0.85719">
        <ele>105</ele>
        <time>2016-10-26T15:24:24.009Z</time>
      </trkpt>
      <trkpt lat="47.09185" lon="-0.85723">
        <ele>105</ele>
        <time>2016-10-26T15:24:28.009Z</time>
      </trkpt>
      <trkpt lat="47.09189" lon="-0.85728">
        <ele>105</ele>
        <time>2016-10-26T15:24:32.009Z</time>
      </trkpt>
      <trkpt lat="47.09191" lon="-0.85732">
        <ele>105</ele>
        <time>2016-10-26T15:24:35.009Z</time>
      </trkpt>
      <trkpt lat="47.09194" lon="-0.85738">
        <ele>105</ele>
        <time>2016-10-26T15:24:38.009Z</time>
      </trkpt>
      <trkpt lat="47.09197" lon="-0.85742">
        <ele>105</ele>
        <time>2016-10-26T15:24:41.009Z</time>
      </trkpt>
      <trkpt lat="47.092" lon="-0.85747">
        <ele>105</ele>
        <time>2016-10-26T15:24:44.009Z</time>
      </trkpt>
      <trkpt lat="47.09202" lon="-0.85751">
        <ele>105</ele>
        <time>2016-10-26T15:24:47.009Z</time>
      </trkpt>
      <trkpt lat="47.09206" lon="-0.85756">
        <ele>105</ele>
        <time>2016-10-26T15:24:50.009Z</time>
      </trkpt>
      <trkpt lat="47.09209" lon="-0.85759">
        <ele>105</ele>
        <time>2016-10-26T15:24:53.009Z</time>
      </trkpt>
      <trkpt lat="47.09212" lon="-0.85763">
        <ele>105</ele>
        <time>2016-10-26T15:24:56.009Z</time>
      </trkpt>
      <trkpt lat="47.09214" lon="-0.85767">
        <ele>105</ele>
        <time>2016-10-26T15:24:59.009Z</time>
      </trkpt>
      <trkpt lat="47.09217" lon="-0.8577">
        <ele>105</ele>
        <time>2016-10-26T15:25:03.009Z</time>
      </trkpt>
      <trkpt lat="47.0922" lon="-0.85774">
        <ele>105</ele>
        <time>2016-10-26T15:25:07.009Z</time>
      </trkpt>
      <trkpt lat="47.09224" lon="-0.85779">
        <ele>105</ele>
        <time>2016-10-26T15:25:11.009Z</time>
      </trkpt>
      <trkpt lat="47.09227" lon="-0.85783">
        <ele>105</ele>
        <time>2016-10-26T15:25:14.009Z</time>
      </trkpt>
      <trkpt lat="47.0923" lon="-0.85787">
        <ele>105</ele>
        <time>2016-10-26T15:25:18.009Z</time>
      </trkpt>
      <trkpt lat="47.09233" lon="-0.85791">
        <ele>105</ele>
        <time>2016-10-26T15:25:21.009Z</time>
      </trkpt>
      <trkpt lat="47.09237" lon="-0.85795">
        <ele>105</ele>
        <time>2016-10-26T15:25:24.009Z</time>
      </trkpt>
      <trkpt lat="47.0924" lon="-0.85799">
        <ele>105</ele>
        <time>2016-10-26T15:25:27.009Z</time>
      </trkpt>
      <trkpt lat="47.09243" lon="-0.85803">
        <ele>105</ele>
        <time>2016-10-26T15:25:30.009Z</time>
      </trkpt>
      <trkpt lat="47.09246" lon="-0.85806">
        <ele>105</ele>
        <time>2016-10-26T15:25:33.009Z</time>
      </trkpt>
      <trkpt lat="47.09249" lon="-0.85811">
        <ele>105</ele>
        <time>2016-10-26T15:25:36.009Z</time>
      </trkpt>
      <trkpt lat="47.09253" lon="-0.85814">
        <ele>105</ele>
        <time>2016-10-26T15:25:39.009Z</time>
      </trkpt>
      <trkpt lat="47.09256" lon="-0.85818">
        <ele>105</ele>
        <time>2016-10-26T15:25:42.009Z</time>
      </trkpt>
      <trkpt lat="47.0926" lon="-0.85822">
        <ele>105</ele>
        <time>2016-10-26T15:25:45.009Z</time>
      </trkpt>
      <trkpt lat="47.09264" lon="-0.85824">
        <ele>105</ele>
        <time>2016-10-26T15:25:48.009Z</time>
      </trkpt>
      <trkpt lat="47.09268" lon="-0.85825">
        <ele>105</ele>
        <time>2016-10-26T15:25:51.009Z</time>
      </trkpt>
      <trkpt lat="47.09272" lon="-0.85826">
        <ele>105</ele>
        <time>2016-10-26T15:25:54.009Z</time>
      </trkpt>
      <trkpt lat="47.09277" lon="-0.85826">
        <ele>105</ele>
        <time>2016-10-26T15:25:58.009Z</time>
      </trkpt>
      <trkpt lat="47.09281" lon="-0.85827">
        <ele>105</ele>
        <time>2016-10-26T15:26:01.009Z</time>
      </trkpt>
      <trkpt lat="47.09285" lon="-0.85827">
        <ele>105</ele>
        <time>2016-10-26T15:26:04.009Z</time>
      </trkpt>
      <trkpt lat="47.09289" lon="-0.85828">
        <ele>105</ele>
        <time>2016-10-26T15:26:07.009Z</time>
      </trkpt>
      <trkpt lat="47.09292" lon="-0.85828">
        <ele>105</ele>
        <time>2016-10-26T15:26:10.009Z</time>
      </trkpt>
      <trkpt lat="47.09297" lon="-0.85829">
        <ele>105</ele>
        <time>2016-10-26T15:26:14.009Z</time>
      </trkpt>
      <trkpt lat="47.09302" lon="-0.85829">
        <ele>105</ele>
        <time>2016-10-26T15:26:18.009Z</time>
      </trkpt>
      <trkpt lat="47.09306" lon="-0.85831">
        <ele>105</ele>
        <time>2016-10-26T15:26:21.009Z</time>
      </trkpt>
      <trkpt lat="47.09311" lon="-0.85833">
        <ele>105</ele>
        <time>2016-10-26T15:26:25.009Z</time>
      </trkpt>
      <trkpt lat="47.09314" lon="-0.85832">
        <ele>105</ele>
        <time>2016-10-26T15:26:28.009Z</time>
      </trkpt>
      <trkpt lat="47.09318" lon="-0.85833">
        <ele>105</ele>
        <time>2016-10-26T15:26:31.009Z</time>
      </trkpt>
      <trkpt lat="47.09322" lon="-0.85835">
        <ele>105</ele>
        <time>2016-10-26T15:26:34.009Z</time>
      </trkpt>
      <trkpt lat="47.09326" lon="-0.85837">
        <ele>105</ele>
        <time>2016-10-26T15:26:38.009Z</time>
      </trkpt>
      <trkpt lat="47.0933" lon="-0.85839">
        <ele>105</ele>
        <time>2016-10-26T15:26:41.009Z</time>
      </trkpt>
      <trkpt lat="47.09334" lon="-0.85841">
        <ele>105</ele>
        <time>2016-10-26T15:26:44.009Z</time>
      </trkpt>
      <trkpt lat="47.09338" lon="-0.85843">
        <ele>105</ele>
        <time>2016-10-26T15:26:47.009Z</time>
      </trkpt>
      <trkpt lat="47.09341" lon="-0.85845">
        <ele>105</ele>
        <time>2016-10-26T15:26:50.009Z</time>
      </trkpt>
      <trkpt lat="47.09345" lon="-0.85848">
        <ele>105</ele>
        <time>2016-10-26T15:26:53.009Z</time>
      </trkpt>
      <trkpt lat="47.09348" lon="-0.85851">
        <ele>105</ele>
        <time>2016-10-26T15:26:56.009Z</time>
      </trkpt>
      <trkpt lat="47.09352" lon="-0.85854">
        <ele>105</ele>
        <time>2016-10-26T15:26:59.009Z</time>
      </trkpt>
      <trkpt lat="47.09355" lon="-0.85857">
        <ele>105</ele>
        <time>2016-10-26T15:27:02.009Z</time>
      </trkpt>
      <trkpt lat="47.0936" lon="-0.8586">
        <ele>105</ele>
        <time>2016-10-26T15:27:06.009Z</time>
      </trkpt>
      <trkpt lat="47.09363" lon="-0.85863">
        <ele>105</ele>
        <time>2016-10-26T15:27:09.009Z</time>
      </trkpt>
      <trkpt lat="47.09366" lon="-0.85866">
        <ele>105</ele>
        <time>2016-10-26T15:27:12.009Z</time>
      </trkpt>
      <trkpt lat="47.0937" lon="-0.85869">
        <ele>105</ele>
        <time>2016-10-26T15:27:15.009Z</time>
      </trkpt>
      <trkpt lat="47.09373" lon="-0.85873">
        <ele>105</ele>
        <time>2016-10-26T15:27:19.009Z</time>
      </trkpt>
      <trkpt lat="47.09374" lon="-0.85879">
        <ele>105</ele>
        <time>2016-10-26T15:27:23.009Z</time>
      </trkpt>
      <trkpt lat="47.09373" lon="-0.85884">
        <ele>105</ele>
        <time>2016-10-26T15:27:27.009Z</time>
      </trkpt>
      <trkpt lat="47.09371" lon="-0.8589">
        <ele>105</ele>
        <time>2016-10-26T15:27:30.009Z</time>
      </trkpt>
      <trkpt lat="47.0937" lon="-0.85896">
        <ele>105</ele>
        <time>2016-10-26T15:27:33.009Z</time>
      </trkpt>
      <trkpt lat="47.09367" lon="-0.85903">
        <ele>105</ele>
        <time>2016-10-26T15:27:40.009Z</time>
      </trkpt>
      <trkpt lat="47.09365" lon="-0.85909">
        <ele>105</ele>
        <time>2016-10-26T15:27:44.009Z</time>
      </trkpt>
      <trkpt lat="47.09363" lon="-0.85914">
        <ele>105</ele>
        <time>2016-10-26T15:27:47.009Z</time>
      </trkpt>
      <trkpt lat="47.09361" lon="-0.85919">
        <ele>105</ele>
        <time>2016-10-26T15:27:51.009Z</time>
      </trkpt>
      <trkpt lat="47.09359" lon="-0.85925">
        <ele>105</ele>
        <time>2016-10-26T15:27:54.009Z</time>
      </trkpt>
      <trkpt lat="47.09356" lon="-0.85929">
        <ele>105</ele>
        <time>2016-10-26T15:27:58.009Z</time>
      </trkpt>
      <trkpt lat="47.09354" lon="-0.85935">
        <ele>105</ele>
        <time>2016-10-26T15:28:01.009Z</time>
      </trkpt>
      <trkpt lat="47.09351" lon="-0.8594">
        <ele>105</ele>
        <time>2016-10-26T15:28:04.009Z</time>
      </trkpt>
      <trkpt lat="47.09348" lon="-0.85945">
        <ele>105</ele>
        <time>2016-10-26T15:28:07.009Z</time>
      </trkpt>
      <trkpt lat="47.09345" lon="-0.8595">
        <ele>105</ele>
        <time>2016-10-26T15:28:11.009Z</time>
      </trkpt>
      <trkpt lat="47.09341" lon="-0.85954">
        <ele>105</ele>
        <time>2016-10-26T15:28:15.009Z</time>
      </trkpt>
      <trkpt lat="47.09333" lon="-0.85966">
        <ele>105</ele>
        <time>2016-10-26T15:28:24.009Z</time>
      </trkpt>
      <trkpt lat="47.09329" lon="-0.85971">
        <ele>105</ele>
        <time>2016-10-26T15:28:27.009Z</time>
      </trkpt>
      <trkpt lat="47.09325" lon="-0.85975">
        <ele>105</ele>
        <time>2016-10-26T15:28:30.009Z</time>
      </trkpt>
      <trkpt lat="47.09322" lon="-0.85978">
        <ele>105</ele>
        <time>2016-10-26T15:28:34.009Z</time>
      </trkpt>
      <trkpt lat="47.09318" lon="-0.85982">
        <ele>105</ele>
        <time>2016-10-26T15:28:37.009Z</time>
      </trkpt>
      <trkpt lat="47.09315" lon="-0.85986">
        <ele>105</ele>
        <time>2016-10-26T15:28:40.009Z</time>
      </trkpt>
      <trkpt lat="47.09312" lon="-0.85991">
        <ele>105</ele>
        <time>2016-10-26T15:28:44.009Z</time>
      </trkpt>
      <trkpt lat="47.09304" lon="-0.86003">
        <ele>105</ele>
        <time>2016-10-26T15:28:53.009Z</time>
      </trkpt>
      <trkpt lat="47.09301" lon="-0.86007">
        <ele>105</ele>
        <time>2016-10-26T15:28:56.009Z</time>
      </trkpt>
      <trkpt lat="47.09298" lon="-0.8601">
        <ele>105</ele>
        <time>2016-10-26T15:29:00.009Z</time>
      </trkpt>
      <trkpt lat="47.09293" lon="-0.86014">
        <ele>105</ele>
        <time>2016-10-26T15:29:04.009Z</time>
      </trkpt>
      <trkpt lat="47.09291" lon="-0.86018">
        <ele>105</ele>
        <time>2016-10-26T15:29:07.009Z</time>
      </trkpt>
      <trkpt lat="47.09287" lon="-0.86022">
        <ele>105</ele>
        <time>2016-10-26T15:29:10.009Z</time>
      </trkpt>
      <trkpt lat="47.09284" lon="-0.86027">
        <ele>105</ele>
        <time>2016-10-26T15:29:13.009Z</time>
      </trkpt>
      <trkpt lat="47.09281" lon="-0.86031">
        <ele>105</ele>
        <time>2016-10-26T15:29:17.009Z</time>
      </trkpt>
      <trkpt lat="47.09277" lon="-0.86035">
        <ele>105</ele>
        <time>2016-10-26T15:29:21.009Z</time>
      </trkpt>
      <trkpt lat="47.09273" lon="-0.8604">
        <ele>105</ele>
        <time>2016-10-26T15:29:25.009Z</time>
      </trkpt>
      <trkpt lat="47.0927" lon="-0.86044">
        <ele>105</ele>
        <time>2016-10-26T15:29:29.009Z</time>
      </trkpt>
      <trkpt lat="47.09267" lon="-0.86049">
        <ele>105</ele>
        <time>2016-10-26T15:29:32.009Z</time>
      </trkpt>
      <trkpt lat="47.09264" lon="-0.86053">
        <ele>105</ele>
        <time>2016-10-26T15:29:35.009Z</time>
      </trkpt>
      <trkpt lat="47.09263" lon="-0.86058">
        <ele>105</ele>
        <time>2016-10-26T15:29:38.009Z</time>
      </trkpt>
      <trkpt lat="47.0926" lon="-0.86063">
        <ele>105</ele>
        <time>2016-10-26T15:29:41.009Z</time>
      </trkpt>
      <trkpt lat="47.09257" lon="-0.86067">
        <ele>105</ele>
        <time>2016-10-26T15:29:44.009Z</time>
      </trkpt>
      <trkpt lat="47.09254" lon="-0.86072">
        <ele>105</ele>
        <time>2016-10-26T15:29:48.009Z</time>
      </trkpt>
      <trkpt lat="47.0925" lon="-0.86076">
        <ele>105</ele>
        <time>2016-10-26T15:29:51.009Z</time>
      </trkpt>
      <trkpt lat="47.09246" lon="-0.86078">
        <ele>105</ele>
        <time>2016-10-26T15:29:54.009Z</time>
      </trkpt>
      <trkpt lat="47.0924" lon="-0.86085">
        <ele>105</ele>
        <time>2016-10-26T15:30:00.009Z</time>
      </trkpt>
      <trkpt lat="47.09237" lon="-0.86089">
        <ele>105</ele>
        <time>2016-10-26T15:30:03.009Z</time>
      </trkpt>
      <trkpt lat="47.09234" lon="-0.86093">
        <ele>105</ele>
        <time>2016-10-26T15:30:06.009Z</time>
      </trkpt>
      <trkpt lat="47.09231" lon="-0.86097">
        <ele>105</ele>
        <time>2016-10-26T15:30:09.009Z</time>
      </trkpt>
      <trkpt lat="47.09229" lon="-0.86101">
        <ele>105</ele>
        <time>2016-10-26T15:30:12.009Z</time>
      </trkpt>
      <trkpt lat="47.09226" lon="-0.86105">
        <ele>105</ele>
        <time>2016-10-26T15:30:15.009Z</time>
      </trkpt>
      <trkpt lat="47.09217" lon="-0.86115">
        <ele>105</ele>
        <time>2016-10-26T15:30:23.009Z</time>
      </trkpt>
      <trkpt lat="47.09214" lon="-0.86118">
        <ele>105</ele>
        <time>2016-10-26T15:30:26.009Z</time>
      </trkpt>
      <trkpt lat="47.09211" lon="-0.86122">
        <ele>105</ele>
        <time>2016-10-26T15:30:29.009Z</time>
      </trkpt>
      <trkpt lat="47.09208" lon="-0.86126">
        <ele>105</ele>
        <time>2016-10-26T15:30:32.009Z</time>
      </trkpt>
      <trkpt lat="47.09205" lon="-0.8613">
        <ele>105</ele>
        <time>2016-10-26T15:30:36.009Z</time>
      </trkpt>
      <trkpt lat="47.09203" lon="-0.86135">
        <ele>105</ele>
        <time>2016-10-26T15:30:39.009Z</time>
      </trkpt>
      <trkpt lat="47.09199" lon="-0.86139">
        <ele>105</ele>
        <time>2016-10-26T15:30:42.009Z</time>
      </trkpt>
      <trkpt lat="47.09196" lon="-0.86144">
        <ele>105</ele>
        <time>2016-10-26T15:30:46.009Z</time>
      </trkpt>
      <trkpt lat="47.09193" lon="-0.86147">
        <ele>105</ele>
        <time>2016-10-26T15:30:49.009Z</time>
      </trkpt>
      <trkpt lat="47.0919" lon="-0.86152">
        <ele>105</ele>
        <time>2016-10-26T15:30:52.009Z</time>
      </trkpt>
      <trkpt lat="47.09188" lon="-0.86156">
        <ele>105</ele>
        <time>2016-10-26T15:30:55.009Z</time>
      </trkpt>
      <trkpt lat="47.09185" lon="-0.8616">
        <ele>105</ele>
        <time>2016-10-26T15:30:58.009Z</time>
      </trkpt>
      <trkpt lat="47.09182" lon="-0.86163">
        <ele>105</ele>
        <time>2016-10-26T15:31:01.009Z</time>
      </trkpt>
      <trkpt lat="47.09179" lon="-0.86167">
        <ele>105</ele>
        <time>2016-10-26T15:31:04.009Z</time>
      </trkpt>
      <trkpt lat="47.09177" lon="-0.86171">
        <ele>105</ele>
        <time>2016-10-26T15:31:07.009Z</time>
      </trkpt>
      <trkpt lat="47.09174" lon="-0.86174">
        <ele>105</ele>
        <time>2016-10-26T15:31:10.009Z</time>
      </trkpt>
      <trkpt lat="47.0917" lon="-0.86178">
        <ele>105</ele>
        <time>2016-10-26T15:31:14.009Z</time>
      </trkpt>
      <trkpt lat="47.09167" lon="-0.86181">
        <ele>105</ele>
        <time>2016-10-26T15:31:17.009Z</time>
      </trkpt>
      <trkpt lat="47.09164" lon="-0.86185">
        <ele>105</ele>
        <time>2016-10-26T15:31:20.009Z</time>
      </trkpt>
      <trkpt lat="47.0916" lon="-0.86189">
        <ele>105</ele>
        <time>2016-10-26T15:31:23.009Z</time>
      </trkpt>
      <trkpt lat="47.09157" lon="-0.86192">
        <ele>105</ele>
        <time>2016-10-26T15:31:26.009Z</time>
      </trkpt>
      <trkpt lat="47.09153" lon="-0.86195">
        <ele>105</ele>
        <time>2016-10-26T15:31:29.009Z</time>
      </trkpt>
      <trkpt lat="47.09148" lon="-0.862">
        <ele>105</ele>
        <time>2016-10-26T15:31:34.009Z</time>
      </trkpt>
      <trkpt lat="47.09144" lon="-0.86203">
        <ele>105</ele>
        <time>2016-10-26T15:31:37.009Z</time>
      </trkpt>
      <trkpt lat="47.09141" lon="-0.86206">
        <ele>105</ele>
        <time>2016-10-26T15:31:40.009Z</time>
      </trkpt>
      <trkpt lat="47.09137" lon="-0.86209">
        <ele>105</ele>
        <time>2016-10-26T15:31:44.009Z</time>
      </trkpt>
      <trkpt lat="47.09133" lon="-0.86213">
        <ele>105</ele>
        <time>2016-10-26T15:31:47.009Z</time>
      </trkpt>
      <trkpt lat="47.09129" lon="-0.86216">
        <ele>105</ele>
        <time>2016-10-26T15:31:50.009Z</time>
      </trkpt>
      <trkpt lat="47.09125" lon="-0.8622">
        <ele>105</ele>
        <time>2016-10-26T15:31:54.009Z</time>
      </trkpt>
      <trkpt lat="47.09121" lon="-0.86224">
        <ele>105</ele>
        <time>2016-10-26T15:31:57.009Z</time>
      </trkpt>
      <trkpt lat="47.09118" lon="-0.86228">
        <ele>105</ele>
        <time>2016-10-26T15:32:00.009Z</time>
      </trkpt>
      <trkpt lat="47.09114" lon="-0.86231">
        <ele>105</ele>
        <time>2016-10-26T15:32:04.009Z</time>
      </trkpt>
      <trkpt lat="47.09105" lon="-0.86239">
        <ele>105</ele>
        <time>2016-10-26T15:32:12.009Z</time>
      </trkpt>
      <trkpt lat="47.09104" lon="-0.86246">
        <ele>105</ele>
        <time>2016-10-26T15:32:16.009Z</time>
      </trkpt>
      <trkpt lat="47.09103" lon="-0.86251">
        <ele>105</ele>
        <time>2016-10-26T15:32:19.009Z</time>
      </trkpt>
      <trkpt lat="47.09104" lon="-0.86257">
        <ele>105</ele>
        <time>2016-10-26T15:32:22.009Z</time>
      </trkpt>
      <trkpt lat="47.09107" lon="-0.86261">
        <ele>105</ele>
        <time>2016-10-26T15:32:25.009Z</time>
      </trkpt>
      <trkpt lat="47.09111" lon="-0.86265">
        <ele>105</ele>
        <time>2016-10-26T15:32:28.009Z</time>
      </trkpt>
      <trkpt lat="47.09114" lon="-0.86268">
        <ele>105</ele>
        <time>2016-10-26T15:32:31.009Z</time>
      </trkpt>
      <trkpt lat="47.09116" lon="-0.86272">
        <ele>105</ele>
        <time>2016-10-26T15:32:34.009Z</time>
      </trkpt>
      <trkpt lat="47.0912" lon="-0.86275">
        <ele>105</ele>
        <time>2016-10-26T15:32:38.009Z</time>
      </trkpt>
      <trkpt lat="47.09123" lon="-0.86278">
        <ele>105</ele>
        <time>2016-10-26T15:32:41.009Z</time>
      </trkpt>
      <trkpt lat="47.09126" lon="-0.86281">
        <ele>105</ele>
        <time>2016-10-26T15:32:44.009Z</time>
      </trkpt>
      <trkpt lat="47.0913" lon="-0.86284">
        <ele>105</ele>
        <time>2016-10-26T15:32:48.009Z</time>
      </trkpt>
      <trkpt lat="47.09135" lon="-0.86287">
        <ele>105</ele>
        <time>2016-10-26T15:32:52.009Z</time>
      </trkpt>
      <trkpt lat="47.09138" lon="-0.86291">
        <ele>105</ele>
        <time>2016-10-26T15:32:56.009Z</time>
      </trkpt>
      <trkpt lat="47.09141" lon="-0.86294">
        <ele>105</ele>
        <time>2016-10-26T15:32:59.009Z</time>
      </trkpt>
      <trkpt lat="47.09145" lon="-0.86297">
        <ele>105</ele>
        <time>2016-10-26T15:33:03.009Z</time>
      </trkpt>
      <trkpt lat="47.09148" lon="-0.863">
        <ele>105</ele>
        <time>2016-10-26T15:33:06.009Z</time>
      </trkpt>
      <trkpt lat="47.09151" lon="-0.86303">
        <ele>105</ele>
        <time>2016-10-26T15:33:09.009Z</time>
      </trkpt>
      <trkpt lat="47.09155" lon="-0.86307">
        <ele>105</ele>
        <time>2016-10-26T15:33:13.009Z</time>
      </trkpt>
      <trkpt lat="47.09159" lon="-0.86311">
        <ele>105</ele>
        <time>2016-10-26T15:33:17.009Z</time>
      </trkpt>
      <trkpt lat="47.09162" lon="-0.86314">
        <ele>105</ele>
        <time>2016-10-26T15:33:20.009Z</time>
      </trkpt>
      <trkpt lat="47.09165" lon="-0.86318">
        <ele>105</ele>
        <time>2016-10-26T15:33:23.009Z</time>
      </trkpt>
      <trkpt lat="47.09169" lon="-0.86321">
        <ele>105</ele>
        <time>2016-10-26T15:33:27.009Z</time>
      </trkpt>
      <trkpt lat="47.09172" lon="-0.86325">
        <ele>105</ele>
        <time>2016-10-26T15:33:30.009Z</time>
      </trkpt>
      <trkpt lat="47.09174" lon="-0.86328">
        <ele>105</ele>
        <time>2016-10-26T15:33:33.009Z</time>
      </trkpt>
      <trkpt lat="47.09178" lon="-0.86331">
        <ele>105</ele>
        <time>2016-10-26T15:33:36.009Z</time>
      </trkpt>
      <trkpt lat="47.09181" lon="-0.86334">
        <ele>105</ele>
        <time>2016-10-26T15:33:40.009Z</time>
      </trkpt>
      <trkpt lat="47.09185" lon="-0.86337">
        <ele>105</ele>
        <time>2016-10-26T15:33:43.009Z</time>
      </trkpt>
      <trkpt lat="47.09188" lon="-0.8634">
        <ele>105</ele>
        <time>2016-10-26T15:33:46.009Z</time>
      </trkpt>
      <trkpt lat="47.09192" lon="-0.86344">
        <ele>105</ele>
        <time>2016-10-26T15:33:50.009Z</time>
      </trkpt>
      <trkpt lat="47.09195" lon="-0.86348">
        <ele>105</ele>
        <time>2016-10-26T15:33:53.009Z</time>
      </trkpt>
      <trkpt lat="47.09198" lon="-0.86351">
        <ele>105</ele>
        <time>2016-10-26T15:33:56.009Z</time>
      </trkpt>
      <trkpt lat="47.09201" lon="-0.86354">
        <ele>105</ele>
        <time>2016-10-26T15:33:59.009Z</time>
      </trkpt>
      <trkpt lat="47.09204" lon="-0.86358">
        <ele>105</ele>
        <time>2016-10-26T15:34:02.009Z</time>
      </trkpt>
      <trkpt lat="47.09207" lon="-0.86361">
        <ele>105</ele>
        <time>2016-10-26T15:34:05.009Z</time>
      </trkpt>
      <trkpt lat="47.0921" lon="-0.86365">
        <ele>105</ele>
        <time>2016-10-26T15:34:08.009Z</time>
      </trkpt>
      <trkpt lat="47.09214" lon="-0.86368">
        <ele>105</ele>
        <time>2016-10-26T15:34:12.009Z</time>
      </trkpt>
      <trkpt lat="47.09216" lon="-0.86374">
        <ele>105</ele>
        <time>2016-10-26T15:34:16.009Z</time>
      </trkpt>
      <trkpt lat="47.09214" lon="-0.8638">
        <ele>105</ele>
        <time>2016-10-26T15:34:20.009Z</time>
      </trkpt>
      <trkpt lat="47.09212" lon="-0.86386">
        <ele>105</ele>
        <time>2016-10-26T15:34:23.009Z</time>
      </trkpt>
      <trkpt lat="47.0921" lon="-0.86391">
        <ele>105</ele>
        <time>2016-10-26T15:34:26.009Z</time>
      </trkpt>
      <trkpt lat="47.09209" lon="-0.86397">
        <ele>105</ele>
        <time>2016-10-26T15:34:30.009Z</time>
      </trkpt>
      <trkpt lat="47.09207" lon="-0.86403">
        <ele>105</ele>
        <time>2016-10-26T15:34:34.009Z</time>
      </trkpt>
      <trkpt lat="47.09206" lon="-0.86409">
        <ele>105</ele>
        <time>2016-10-26T15:34:37.009Z</time>
      </trkpt>
      <trkpt lat="47.09204" lon="-0.86415">
        <ele>105</ele>
        <time>2016-10-26T15:34:40.009Z</time>
      </trkpt>
      <trkpt lat="47.09203" lon="-0.8642">
        <ele>105</ele>
        <time>2016-10-26T15:34:43.009Z</time>
      </trkpt>
      <trkpt lat="47.09201" lon="-0.86425">
        <ele>105</ele>
        <time>2016-10-26T15:34:47.009Z</time>
      </trkpt>
      <trkpt lat="47.09198" lon="-0.8643">
        <ele>105</ele>
        <time>2016-10-26T15:34:50.009Z</time>
      </trkpt>
      <trkpt lat="47.09196" lon="-0.86434">
        <ele>105</ele>
        <time>2016-10-26T15:34:53.009Z</time>
      </trkpt>
      <trkpt lat="47.09194" lon="-0.86439">
        <ele>105</ele>
        <time>2016-10-26T15:34:56.009Z</time>
      </trkpt>
      <trkpt lat="47.09192" lon="-0.86444">
        <ele>105</ele>
        <time>2016-10-26T15:34:59.009Z</time>
      </trkpt>
      <trkpt lat="47.09191" lon="-0.86449">
        <ele>105</ele>
        <time>2016-10-26T15:35:02.009Z</time>
      </trkpt>
      <trkpt lat="47.09188" lon="-0.86455">
        <ele>105</ele>
        <time>2016-10-26T15:35:06.009Z</time>
      </trkpt>
      <trkpt lat="47.09186" lon="-0.86461">
        <ele>105</ele>
        <time>2016-10-26T15:35:09.009Z</time>
      </trkpt>
      <trkpt lat="47.09184" lon="-0.86466">
        <ele>105</ele>
        <time>2016-10-26T15:35:12.009Z</time>
      </trkpt>
      <trkpt lat="47.09182" lon="-0.86471">
        <ele>105</ele>
        <time>2016-10-26T15:35:15.009Z</time>
      </trkpt>
      <trkpt lat="47.09181" lon="-0.86476">
        <ele>105</ele>
        <time>2016-10-26T15:35:18.009Z</time>
      </trkpt>
      <trkpt lat="47.09179" lon="-0.86481">
        <ele>105</ele>
        <time>2016-10-26T15:35:21.009Z</time>
      </trkpt>
      <trkpt lat="47.09177" lon="-0.86487">
        <ele>105</ele>
        <time>2016-10-26T15:35:24.009Z</time>
      </trkpt>
      <trkpt lat="47.09175" lon="-0.86491">
        <ele>105</ele>
        <time>2016-10-26T15:35:27.009Z</time>
      </trkpt>
      <trkpt lat="47.09173" lon="-0.86496">
        <ele>105</ele>
        <time>2016-10-26T15:35:30.009Z</time>
      </trkpt>
      <trkpt lat="47.09171" lon="-0.86501">
        <ele>105</ele>
        <time>2016-10-26T15:35:33.009Z</time>
      </trkpt>
      <trkpt lat="47.09169" lon="-0.86506">
        <ele>105</ele>
        <time>2016-10-26T15:35:36.009Z</time>
      </trkpt>
      <trkpt lat="47.09167" lon="-0.86511">
        <ele>105</ele>
        <time>2016-10-26T15:35:39.009Z</time>
      </trkpt>
      <trkpt lat="47.09165" lon="-0.86516">
        <ele>105</ele>
        <time>2016-10-26T15:35:42.009Z</time>
      </trkpt>
      <trkpt lat="47.09163" lon="-0.86521">
        <ele>105</ele>
        <time>2016-10-26T15:35:45.009Z</time>
      </trkpt>
      <trkpt lat="47.09161" lon="-0.86526">
        <ele>105</ele>
        <time>2016-10-26T15:35:48.009Z</time>
      </trkpt>
      <trkpt lat="47.0916" lon="-0.86531">
        <ele>105</ele>
        <time>2016-10-26T15:35:51.009Z</time>
      </trkpt>
      <trkpt lat="47.09158" lon="-0.86536">
        <ele>105</ele>
        <time>2016-10-26T15:35:54.009Z</time>
      </trkpt>
      <trkpt lat="47.09156" lon="-0.86541">
        <ele>105</ele>
        <time>2016-10-26T15:35:57.009Z</time>
      </trkpt>
      <trkpt lat="47.09154" lon="-0.86546">
        <ele>105</ele>
        <time>2016-10-26T15:36:00.009Z</time>
      </trkpt>
      <trkpt lat="47.09153" lon="-0.86552">
        <ele>105</ele>
        <time>2016-10-26T15:36:04.009Z</time>
      </trkpt>
      <trkpt lat="47.0915" lon="-0.86558">
        <ele>105</ele>
        <time>2016-10-26T15:36:08.009Z</time>
      </trkpt>
      <trkpt lat="47.09148" lon="-0.86563">
        <ele>105</ele>
        <time>2016-10-26T15:36:11.009Z</time>
      </trkpt>
      <trkpt lat="47.09147" lon="-0.86569">
        <ele>105</ele>
        <time>2016-10-26T15:36:14.009Z</time>
      </trkpt>
      <trkpt lat="47.09145" lon="-0.86574">
        <ele>105</ele>
        <time>2016-10-26T15:36:17.009Z</time>
      </trkpt>
      <trkpt lat="47.09143" lon="-0.86579">
        <ele>105</ele>
        <time>2016-10-26T15:36:20.009Z</time>
      </trkpt>
      <trkpt lat="47.0914" lon="-0.86585">
        <ele>105</ele>
        <time>2016-10-26T15:36:24.009Z</time>
      </trkpt>
      <trkpt lat="47.09138" lon="-0.8659">
        <ele>105</ele>
        <time>2016-10-26T15:36:27.009Z</time>
      </trkpt>
      <trkpt lat="47.09136" lon="-0.86595">
        <ele>105.4790016</ele>
        <time>2016-10-26T15:36:30.009Z</time>
      </trkpt>
      <trkpt lat="47.09134" lon="-0.86602">
        <ele>106</ele>
        <time>2016-10-26T15:36:34.009Z</time>
      </trkpt>
      <trkpt lat="47.09132" lon="-0.86606">
        <ele>106</ele>
        <time>2016-10-26T15:36:37.009Z</time>
      </trkpt>
      <trkpt lat="47.09129" lon="-0.86612">
        <ele>106</ele>
        <time>2016-10-26T15:36:40.009Z</time>
      </trkpt>
      <trkpt lat="47.09127" lon="-0.86617">
        <ele>106</ele>
        <time>2016-10-26T15:36:43.009Z</time>
      </trkpt>
      <trkpt lat="47.09124" lon="-0.86623">
        <ele>106</ele>
        <time>2016-10-26T15:36:47.009Z</time>
      </trkpt>
      <trkpt lat="47.09123" lon="-0.86628">
        <ele>106</ele>
        <time>2016-10-26T15:36:50.009Z</time>
      </trkpt>
      <trkpt lat="47.09122" lon="-0.86633">
        <ele>106</ele>
        <time>2016-10-26T15:36:53.009Z</time>
      </trkpt>
      <trkpt lat="47.0912" lon="-0.86638">
        <ele>106</ele>
        <time>2016-10-26T15:36:56.009Z</time>
      </trkpt>
      <trkpt lat="47.09117" lon="-0.86644">
        <ele>106</ele>
        <time>2016-10-26T15:37:00.009Z</time>
      </trkpt>
      <trkpt lat="47.09116" lon="-0.8665">
        <ele>106</ele>
        <time>2016-10-26T15:37:04.009Z</time>
      </trkpt>
      <trkpt lat="47.09114" lon="-0.86656">
        <ele>106</ele>
        <time>2016-10-26T15:37:07.009Z</time>
      </trkpt>
      <trkpt lat="47.09113" lon="-0.86662">
        <ele>106</ele>
        <time>2016-10-26T15:37:11.009Z</time>
      </trkpt>
      <trkpt lat="47.0911" lon="-0.86668">
        <ele>106</ele>
        <time>2016-10-26T15:37:15.009Z</time>
      </trkpt>
      <trkpt lat="47.09109" lon="-0.86673">
        <ele>106</ele>
        <time>2016-10-26T15:37:18.009Z</time>
      </trkpt>
      <trkpt lat="47.09106" lon="-0.86678">
        <ele>106</ele>
        <time>2016-10-26T15:37:21.009Z</time>
      </trkpt>
      <trkpt lat="47.09104" lon="-0.86684">
        <ele>106</ele>
        <time>2016-10-26T15:37:25.009Z</time>
      </trkpt>
      <trkpt lat="47.09103" lon="-0.8669">
        <ele>106</ele>
        <time>2016-10-26T15:37:28.009Z</time>
      </trkpt>
      <trkpt lat="47.091" lon="-0.86694">
        <ele>106</ele>
        <time>2016-10-26T15:37:31.009Z</time>
      </trkpt>
      <trkpt lat="47.09098" lon="-0.86699">
        <ele>106</ele>
        <time>2016-10-26T15:37:34.009Z</time>
      </trkpt>
      <trkpt lat="47.09096" lon="-0.86704">
        <ele>106</ele>
        <time>2016-10-26T15:37:37.009Z</time>
      </trkpt>
      <trkpt lat="47.09094" lon="-0.8671">
        <ele>106</ele>
        <time>2016-10-26T15:37:40.009Z</time>
      </trkpt>
      <trkpt lat="47.09092" lon="-0.86715">
        <ele>106</ele>
        <time>2016-10-26T15:37:43.009Z</time>
      </trkpt>
      <trkpt lat="47.09091" lon="-0.8672">
        <ele>106</ele>
        <time>2016-10-26T15:37:46.009Z</time>
      </trkpt>
      <trkpt lat="47.09089" lon="-0.86726">
        <ele>106</ele>
        <time>2016-10-26T15:37:50.009Z</time>
      </trkpt>
      <trkpt lat="47.09088" lon="-0.86732">
        <ele>106</ele>
        <time>2016-10-26T15:37:54.009Z</time>
      </trkpt>
      <trkpt lat="47.09086" lon="-0.86739">
        <ele>106</ele>
        <time>2016-10-26T15:37:58.009Z</time>
      </trkpt>
      <trkpt lat="47.09083" lon="-0.86743">
        <ele>106</ele>
        <time>2016-10-26T15:38:01.009Z</time>
      </trkpt>
      <trkpt lat="47.09082" lon="-0.86748">
        <ele>106</ele>
        <time>2016-10-26T15:38:04.009Z</time>
      </trkpt>
      <trkpt lat="47.0908" lon="-0.86753">
        <ele>106</ele>
        <time>2016-10-26T15:38:07.009Z</time>
      </trkpt>
      <trkpt lat="47.09078" lon="-0.86758">
        <ele>106.43545346645</ele>
        <time>2016-10-26T15:38:10.009Z</time>
      </trkpt>
      <trkpt lat="47.09076" lon="-0.86763">
        <ele>107</ele>
        <time>2016-10-26T15:38:17.009Z</time>
      </trkpt>
      <trkpt lat="47.09074" lon="-0.86768">
        <ele>107</ele>
        <time>2016-10-26T15:38:19.009Z</time>
      </trkpt>
      <trkpt lat="47.09072" lon="-0.86774">
        <ele>107</ele>
        <time>2016-10-26T15:38:22.009Z</time>
      </trkpt>
      <trkpt lat="47.0907" lon="-0.86779">
        <ele>107</ele>
        <time>2016-10-26T15:38:25.009Z</time>
      </trkpt>
      <trkpt lat="47.09068" lon="-0.86785">
        <ele>107</ele>
        <time>2016-10-26T15:38:28.009Z</time>
      </trkpt>
      <trkpt lat="47.09066" lon="-0.8679">
        <ele>107</ele>
        <time>2016-10-26T15:38:31.009Z</time>
      </trkpt>
      <trkpt lat="47.09063" lon="-0.86795">
        <ele>107</ele>
        <time>2016-10-26T15:38:34.009Z</time>
      </trkpt>
      <trkpt lat="47.09062" lon="-0.868">
        <ele>107</ele>
        <time>2016-10-26T15:38:37.009Z</time>
      </trkpt>
      <trkpt lat="47.09059" lon="-0.86805">
        <ele>107</ele>
        <time>2016-10-26T15:38:40.009Z</time>
      </trkpt>
      <trkpt lat="47.09057" lon="-0.8681">
        <ele>107</ele>
        <time>2016-10-26T15:38:43.009Z</time>
      </trkpt>
      <trkpt lat="47.09055" lon="-0.86815">
        <ele>107</ele>
        <time>2016-10-26T15:38:46.009Z</time>
      </trkpt>
      <trkpt lat="47.09053" lon="-0.8682">
        <ele>107</ele>
        <time>2016-10-26T15:38:49.009Z</time>
      </trkpt>
      <trkpt lat="47.09051" lon="-0.86826">
        <ele>107</ele>
        <time>2016-10-26T15:38:52.009Z</time>
      </trkpt>
      <trkpt lat="47.09049" lon="-0.86831">
        <ele>107</ele>
        <time>2016-10-26T15:38:55.009Z</time>
      </trkpt>
      <trkpt lat="47.09046" lon="-0.86837">
        <ele>107</ele>
        <time>2016-10-26T15:38:59.009Z</time>
      </trkpt>
      <trkpt lat="47.09044" lon="-0.86842">
        <ele>107</ele>
        <time>2016-10-26T15:39:02.009Z</time>
      </trkpt>
      <trkpt lat="47.09042" lon="-0.86847">
        <ele>107</ele>
        <time>2016-10-26T15:39:05.009Z</time>
      </trkpt>
      <trkpt lat="47.0904" lon="-0.86851">
        <ele>107</ele>
        <time>2016-10-26T15:39:08.009Z</time>
      </trkpt>
      <trkpt lat="47.09037" lon="-0.86856">
        <ele>107</ele>
        <time>2016-10-26T15:39:11.009Z</time>
      </trkpt>
      <trkpt lat="47.09036" lon="-0.86861">
        <ele>107</ele>
        <time>2016-10-26T15:39:14.009Z</time>
      </trkpt>
      <trkpt lat="47.09034" lon="-0.86866">
        <ele>107</ele>
        <time>2016-10-26T15:39:16.009Z</time>
      </trkpt>
      <trkpt lat="47.09032" lon="-0.8687">
        <ele>107</ele>
        <time>2016-10-26T15:39:19.009Z</time>
      </trkpt>
      <trkpt lat="47.0903" lon="-0.86877">
        <ele>107</ele>
        <time>2016-10-26T15:39:23.009Z</time>
      </trkpt>
      <trkpt lat="47.09029" lon="-0.86882">
        <ele>107</ele>
        <time>2016-10-26T15:39:26.009Z</time>
      </trkpt>
      <trkpt lat="47.09027" lon="-0.86887">
        <ele>107</ele>
        <time>2016-10-26T15:39:29.009Z</time>
      </trkpt>
      <trkpt lat="47.09025" lon="-0.86892">
        <ele>107</ele>
        <time>2016-10-26T15:39:32.009Z</time>
      </trkpt>
      <trkpt lat="47.09023" lon="-0.86897">
        <ele>107</ele>
        <time>2016-10-26T15:39:35.009Z</time>
      </trkpt>
      <trkpt lat="47.09021" lon="-0.86902">
        <ele>107</ele>
        <time>2016-10-26T15:39:38.009Z</time>
      </trkpt>
      <trkpt lat="47.09019" lon="-0.86907">
        <ele>107</ele>
        <time>2016-10-26T15:39:41.009Z</time>
      </trkpt>
      <trkpt lat="47.09017" lon="-0.86912">
        <ele>107</ele>
        <time>2016-10-26T15:39:44.009Z</time>
      </trkpt>
      <trkpt lat="47.09015" lon="-0.86917">
        <ele>107</ele>
        <time>2016-10-26T15:39:47.009Z</time>
      </trkpt>
      <trkpt lat="47.09013" lon="-0.86923">
        <ele>108</ele>
        <time>2016-10-26T15:39:51.009Z</time>
      </trkpt>
      <trkpt lat="47.0901" lon="-0.86929">
        <ele>108</ele>
        <time>2016-10-26T15:39:58.009Z</time>
      </trkpt>
      <trkpt lat="47.09008" lon="-0.86936">
        <ele>108</ele>
        <time>2016-10-26T15:40:01.009Z</time>
      </trkpt>
      <trkpt lat="47.09006" lon="-0.86942">
        <ele>108</ele>
        <time>2016-10-26T15:40:04.009Z</time>
      </trkpt>
      <trkpt lat="47.09004" lon="-0.86948">
        <ele>108</ele>
        <time>2016-10-26T15:40:07.009Z</time>
      </trkpt>
      <trkpt lat="47.09003" lon="-0.86955">
        <ele>108</ele>
        <time>2016-10-26T15:40:10.009Z</time>
      </trkpt>
      <trkpt lat="47.09002" lon="-0.8696">
        <ele>108</ele>
        <time>2016-10-26T15:40:13.009Z</time>
      </trkpt>
      <trkpt lat="47.09" lon="-0.86966">
        <ele>108</ele>
        <time>2016-10-26T15:40:16.009Z</time>
      </trkpt>
      <trkpt lat="47.08997" lon="-0.86971">
        <ele>108</ele>
        <time>2016-10-26T15:40:19.009Z</time>
      </trkpt>
      <trkpt lat="47.08994" lon="-0.86976">
        <ele>108</ele>
        <time>2016-10-26T15:40:22.009Z</time>
      </trkpt>
      <trkpt lat="47.08991" lon="-0.86982">
        <ele>108</ele>
        <time>2016-10-26T15:40:26.009Z</time>
      </trkpt>
      <trkpt lat="47.08989" lon="-0.86988">
        <ele>108</ele>
        <time>2016-10-26T15:40:29.009Z</time>
      </trkpt>
      <trkpt lat="47.08987" lon="-0.86994">
        <ele>108</ele>
        <time>2016-10-26T15:40:32.009Z</time>
      </trkpt>
      <trkpt lat="47.08985" lon="-0.86999">
        <ele>108</ele>
        <time>2016-10-26T15:40:35.009Z</time>
      </trkpt>
      <trkpt lat="47.08983" lon="-0.87005">
        <ele>108</ele>
        <time>2016-10-26T15:40:38.009Z</time>
      </trkpt>
      <trkpt lat="47.08982" lon="-0.8701">
        <ele>108</ele>
        <time>2016-10-26T15:40:41.009Z</time>
      </trkpt>
      <trkpt lat="47.08979" lon="-0.87014">
        <ele>108</ele>
        <time>2016-10-26T15:40:44.009Z</time>
      </trkpt>
      <trkpt lat="47.08977" lon="-0.8702">
        <ele>108</ele>
        <time>2016-10-26T15:40:47.009Z</time>
      </trkpt>
      <trkpt lat="47.08975" lon="-0.87025">
        <ele>108</ele>
        <time>2016-10-26T15:40:50.009Z</time>
      </trkpt>
      <trkpt lat="47.08973" lon="-0.87031">
        <ele>108</ele>
        <time>2016-10-26T15:40:53.009Z</time>
      </trkpt>
      <trkpt lat="47.08971" lon="-0.87036">
        <ele>108</ele>
        <time>2016-10-26T15:40:56.009Z</time>
      </trkpt>
      <trkpt lat="47.0897" lon="-0.87041">
        <ele>108</ele>
        <time>2016-10-26T15:40:59.009Z</time>
      </trkpt>
      <trkpt lat="47.08968" lon="-0.87046">
        <ele>108</ele>
        <time>2016-10-26T15:41:02.009Z</time>
      </trkpt>
      <trkpt lat="47.08966" lon="-0.87051">
        <ele>108</ele>
        <time>2016-10-26T15:41:05.009Z</time>
      </trkpt>
      <trkpt lat="47.08964" lon="-0.87056">
        <ele>108</ele>
        <time>2016-10-26T15:41:08.009Z</time>
      </trkpt>
      <trkpt lat="47.08963" lon="-0.87061">
        <ele>108</ele>
        <time>2016-10-26T15:41:11.009Z</time>
      </trkpt>
      <trkpt lat="47.08961" lon="-0.87066">
        <ele>108</ele>
        <time>2016-10-26T15:41:14.009Z</time>
      </trkpt>
      <trkpt lat="47.08959" lon="-0.87071">
        <ele>108.41293241379</ele>
        <time>2016-10-26T15:41:17.009Z</time>
      </trkpt>
      <trkpt lat="47.08957" lon="-0.87077">
        <ele>109</ele>
        <time>2016-10-26T15:41:21.009Z</time>
      </trkpt>
      <trkpt lat="47.08954" lon="-0.87083">
        <ele>109</ele>
        <time>2016-10-26T15:41:25.009Z</time>
      </trkpt>
      <trkpt lat="47.08953" lon="-0.87089">
        <ele>109</ele>
        <time>2016-10-26T15:41:28.009Z</time>
      </trkpt>
      <trkpt lat="47.08951" lon="-0.87094">
        <ele>109</ele>
        <time>2016-10-26T15:41:31.009Z</time>
      </trkpt>
      <trkpt lat="47.08949" lon="-0.87099">
        <ele>109</ele>
        <time>2016-10-26T15:41:35.009Z</time>
      </trkpt>
      <trkpt lat="47.08947" lon="-0.87105">
        <ele>109</ele>
        <time>2016-10-26T15:41:38.009Z</time>
      </trkpt>
      <trkpt lat="47.08945" lon="-0.8711">
        <ele>109</ele>
        <time>2016-10-26T15:41:41.009Z</time>
      </trkpt>
      <trkpt lat="47.08943" lon="-0.87115">
        <ele>109</ele>
        <time>2016-10-26T15:41:44.009Z</time>
      </trkpt>
      <trkpt lat="47.08941" lon="-0.87121">
        <ele>109</ele>
        <time>2016-10-26T15:41:47.009Z</time>
      </trkpt>
      <trkpt lat="47.08939" lon="-0.87126">
        <ele>109</ele>
        <time>2016-10-26T15:41:51.009Z</time>
      </trkpt>
      <trkpt lat="47.08937" lon="-0.87131">
        <ele>109</ele>
        <time>2016-10-26T15:41:54.009Z</time>
      </trkpt>
      <trkpt lat="47.08936" lon="-0.87135">
        <ele>109</ele>
        <time>2016-10-26T15:41:57.009Z</time>
      </trkpt>
      <trkpt lat="47.08934" lon="-0.8714">
        <ele>109</ele>
        <time>2016-10-26T15:42:00.009Z</time>
      </trkpt>
      <trkpt lat="47.08932" lon="-0.87145">
        <ele>109</ele>
        <time>2016-10-26T15:42:03.009Z</time>
      </trkpt>
      <trkpt lat="47.0893" lon="-0.8715">
        <ele>109</ele>
        <time>2016-10-26T15:42:06.009Z</time>
      </trkpt>
      <trkpt lat="47.08928" lon="-0.87155">
        <ele>110</ele>
        <time>2016-10-26T15:42:09.009Z</time>
      </trkpt>
      <trkpt lat="47.08926" lon="-0.8716">
        <ele>110</ele>
        <time>2016-10-26T15:42:12.009Z</time>
      </trkpt>
      <trkpt lat="47.08924" lon="-0.87165">
        <ele>110</ele>
        <time>2016-10-26T15:42:16.009Z</time>
      </trkpt>
      <trkpt lat="47.08922" lon="-0.87171">
        <ele>110</ele>
        <time>2016-10-26T15:42:19.009Z</time>
      </trkpt>
      <trkpt lat="47.0892" lon="-0.87176">
        <ele>110</ele>
        <time>2016-10-26T15:42:22.009Z</time>
      </trkpt>
      <trkpt lat="47.08918" lon="-0.87183">
        <ele>110</ele>
        <time>2016-10-26T15:42:25.009Z</time>
      </trkpt>
      <trkpt lat="47.08916" lon="-0.87189">
        <ele>110</ele>
        <time>2016-10-26T15:42:28.009Z</time>
      </trkpt>
      <trkpt lat="47.08914" lon="-0.87193">
        <ele>110</ele>
        <time>2016-10-26T15:42:31.009Z</time>
      </trkpt>
      <trkpt lat="47.08912" lon="-0.87199">
        <ele>110</ele>
        <time>2016-10-26T15:42:34.009Z</time>
      </trkpt>
      <trkpt lat="47.0891" lon="-0.87204">
        <ele>110</ele>
        <time>2016-10-26T15:42:37.009Z</time>
      </trkpt>
      <trkpt lat="47.08909" lon="-0.87209">
        <ele>110</ele>
        <time>2016-10-26T15:42:40.009Z</time>
      </trkpt>
      <trkpt lat="47.08907" lon="-0.87214">
        <ele>110</ele>
        <time>2016-10-26T15:42:46.009Z</time>
      </trkpt>
      <trkpt lat="47.08905" lon="-0.87221">
        <ele>110</ele>
        <time>2016-10-26T15:42:49.009Z</time>
      </trkpt>
      <trkpt lat="47.08902" lon="-0.87226">
        <ele>110</ele>
        <time>2016-10-26T15:42:52.009Z</time>
      </trkpt>
      <trkpt lat="47.08899" lon="-0.87231">
        <ele>110</ele>
        <time>2016-10-26T15:42:55.009Z</time>
      </trkpt>
      <trkpt lat="47.08897" lon="-0.87238">
        <ele>110</ele>
        <time>2016-10-26T15:42:58.009Z</time>
      </trkpt>
      <trkpt lat="47.08895" lon="-0.87243">
        <ele>110</ele>
        <time>2016-10-26T15:43:01.009Z</time>
      </trkpt>
      <trkpt lat="47.08893" lon="-0.87248">
        <ele>110</ele>
        <time>2016-10-26T15:43:04.009Z</time>
      </trkpt>
      <trkpt lat="47.08891" lon="-0.87253">
        <ele>110</ele>
        <time>2016-10-26T15:43:07.009Z</time>
      </trkpt>
      <trkpt lat="47.08889" lon="-0.87258">
        <ele>110</ele>
        <time>2016-10-26T15:43:10.009Z</time>
      </trkpt>
      <trkpt lat="47.08887" lon="-0.87264">
        <ele>110</ele>
        <time>2016-10-26T15:43:13.009Z</time>
      </trkpt>
      <trkpt lat="47.08886" lon="-0.87268">
        <ele>110</ele>
        <time>2016-10-26T15:43:16.009Z</time>
      </trkpt>
      <trkpt lat="47.08884" lon="-0.87273">
        <ele>110</ele>
        <time>2016-10-26T15:43:19.009Z</time>
      </trkpt>
      <trkpt lat="47.08883" lon="-0.87279">
        <ele>110</ele>
        <time>2016-10-26T15:43:22.009Z</time>
      </trkpt>
      <trkpt lat="47.08881" lon="-0.87284">
        <ele>110</ele>
        <time>2016-10-26T15:43:25.009Z</time>
      </trkpt>
      <trkpt lat="47.08879" lon="-0.87288">
        <ele>110</ele>
        <time>2016-10-26T15:43:28.009Z</time>
      </trkpt>
      <trkpt lat="47.08877" lon="-0.87294">
        <ele>110</ele>
        <time>2016-10-26T15:43:31.009Z</time>
      </trkpt>
      <trkpt lat="47.08875" lon="-0.873">
        <ele>110</ele>
        <time>2016-10-26T15:43:35.009Z</time>
      </trkpt>
      <trkpt lat="47.08874" lon="-0.87305">
        <ele>110</ele>
        <time>2016-10-26T15:43:38.009Z</time>
      </trkpt>
      <trkpt lat="47.08872" lon="-0.87309">
        <ele>110</ele>
        <time>2016-10-26T15:43:41.009Z</time>
      </trkpt>
      <trkpt lat="47.0887" lon="-0.87315">
        <ele>111</ele>
        <time>2016-10-26T15:43:44.009Z</time>
      </trkpt>
      <trkpt lat="47.08868" lon="-0.8732">
        <ele>111</ele>
        <time>2016-10-26T15:43:47.009Z</time>
      </trkpt>
      <trkpt lat="47.08867" lon="-0.87327">
        <ele>111</ele>
        <time>2016-10-26T15:43:51.009Z</time>
      </trkpt>
      <trkpt lat="47.08865" lon="-0.87333">
        <ele>111</ele>
        <time>2016-10-26T15:43:56.009Z</time>
      </trkpt>
      <trkpt lat="47.08863" lon="-0.8734">
        <ele>111</ele>
        <time>2016-10-26T15:44:00.009Z</time>
      </trkpt>
      <trkpt lat="47.08861" lon="-0.87345">
        <ele>111</ele>
        <time>2016-10-26T15:44:03.009Z</time>
      </trkpt>
      <trkpt lat="47.0886" lon="-0.87351">
        <ele>111</ele>
        <time>2016-10-26T15:44:06.009Z</time>
      </trkpt>
      <trkpt lat="47.08858" lon="-0.87356">
        <ele>111</ele>
        <time>2016-10-26T15:44:09.009Z</time>
      </trkpt>
      <trkpt lat="47.08856" lon="-0.8736">
        <ele>111</ele>
        <time>2016-10-26T15:44:12.009Z</time>
      </trkpt>
      <trkpt lat="47.08854" lon="-0.87366">
        <ele>111</ele>
        <time>2016-10-26T15:44:15.009Z</time>
      </trkpt>
      <trkpt lat="47.08852" lon="-0.87371">
        <ele>111</ele>
        <time>2016-10-26T15:44:18.009Z</time>
      </trkpt>
      <trkpt lat="47.0885" lon="-0.87375">
        <ele>111</ele>
        <time>2016-10-26T15:44:22.009Z</time>
      </trkpt>
      <trkpt lat="47.08847" lon="-0.87379">
        <ele>111</ele>
        <time>2016-10-26T15:44:25.009Z</time>
      </trkpt>
      <trkpt lat="47.08843" lon="-0.87383">
        <ele>111</ele>
        <time>2016-10-26T15:44:28.009Z</time>
      </trkpt>
      <trkpt lat="47.0884" lon="-0.87386">
        <ele>111</ele>
        <time>2016-10-26T15:44:31.009Z</time>
      </trkpt>
      <trkpt lat="47.08836" lon="-0.87388">
        <ele>111</ele>
        <time>2016-10-26T15:44:34.009Z</time>
      </trkpt>
      <trkpt lat="47.08833" lon="-0.87391">
        <ele>111</ele>
        <time>2016-10-26T15:44:37.009Z</time>
      </trkpt>
      <trkpt lat="47.0883" lon="-0.87394">
        <ele>111</ele>
        <time>2016-10-26T15:44:40.009Z</time>
      </trkpt>
      <trkpt lat="47.08826" lon="-0.87398">
        <ele>111</ele>
        <time>2016-10-26T15:44:43.009Z</time>
      </trkpt>
      <trkpt lat="47.08823" lon="-0.87402">
        <ele>111</ele>
        <time>2016-10-26T15:44:46.009Z</time>
      </trkpt>
      <trkpt lat="47.08822" lon="-0.87407">
        <ele>111</ele>
        <time>2016-10-26T15:44:49.009Z</time>
      </trkpt>
      <trkpt lat="47.0882" lon="-0.87412">
        <ele>111</ele>
        <time>2016-10-26T15:44:52.009Z</time>
      </trkpt>
      <trkpt lat="47.08817" lon="-0.87418">
        <ele>111</ele>
        <time>2016-10-26T15:44:55.009Z</time>
      </trkpt>
      <trkpt lat="47.08815" lon="-0.87424">
        <ele>111</ele>
        <time>2016-10-26T15:44:58.009Z</time>
      </trkpt>
      <trkpt lat="47.08814" lon="-0.87429">
        <ele>111</ele>
        <time>2016-10-26T15:45:01.009Z</time>
      </trkpt>
      <trkpt lat="47.08812" lon="-0.87434">
        <ele>111</ele>
        <time>2016-10-26T15:45:04.009Z</time>
      </trkpt>
      <trkpt lat="47.08811" lon="-0.8744">
        <ele>111</ele>
        <time>2016-10-26T15:45:07.009Z</time>
      </trkpt>
      <trkpt lat="47.08809" lon="-0.87445">
        <ele>111</ele>
        <time>2016-10-26T15:45:10.009Z</time>
      </trkpt>
      <trkpt lat="47.08806" lon="-0.8745">
        <ele>111</ele>
        <time>2016-10-26T15:45:14.009Z</time>
      </trkpt>
      <trkpt lat="47.08802" lon="-0.87454">
        <ele>111</ele>
        <time>2016-10-26T15:45:19.009Z</time>
      </trkpt>
      <trkpt lat="47.08798" lon="-0.87456">
        <ele>111</ele>
        <time>2016-10-26T15:45:22.009Z</time>
      </trkpt>
      <trkpt lat="47.08795" lon="-0.87459">
        <ele>111</ele>
        <time>2016-10-26T15:45:25.009Z</time>
      </trkpt>
      <trkpt lat="47.08792" lon="-0.87462">
        <ele>111</ele>
        <time>2016-10-26T15:45:28.009Z</time>
      </trkpt>
      <trkpt lat="47.08789" lon="-0.87465">
        <ele>111</ele>
        <time>2016-10-26T15:45:31.009Z</time>
      </trkpt>
      <trkpt lat="47.08785" lon="-0.87468">
        <ele>111</ele>
        <time>2016-10-26T15:45:34.009Z</time>
      </trkpt>
      <trkpt lat="47.08781" lon="-0.8747">
        <ele>111</ele>
        <time>2016-10-26T15:45:37.009Z</time>
      </trkpt>
      <trkpt lat="47.08777" lon="-0.87473">
        <ele>111</ele>
        <time>2016-10-26T15:45:41.009Z</time>
      </trkpt>
      <trkpt lat="47.08774" lon="-0.87476">
        <ele>111</ele>
        <time>2016-10-26T15:45:44.009Z</time>
      </trkpt>
      <trkpt lat="47.08771" lon="-0.87478">
        <ele>111</ele>
        <time>2016-10-26T15:45:47.009Z</time>
      </trkpt>
      <trkpt lat="47.08767" lon="-0.87482">
        <ele>111</ele>
        <time>2016-10-26T15:45:51.009Z</time>
      </trkpt>
      <trkpt lat="47.08764" lon="-0.87484">
        <ele>111</ele>
        <time>2016-10-26T15:45:54.009Z</time>
      </trkpt>
      <trkpt lat="47.0876" lon="-0.87486">
        <ele>111</ele>
        <time>2016-10-26T15:45:57.009Z</time>
      </trkpt>
      <trkpt lat="47.08757" lon="-0.87489">
        <ele>111</ele>
        <time>2016-10-26T15:46:00.009Z</time>
      </trkpt>
      <trkpt lat="47.08753" lon="-0.87492">
        <ele>111</ele>
        <time>2016-10-26T15:46:03.009Z</time>
      </trkpt>
      <trkpt lat="47.0875" lon="-0.87495">
        <ele>111</ele>
        <time>2016-10-26T15:46:06.009Z</time>
      </trkpt>
      <trkpt lat="47.08747" lon="-0.87498">
        <ele>111</ele>
        <time>2016-10-26T15:46:09.009Z</time>
      </trkpt>
      <trkpt lat="47.08743" lon="-0.87501">
        <ele>111</ele>
        <time>2016-10-26T15:46:12.009Z</time>
      </trkpt>
      <trkpt lat="47.0874" lon="-0.87503">
        <ele>112</ele>
        <time>2016-10-26T15:46:15.009Z</time>
      </trkpt>
      <trkpt lat="47.08736" lon="-0.87507">
        <ele>112</ele>
        <time>2016-10-26T15:46:19.009Z</time>
      </trkpt>
      <trkpt lat="47.08733" lon="-0.8751">
        <ele>112</ele>
        <time>2016-10-26T15:46:22.009Z</time>
      </trkpt>
      <trkpt lat="47.08729" lon="-0.87513">
        <ele>112</ele>
        <time>2016-10-26T15:46:25.009Z</time>
      </trkpt>
      <trkpt lat="47.08725" lon="-0.87516">
        <ele>112</ele>
        <time>2016-10-26T15:46:29.009Z</time>
      </trkpt>
      <trkpt lat="47.08721" lon="-0.87519">
        <ele>112</ele>
        <time>2016-10-26T15:46:32.009Z</time>
      </trkpt>
      <trkpt lat="47.08718" lon="-0.87522">
        <ele>112</ele>
        <time>2016-10-26T15:46:35.009Z</time>
      </trkpt>
      <trkpt lat="47.08714" lon="-0.87526">
        <ele>112</ele>
        <time>2016-10-26T15:46:39.009Z</time>
      </trkpt>
      <trkpt lat="47.08709" lon="-0.87528">
        <ele>112</ele>
        <time>2016-10-26T15:46:42.009Z</time>
      </trkpt>
      <trkpt lat="47.08706" lon="-0.8753">
        <ele>112</ele>
        <time>2016-10-26T15:46:45.009Z</time>
      </trkpt>
      <trkpt lat="47.08703" lon="-0.87533">
        <ele>112</ele>
        <time>2016-10-26T15:46:48.009Z</time>
      </trkpt>
      <trkpt lat="47.08699" lon="-0.87535">
        <ele>112</ele>
        <time>2016-10-26T15:46:51.009Z</time>
      </trkpt>
      <trkpt lat="47.08695" lon="-0.87538">
        <ele>112</ele>
        <time>2016-10-26T15:46:55.009Z</time>
      </trkpt>
      <trkpt lat="47.08691" lon="-0.87542">
        <ele>112</ele>
        <time>2016-10-26T15:46:59.009Z</time>
      </trkpt>
      <trkpt lat="47.08687" lon="-0.87544">
        <ele>112</ele>
        <time>2016-10-26T15:47:03.009Z</time>
      </trkpt>
      <trkpt lat="47.08682" lon="-0.87546">
        <ele>112</ele>
        <time>2016-10-26T15:47:07.009Z</time>
      </trkpt>
      <trkpt lat="47.08678" lon="-0.87549">
        <ele>112</ele>
        <time>2016-10-26T15:47:10.009Z</time>
      </trkpt>
      <trkpt lat="47.08674" lon="-0.87552">
        <ele>112</ele>
        <time>2016-10-26T15:47:14.009Z</time>
      </trkpt>
      <trkpt lat="47.08671" lon="-0.87554">
        <ele>112</ele>
        <time>2016-10-26T15:47:17.009Z</time>
      </trkpt>
      <trkpt lat="47.08667" lon="-0.87555">
        <ele>112</ele>
        <time>2016-10-26T15:47:20.009Z</time>
      </trkpt>
      <trkpt lat="47.08663" lon="-0.87557">
        <ele>112</ele>
        <time>2016-10-26T15:47:23.009Z</time>
      </trkpt>
      <trkpt lat="47.08659" lon="-0.8756">
        <ele>112</ele>
        <time>2016-10-26T15:47:27.009Z</time>
      </trkpt>
      <trkpt lat="47.08655" lon="-0.87563">
        <ele>113</ele>
        <time>2016-10-26T15:47:31.009Z</time>
      </trkpt>
      <trkpt lat="47.0865" lon="-0.87565">
        <ele>113</ele>
        <time>2016-10-26T15:47:35.009Z</time>
      </trkpt>
      <trkpt lat="47.08647" lon="-0.87567">
        <ele>113</ele>
        <time>2016-10-26T15:47:39.009Z</time>
      </trkpt>
      <trkpt lat="47.08643" lon="-0.87569">
        <ele>113</ele>
        <time>2016-10-26T15:47:42.009Z</time>
      </trkpt>
      <trkpt lat="47.08639" lon="-0.87571">
        <ele>113</ele>
        <time>2016-10-26T15:47:46.009Z</time>
      </trkpt>
      <trkpt lat="47.08634" lon="-0.87572">
        <ele>113</ele>
        <time>2016-10-26T15:47:50.009Z</time>
      </trkpt>
      <trkpt lat="47.08631" lon="-0.87572">
        <ele>113</ele>
        <time>2016-10-26T15:47:53.009Z</time>
      </trkpt>
      <trkpt lat="47.08627" lon="-0.87572">
        <ele>113</ele>
        <time>2016-10-26T15:47:56.009Z</time>
      </trkpt>
      <trkpt lat="47.08622" lon="-0.87571">
        <ele>113</ele>
        <time>2016-10-26T15:48:00.009Z</time>
      </trkpt>
      <trkpt lat="47.08618" lon="-0.87571">
        <ele>113</ele>
        <time>2016-10-26T15:48:03.009Z</time>
      </trkpt>
      <trkpt lat="47.08615" lon="-0.87571">
        <ele>113</ele>
        <time>2016-10-26T15:48:06.009Z</time>
      </trkpt>
      <trkpt lat="47.08611" lon="-0.8757">
        <ele>113</ele>
        <time>2016-10-26T15:48:09.009Z</time>
      </trkpt>
      <trkpt lat="47.08607" lon="-0.87569">
        <ele>113</ele>
        <time>2016-10-26T15:48:12.009Z</time>
      </trkpt>
      <trkpt lat="47.08603" lon="-0.87569">
        <ele>113</ele>
        <time>2016-10-26T15:48:15.009Z</time>
      </trkpt>
      <trkpt lat="47.086" lon="-0.87569">
        <ele>113</ele>
        <time>2016-10-26T15:48:18.009Z</time>
      </trkpt>
      <trkpt lat="47.08596" lon="-0.87569">
        <ele>113</ele>
        <time>2016-10-26T15:48:21.009Z</time>
      </trkpt>
      <trkpt lat="47.08591" lon="-0.8757">
        <ele>114</ele>
        <time>2016-10-26T15:48:25.009Z</time>
      </trkpt>
      <trkpt lat="47.08587" lon="-0.87571">
        <ele>114</ele>
        <time>2016-10-26T15:48:29.009Z</time>
      </trkpt>
      <trkpt lat="47.08583" lon="-0.87571">
        <ele>114</ele>
        <time>2016-10-26T15:48:32.009Z</time>
      </trkpt>
      <trkpt lat="47.08578" lon="-0.87572">
        <ele>114</ele>
        <time>2016-10-26T15:48:36.009Z</time>
      </trkpt>
      <trkpt lat="47.08574" lon="-0.87575">
        <ele>114</ele>
        <time>2016-10-26T15:48:40.009Z</time>
      </trkpt>
      <trkpt lat="47.0857" lon="-0.87577">
        <ele>114</ele>
        <time>2016-10-26T15:48:43.009Z</time>
      </trkpt>
      <trkpt lat="47.08566" lon="-0.87579">
        <ele>114</ele>
        <time>2016-10-26T15:48:46.009Z</time>
      </trkpt>
      <trkpt lat="47.08562" lon="-0.8758">
        <ele>114</ele>
        <time>2016-10-26T15:48:49.009Z</time>
      </trkpt>
      <trkpt lat="47.08558" lon="-0.87582">
        <ele>114</ele>
        <time>2016-10-26T15:48:52.009Z</time>
      </trkpt>
      <trkpt lat="47.08554" lon="-0.87584">
        <ele>114</ele>
        <time>2016-10-26T15:48:55.009Z</time>
      </trkpt>
      <trkpt lat="47.08551" lon="-0.87586">
        <ele>114</ele>
        <time>2016-10-26T15:48:58.009Z</time>
      </trkpt>
      <trkpt lat="47.08547" lon="-0.87589">
        <ele>114</ele>
        <time>2016-10-26T15:49:02.009Z</time>
      </trkpt>
      <trkpt lat="47.08542" lon="-0.87592">
        <ele>114</ele>
        <time>2016-10-26T15:49:06.009Z</time>
      </trkpt>
      <trkpt lat="47.08539" lon="-0.87594">
        <ele>114</ele>
        <time>2016-10-26T15:49:09.009Z</time>
      </trkpt>
      <trkpt lat="47.08535" lon="-0.87597">
        <ele>114</ele>
        <time>2016-10-26T15:49:12.009Z</time>
      </trkpt>
      <trkpt lat="47.08531" lon="-0.87599">
        <ele>115</ele>
        <time>2016-10-26T15:49:15.009Z</time>
      </trkpt>
      <trkpt lat="47.08528" lon="-0.87601">
        <ele>115</ele>
        <time>2016-10-26T15:49:18.009Z</time>
      </trkpt>
      <trkpt lat="47.08525" lon="-0.87604">
        <ele>115</ele>
        <time>2016-10-26T15:49:21.009Z</time>
      </trkpt>
      <trkpt lat="47.08521" lon="-0.87607">
        <ele>115</ele>
        <time>2016-10-26T15:49:25.009Z</time>
      </trkpt>
      <trkpt lat="47.08518" lon="-0.87609">
        <ele>115</ele>
        <time>2016-10-26T15:49:28.009Z</time>
      </trkpt>
      <trkpt lat="47.08514" lon="-0.87612">
        <ele>115</ele>
        <time>2016-10-26T15:49:31.009Z</time>
      </trkpt>
      <trkpt lat="47.0851" lon="-0.87615">
        <ele>115</ele>
        <time>2016-10-26T15:49:34.009Z</time>
      </trkpt>
      <trkpt lat="47.08506" lon="-0.87617">
        <ele>115</ele>
        <time>2016-10-26T15:49:37.009Z</time>
      </trkpt>
      <trkpt lat="47.08503" lon="-0.87621">
        <ele>115</ele>
        <time>2016-10-26T15:49:43.009Z</time>
      </trkpt>
      <trkpt lat="47.08499" lon="-0.87625">
        <ele>115</ele>
        <time>2016-10-26T15:49:46.009Z</time>
      </trkpt>
      <trkpt lat="47.08495" lon="-0.87628">
        <ele>115</ele>
        <time>2016-10-26T15:49:49.009Z</time>
      </trkpt>
      <trkpt lat="47.08491" lon="-0.8763">
        <ele>115</ele>
        <time>2016-10-26T15:49:52.009Z</time>
      </trkpt>
      <trkpt lat="47.08488" lon="-0.87634">
        <ele>115</ele>
        <time>2016-10-26T15:49:55.009Z</time>
      </trkpt>
      <trkpt lat="47.08484" lon="-0.87637">
        <ele>115</ele>
        <time>2016-10-26T15:49:59.009Z</time>
      </trkpt>
      <trkpt lat="47.0848" lon="-0.8764">
        <ele>115</ele>
        <time>2016-10-26T15:50:02.009Z</time>
      </trkpt>
      <trkpt lat="47.08477" lon="-0.87642">
        <ele>115</ele>
        <time>2016-10-26T15:50:05.009Z</time>
      </trkpt>
      <trkpt lat="47.08474" lon="-0.87645">
        <ele>115</ele>
        <time>2016-10-26T15:50:08.009Z</time>
      </trkpt>
      <trkpt lat="47.0847" lon="-0.87649">
        <ele>115</ele>
        <time>2016-10-26T15:50:12.009Z</time>
      </trkpt>
      <trkpt lat="47.08466" lon="-0.87652">
        <ele>115</ele>
        <time>2016-10-26T15:50:15.009Z</time>
      </trkpt>
      <trkpt lat="47.08463" lon="-0.87655">
        <ele>115</ele>
        <time>2016-10-26T15:50:18.009Z</time>
      </trkpt>
      <trkpt lat="47.0846" lon="-0.87658">
        <ele>115</ele>
        <time>2016-10-26T15:50:21.009Z</time>
      </trkpt>
      <trkpt lat="47.08456" lon="-0.87662">
        <ele>115</ele>
        <time>2016-10-26T15:50:25.009Z</time>
      </trkpt>
      <trkpt lat="47.08453" lon="-0.87666">
        <ele>115</ele>
        <time>2016-10-26T15:50:28.009Z</time>
      </trkpt>
      <trkpt lat="47.08449" lon="-0.8767">
        <ele>115</ele>
        <time>2016-10-26T15:50:31.009Z</time>
      </trkpt>
      <trkpt lat="47.08447" lon="-0.87673">
        <ele>115</ele>
        <time>2016-10-26T15:50:34.009Z</time>
      </trkpt>
      <trkpt lat="47.08444" lon="-0.87676">
        <ele>115</ele>
        <time>2016-10-26T15:50:37.009Z</time>
      </trkpt>
      <trkpt lat="47.08439" lon="-0.8768">
        <ele>115</ele>
        <time>2016-10-26T15:50:41.009Z</time>
      </trkpt>
      <trkpt lat="47.08436" lon="-0.87683">
        <ele>115</ele>
        <time>2016-10-26T15:50:44.009Z</time>
      </trkpt>
      <trkpt lat="47.08434" lon="-0.87687">
        <ele>115</ele>
        <time>2016-10-26T15:50:47.009Z</time>
      </trkpt>
      <trkpt lat="47.0843" lon="-0.8769">
        <ele>115</ele>
        <time>2016-10-26T15:50:50.009Z</time>
      </trkpt>
      <trkpt lat="47.08427" lon="-0.87693">
        <ele>116</ele>
        <time>2016-10-26T15:50:53.009Z</time>
      </trkpt>
      <trkpt lat="47.08424" lon="-0.87697">
        <ele>116</ele>
        <time>2016-10-26T15:50:56.009Z</time>
      </trkpt>
      <trkpt lat="47.08422" lon="-0.877">
        <ele>116</ele>
        <time>2016-10-26T15:50:59.009Z</time>
      </trkpt>
      <trkpt lat="47.08418" lon="-0.87703">
        <ele>116</ele>
        <time>2016-10-26T15:51:02.009Z</time>
      </trkpt>
      <trkpt lat="47.08415" lon="-0.87706">
        <ele>116</ele>
        <time>2016-10-26T15:51:05.009Z</time>
      </trkpt>
      <trkpt lat="47.08412" lon="-0.8771">
        <ele>116</ele>
        <time>2016-10-26T15:51:08.009Z</time>
      </trkpt>
      <trkpt lat="47.08408" lon="-0.87713">
        <ele>116</ele>
        <time>2016-10-26T15:51:11.009Z</time>
      </trkpt>
      <trkpt lat="47.08405" lon="-0.87717">
        <ele>116</ele>
        <time>2016-10-26T15:51:15.009Z</time>
      </trkpt>
      <trkpt lat="47.08401" lon="-0.87721">
        <ele>116</ele>
        <time>2016-10-26T15:51:18.009Z</time>
      </trkpt>
      <trkpt lat="47.08397" lon="-0.87724">
        <ele>116</ele>
        <time>2016-10-26T15:51:21.009Z</time>
      </trkpt>
      <trkpt lat="47.08394" lon="-0.87727">
        <ele>116</ele>
        <time>2016-10-26T15:51:24.009Z</time>
      </trkpt>
      <trkpt lat="47.0839" lon="-0.87731">
        <ele>116</ele>
        <time>2016-10-26T15:51:28.009Z</time>
      </trkpt>
      <trkpt lat="47.08387" lon="-0.87734">
        <ele>116</ele>
        <time>2016-10-26T15:51:31.009Z</time>
      </trkpt>
      <trkpt lat="47.08384" lon="-0.87737">
        <ele>116</ele>
        <time>2016-10-26T15:51:34.009Z</time>
      </trkpt>
      <trkpt lat="47.08381" lon="-0.87741">
        <ele>116</ele>
        <time>2016-10-26T15:51:37.009Z</time>
      </trkpt>
      <trkpt lat="47.08378" lon="-0.87744">
        <ele>116</ele>
        <time>2016-10-26T15:51:40.009Z</time>
      </trkpt>
      <trkpt lat="47.08375" lon="-0.87748">
        <ele>116</ele>
        <time>2016-10-26T15:51:43.009Z</time>
      </trkpt>
      <trkpt lat="47.08372" lon="-0.87751">
        <ele>116</ele>
        <time>2016-10-26T15:51:46.009Z</time>
      </trkpt>
      <trkpt lat="47.08369" lon="-0.87755">
        <ele>116</ele>
        <time>2016-10-26T15:51:50.009Z</time>
      </trkpt>
      <trkpt lat="47.08365" lon="-0.87758">
        <ele>116</ele>
        <time>2016-10-26T15:51:53.009Z</time>
      </trkpt>
      <trkpt lat="47.0836" lon="-0.87761">
        <ele>116</ele>
        <time>2016-10-26T15:51:57.009Z</time>
      </trkpt>
      <trkpt lat="47.08357" lon="-0.87764">
        <ele>116</ele>
        <time>2016-10-26T15:52:00.009Z</time>
      </trkpt>
      <trkpt lat="47.08354" lon="-0.87767">
        <ele>116</ele>
        <time>2016-10-26T15:52:03.009Z</time>
      </trkpt>
      <trkpt lat="47.0835" lon="-0.8777">
        <ele>117</ele>
        <time>2016-10-26T15:52:06.009Z</time>
      </trkpt>
      <trkpt lat="47.08347" lon="-0.87772">
        <ele>117</ele>
        <time>2016-10-26T15:52:09.009Z</time>
      </trkpt>
      <trkpt lat="47.08343" lon="-0.87775">
        <ele>117</ele>
        <time>2016-10-26T15:52:12.009Z</time>
      </trkpt>
      <trkpt lat="47.0834" lon="-0.87778">
        <ele>117</ele>
        <time>2016-10-26T15:52:15.009Z</time>
      </trkpt>
      <trkpt lat="47.08337" lon="-0.87782">
        <ele>117</ele>
        <time>2016-10-26T15:52:18.009Z</time>
      </trkpt>
      <trkpt lat="47.08334" lon="-0.87785">
        <ele>117</ele>
        <time>2016-10-26T15:52:21.009Z</time>
      </trkpt>
      <trkpt lat="47.08331" lon="-0.87789">
        <ele>117</ele>
        <time>2016-10-26T15:52:24.009Z</time>
      </trkpt>
      <trkpt lat="47.08327" lon="-0.87792">
        <ele>117</ele>
        <time>2016-10-26T15:52:28.009Z</time>
      </trkpt>
      <trkpt lat="47.08324" lon="-0.87796">
        <ele>118</ele>
        <time>2016-10-26T15:52:32.009Z</time>
      </trkpt>
      <trkpt lat="47.0832" lon="-0.87799">
        <ele>118</ele>
        <time>2016-10-26T15:52:36.009Z</time>
      </trkpt>
      <trkpt lat="47.08317" lon="-0.87803">
        <ele>118</ele>
        <time>2016-10-26T15:52:39.009Z</time>
      </trkpt>
      <trkpt lat="47.08314" lon="-0.87805">
        <ele>118</ele>
        <time>2016-10-26T15:52:42.009Z</time>
      </trkpt>
      <trkpt lat="47.0831" lon="-0.87809">
        <ele>118</ele>
        <time>2016-10-26T15:52:46.009Z</time>
      </trkpt>
      <trkpt lat="47.08307" lon="-0.87812">
        <ele>118</ele>
        <time>2016-10-26T15:52:49.009Z</time>
      </trkpt>
      <trkpt lat="47.08303" lon="-0.87816">
        <ele>118</ele>
        <time>2016-10-26T15:52:53.009Z</time>
      </trkpt>
      <trkpt lat="47.083" lon="-0.87819">
        <ele>118</ele>
        <time>2016-10-26T15:52:56.009Z</time>
      </trkpt>
      <trkpt lat="47.08297" lon="-0.87821">
        <ele>118</ele>
        <time>2016-10-26T15:52:59.009Z</time>
      </trkpt>
      <trkpt lat="47.08294" lon="-0.87826">
        <ele>118</ele>
        <time>2016-10-26T15:53:02.009Z</time>
      </trkpt>
      <trkpt lat="47.08291" lon="-0.87831">
        <ele>118</ele>
        <time>2016-10-26T15:53:06.009Z</time>
      </trkpt>
      <trkpt lat="47.08288" lon="-0.87836">
        <ele>118</ele>
        <time>2016-10-26T15:53:10.009Z</time>
      </trkpt>
      <trkpt lat="47.08285" lon="-0.87841">
        <ele>118</ele>
        <time>2016-10-26T15:53:13.009Z</time>
      </trkpt>
      <trkpt lat="47.08282" lon="-0.87846">
        <ele>118</ele>
        <time>2016-10-26T15:53:16.009Z</time>
      </trkpt>
      <trkpt lat="47.0828" lon="-0.8785">
        <ele>118</ele>
        <time>2016-10-26T15:53:19.009Z</time>
      </trkpt>
      <trkpt lat="47.08277" lon="-0.87854">
        <ele>119</ele>
        <time>2016-10-26T15:53:22.009Z</time>
      </trkpt>
      <trkpt lat="47.08274" lon="-0.87859">
        <ele>119</ele>
        <time>2016-10-26T15:53:25.009Z</time>
      </trkpt>
      <trkpt lat="47.08271" lon="-0.87862">
        <ele>119</ele>
        <time>2016-10-26T15:53:28.009Z</time>
      </trkpt>
      <trkpt lat="47.08268" lon="-0.87865">
        <ele>119</ele>
        <time>2016-10-26T15:53:31.009Z</time>
      </trkpt>
      <trkpt lat="47.08265" lon="-0.87869">
        <ele>119</ele>
        <time>2016-10-26T15:53:34.009Z</time>
      </trkpt>
      <trkpt lat="47.08261" lon="-0.87873">
        <ele>119</ele>
        <time>2016-10-26T15:53:37.009Z</time>
      </trkpt>
      <trkpt lat="47.08258" lon="-0.87876">
        <ele>119</ele>
        <time>2016-10-26T15:53:40.009Z</time>
      </trkpt>
      <trkpt lat="47.08254" lon="-0.87879">
        <ele>119</ele>
        <time>2016-10-26T15:53:44.009Z</time>
      </trkpt>
      <trkpt lat="47.0825" lon="-0.87883">
        <ele>119</ele>
        <time>2016-10-26T15:53:48.009Z</time>
      </trkpt>
      <trkpt lat="47.08247" lon="-0.87888">
        <ele>120</ele>
        <time>2016-10-26T15:53:51.009Z</time>
      </trkpt>
      <trkpt lat="47.08245" lon="-0.87892">
        <ele>120</ele>
        <time>2016-10-26T15:53:54.009Z</time>
      </trkpt>
      <trkpt lat="47.08242" lon="-0.87896">
        <ele>120</ele>
        <time>2016-10-26T15:53:57.009Z</time>
      </trkpt>
      <trkpt lat="47.0824" lon="-0.87902">
        <ele>120</ele>
        <time>2016-10-26T15:54:00.009Z</time>
      </trkpt>
      <trkpt lat="47.08242" lon="-0.87908">
        <ele>120</ele>
        <time>2016-10-26T15:54:03.009Z</time>
      </trkpt>
      <trkpt lat="47.08245" lon="-0.87913">
        <ele>120</ele>
        <time>2016-10-26T15:54:06.009Z</time>
      </trkpt>
      <trkpt lat="47.08248" lon="-0.87918">
        <ele>120</ele>
        <time>2016-10-26T15:54:09.009Z</time>
      </trkpt>
      <trkpt lat="47.0825" lon="-0.87923">
        <ele>120</ele>
        <time>2016-10-26T15:54:12.009Z</time>
      </trkpt>
      <trkpt lat="47.08252" lon="-0.87928">
        <ele>120</ele>
        <time>2016-10-26T15:54:16.009Z</time>
      </trkpt>
      <trkpt lat="47.08252" lon="-0.87935">
        <ele>120</ele>
        <time>2016-10-26T15:54:20.009Z</time>
      </trkpt>
      <trkpt lat="47.08249" lon="-0.87939">
        <ele>120</ele>
        <time>2016-10-26T15:54:23.009Z</time>
      </trkpt>
      <trkpt lat="47.08246" lon="-0.87944">
        <ele>120</ele>
        <time>2016-10-26T15:54:26.009Z</time>
      </trkpt>
      <trkpt lat="47.08242" lon="-0.87947">
        <ele>120</ele>
        <time>2016-10-26T15:54:29.009Z</time>
      </trkpt>
      <trkpt lat="47.08237" lon="-0.87948">
        <ele>120</ele>
        <time>2016-10-26T15:54:32.009Z</time>
      </trkpt>
      <trkpt lat="47.08234" lon="-0.87953">
        <ele>120</ele>
        <time>2016-10-26T15:54:36.009Z</time>
      </trkpt>
      <trkpt lat="47.08231" lon="-0.87957">
        <ele>120</ele>
        <time>2016-10-26T15:54:39.009Z</time>
      </trkpt>
      <trkpt lat="47.08228" lon="-0.87959">
        <ele>120</ele>
        <time>2016-10-26T15:54:42.009Z</time>
      </trkpt>
      <trkpt lat="47.08224" lon="-0.87962">
        <ele>120</ele>
        <time>2016-10-26T15:54:45.009Z</time>
      </trkpt>
      <trkpt lat="47.08221" lon="-0.87963">
        <ele>120</ele>
        <time>2016-10-26T15:54:48.009Z</time>
      </trkpt>
      <trkpt lat="47.08217" lon="-0.87966">
        <ele>121</ele>
        <time>2016-10-26T15:54:52.009Z</time>
      </trkpt>
      <trkpt lat="47.08213" lon="-0.87969">
        <ele>121</ele>
        <time>2016-10-26T15:54:56.009Z</time>
      </trkpt>
      <trkpt lat="47.08209" lon="-0.87972">
        <ele>122</ele>
        <time>2016-10-26T15:55:00.009Z</time>
      </trkpt>
      <trkpt lat="47.08205" lon="-0.87973">
        <ele>121</ele>
        <time>2016-10-26T15:55:04.009Z</time>
      </trkpt>
      <trkpt lat="47.08202" lon="-0.87974">
        <ele>121</ele>
        <time>2016-10-26T15:55:07.009Z</time>
      </trkpt>
      <trkpt lat="47.08198" lon="-0.87975">
        <ele>121</ele>
        <time>2016-10-26T15:55:10.009Z</time>
      </trkpt>
      <trkpt lat="47.08193" lon="-0.87977">
        <ele>121</ele>
        <time>2016-10-26T15:55:13.009Z</time>
      </trkpt>
      <trkpt lat="47.08189" lon="-0.87981">
        <ele>121</ele>
        <time>2016-10-26T15:55:16.009Z</time>
      </trkpt>
      <trkpt lat="47.08186" lon="-0.87983">
        <ele>121</ele>
        <time>2016-10-26T15:55:19.009Z</time>
      </trkpt>
      <trkpt lat="47.08181" lon="-0.87986">
        <ele>122</ele>
        <time>2016-10-26T15:55:23.009Z</time>
      </trkpt>
      <trkpt lat="47.08177" lon="-0.87991">
        <ele>122</ele>
        <time>2016-10-26T15:55:26.009Z</time>
      </trkpt>
      <trkpt lat="47.08173" lon="-0.87992">
        <ele>122</ele>
        <time>2016-10-26T15:55:29.009Z</time>
      </trkpt>
      <trkpt lat="47.08169" lon="-0.87992">
        <ele>122</ele>
        <time>2016-10-26T15:55:33.009Z</time>
      </trkpt>
      <trkpt lat="47.08165" lon="-0.87992">
        <ele>122</ele>
        <time>2016-10-26T15:55:38.009Z</time>
      </trkpt>
      <trkpt lat="47.08162" lon="-0.87988">
        <ele>122</ele>
        <time>2016-10-26T15:55:45.009Z</time>
      </trkpt>
      <trkpt lat="47.08159" lon="-0.87984">
        <ele>122</ele>
        <time>2016-10-26T15:55:49.009Z</time>
      </trkpt>
      <trkpt lat="47.08156" lon="-0.87979">
        <ele>122</ele>
        <time>2016-10-26T15:55:52.009Z</time>
      </trkpt>
      <trkpt lat="47.08152" lon="-0.87976">
        <ele>122</ele>
        <time>2016-10-26T15:55:55.009Z</time>
      </trkpt>
      <trkpt lat="47.08149" lon="-0.87972">
        <ele>122</ele>
        <time>2016-10-26T15:55:58.009Z</time>
      </trkpt>
      <trkpt lat="47.08148" lon="-0.87959">
        <ele>122</ele>
        <time>2016-10-26T15:56:03.009Z</time>
      </trkpt>
      <trkpt lat="47.08147" lon="-0.87953">
        <ele>122</ele>
        <time>2016-10-26T15:56:05.009Z</time>
      </trkpt>
      <trkpt lat="47.08145" lon="-0.87947">
        <ele>122</ele>
        <time>2016-10-26T15:56:08.009Z</time>
      </trkpt>
      <trkpt lat="47.08141" lon="-0.87942">
        <ele>122.33586554248</ele>
        <time>2016-10-26T15:56:11.009Z</time>
      </trkpt>
      <trkpt lat="47.08136" lon="-0.87944">
        <ele>123</ele>
        <time>2016-10-26T15:56:14.009Z</time>
      </trkpt>
      <trkpt lat="47.08133" lon="-0.87948">
        <ele>123</ele>
        <time>2016-10-26T15:56:17.009Z</time>
      </trkpt>
      <trkpt lat="47.0813" lon="-0.87952">
        <ele>123</ele>
        <time>2016-10-26T15:56:20.009Z</time>
      </trkpt>
      <trkpt lat="47.08127" lon="-0.87957">
        <ele>123</ele>
        <time>2016-10-26T15:56:24.009Z</time>
      </trkpt>
      <trkpt lat="47.08124" lon="-0.87961">
        <ele>123</ele>
        <time>2016-10-26T15:56:27.009Z</time>
      </trkpt>
      <trkpt lat="47.08121" lon="-0.87965">
        <ele>123</ele>
        <time>2016-10-26T15:56:30.009Z</time>
      </trkpt>
      <trkpt lat="47.08118" lon="-0.87969">
        <ele>124</ele>
        <time>2016-10-26T15:56:33.009Z</time>
      </trkpt>
      <trkpt lat="47.08115" lon="-0.87973">
        <ele>124</ele>
        <time>2016-10-26T15:56:36.009Z</time>
      </trkpt>
      <trkpt lat="47.08113" lon="-0.87977">
        <ele>125</ele>
        <time>2016-10-26T15:56:39.009Z</time>
      </trkpt>
      <trkpt lat="47.08112" lon="-0.87978">
        <ele>125</ele>
        <time>2016-10-26T15:56:40.009Z</time>
      </trkpt>
    </trkseg>
  </trk>
</gpx>